<?xml version="1.0" encoding="UTF-8" standalone="no" ?>
<gpx xmlns="http://www.topografix.com/GPX/1/1" xmlns:xsi="http://www.w3.org/2001/XMLSchema-instance" xsi:schemaLocation="http://www.topografix.com/GPX/1/1 http://www.topografix.com/GPX/1/1/gpx.xsd" version="1.1" creator="VisuGPX - https://www.visugpx.com">
  <metadata>
    <name>83-M-Figanières</name>
    <desc><![CDATA[83-M-Figanières : la Chapelle Saint-Jean, le Château de La Garde
2022-11-23]]></desc>
  </metadata>
  <trk>
    <name><![CDATA[2022-11-23-M Chateaudouble-cor]]></name>
    <extensions>
      <line xmlns="http://www.topografix.com/GPX/gpx_style/0/2">
        <width>3</width>
      </line>
    </extensions>
    <trkseg>
      <trkpt lat="43.59141" lon="6.46927">
        <ele>463.7</ele>
        <time>2022-11-23T13:14:56.528Z</time>
      </trkpt>
      <trkpt lat="43.59135" lon="6.46911">
        <ele>465.8</ele>
        <time>2022-11-23T13:15:13.334Z</time>
      </trkpt>
      <trkpt lat="43.59132" lon="6.46883">
        <ele>469.1</ele>
        <time>2022-11-23T13:15:39.847Z</time>
      </trkpt>
      <trkpt lat="43.59117" lon="6.46866">
        <ele>473.3</ele>
        <time>2022-11-23T13:16:03.704Z</time>
      </trkpt>
      <trkpt lat="43.59115" lon="6.46841">
        <ele>476.2</ele>
        <time>2022-11-23T13:16:26.515Z</time>
      </trkpt>
      <trkpt lat="43.59132" lon="6.46828">
        <ele>474.8</ele>
        <time>2022-11-23T13:16:50.333Z</time>
      </trkpt>
      <trkpt lat="43.59164" lon="6.4683">
        <ele>468.1</ele>
        <time>2022-11-23T13:17:31.037Z</time>
      </trkpt>
      <trkpt lat="43.59183" lon="6.46811">
        <ele>466.3</ele>
        <time>2022-11-23T13:18:00.517Z</time>
      </trkpt>
      <trkpt lat="43.59192" lon="6.4678">
        <ele>466.9</ele>
        <time>2022-11-23T13:18:30.703Z</time>
      </trkpt>
      <trkpt lat="43.592" lon="6.46754">
        <ele>466.4</ele>
        <time>2022-11-23T13:18:56.389Z</time>
      </trkpt>
      <trkpt lat="43.59215" lon="6.46725">
        <ele>463.4</ele>
        <time>2022-11-23T13:19:28.594Z</time>
      </trkpt>
      <trkpt lat="43.5922" lon="6.46689">
        <ele>464</ele>
        <time>2022-11-23T13:20:01.833Z</time>
      </trkpt>
      <trkpt lat="43.5923" lon="6.46655">
        <ele>462.1</ele>
        <time>2022-11-23T13:20:34.780Z</time>
      </trkpt>
      <trkpt lat="43.59242" lon="6.46606">
        <ele>458.5</ele>
        <time>2022-11-23T13:21:22.297Z</time>
      </trkpt>
      <trkpt lat="43.59252" lon="6.46566">
        <ele>453.9</ele>
        <time>2022-11-23T13:22:00.995Z</time>
      </trkpt>
      <trkpt lat="43.59253" lon="6.46536">
        <ele>452.5</ele>
        <time>2022-11-23T13:22:28.088Z</time>
      </trkpt>
      <trkpt lat="43.59235" lon="6.46509">
        <ele>461</ele>
        <time>2022-11-23T13:23:01.731Z</time>
      </trkpt>
      <trkpt lat="43.59219" lon="6.46481">
        <ele>468.6</ele>
        <time>2022-11-23T13:23:35.145Z</time>
      </trkpt>
      <trkpt lat="43.59217" lon="6.46448">
        <ele>466.8</ele>
        <time>2022-11-23T13:24:05.420Z</time>
      </trkpt>
      <trkpt lat="43.59219" lon="6.46402">
        <ele>461.7</ele>
        <time>2022-11-23T13:24:47.081Z</time>
      </trkpt>
      <trkpt lat="43.59212" lon="6.46375">
        <ele>464.8</ele>
        <time>2022-11-23T13:25:13.495Z</time>
      </trkpt>
      <trkpt lat="43.59196" lon="6.4635">
        <ele>474.1</ele>
        <time>2022-11-23T13:25:45.484Z</time>
      </trkpt>
      <trkpt lat="43.59176" lon="6.46313">
        <ele>481.3</ele>
        <time>2022-11-23T13:26:27.885Z</time>
      </trkpt>
      <trkpt lat="43.59147" lon="6.46285">
        <ele>489.4</ele>
        <time>2022-11-23T13:27:13.605Z</time>
      </trkpt>
      <trkpt lat="43.59115" lon="6.46251">
        <ele>496</ele>
        <time>2022-11-23T13:28:04.410Z</time>
      </trkpt>
      <trkpt lat="43.59111" lon="6.46226">
        <ele>493.7</ele>
        <time>2022-11-23T13:28:28.037Z</time>
      </trkpt>
      <trkpt lat="43.59098" lon="6.46195">
        <ele>495.4</ele>
        <time>2022-11-23T13:29:00.112Z</time>
      </trkpt>
      <trkpt lat="43.59084" lon="6.46145">
        <ele>497.1</ele>
        <time>2022-11-23T13:29:48.594Z</time>
      </trkpt>
      <trkpt lat="43.59079" lon="6.46099">
        <ele>494.5</ele>
        <time>2022-11-23T13:30:30.869Z</time>
      </trkpt>
      <trkpt lat="43.59073" lon="6.46067">
        <ele>495.6</ele>
        <time>2022-11-23T13:31:00.623Z</time>
      </trkpt>
      <trkpt lat="43.59069" lon="6.46005">
        <ele>498.3</ele>
        <time>2022-11-23T13:31:56.878Z</time>
      </trkpt>
      <trkpt lat="43.59069" lon="6.45975">
        <ele>500</ele>
        <time>2022-11-23T13:32:24.033Z</time>
      </trkpt>
      <trkpt lat="43.59057" lon="6.45921">
        <ele>508.4</ele>
        <time>2022-11-23T13:33:16.226Z</time>
      </trkpt>
      <trkpt lat="43.59065" lon="6.45888">
        <ele>505.9</ele>
        <time>2022-11-23T13:33:47.450Z</time>
      </trkpt>
      <trkpt lat="43.59053" lon="6.45845">
        <ele>511.6</ele>
        <time>2022-11-23T13:34:30.025Z</time>
      </trkpt>
      <trkpt lat="43.59051" lon="6.45794">
        <ele>509.7</ele>
        <time>2022-11-23T13:35:15.992Z</time>
      </trkpt>
      <trkpt lat="43.59047" lon="6.45767">
        <ele>509</ele>
        <time>2022-11-23T13:35:40.867Z</time>
      </trkpt>
      <trkpt lat="43.59029" lon="6.45752">
        <ele>515.4</ele>
        <time>2022-11-23T13:36:08.052Z</time>
      </trkpt>
      <trkpt lat="43.58997" lon="6.45723">
        <ele>525.7</ele>
        <time>2022-11-23T13:36:57.415Z</time>
      </trkpt>
      <trkpt lat="43.5898" lon="6.45691">
        <ele>528.6</ele>
        <time>2022-11-23T13:37:32.961Z</time>
      </trkpt>
      <trkpt lat="43.58959" lon="6.45663">
        <ele>533</ele>
        <time>2022-11-23T13:38:09.656Z</time>
      </trkpt>
      <trkpt lat="43.58939" lon="6.45657">
        <ele>540.3</ele>
        <time>2022-11-23T13:38:36.988Z</time>
      </trkpt>
      <trkpt lat="43.58916" lon="6.45636">
        <ele>547.3</ele>
        <time>2022-11-23T13:39:12.393Z</time>
      </trkpt>
      <trkpt lat="43.58897" lon="6.45596">
        <ele>549.4</ele>
        <time>2022-11-23T13:39:56.354Z</time>
      </trkpt>
      <trkpt lat="43.58869" lon="6.45573">
        <ele>555.5</ele>
        <time>2022-11-23T13:40:37.166Z</time>
      </trkpt>
      <trkpt lat="43.58852" lon="6.4554">
        <ele>555.2</ele>
        <time>2022-11-23T13:41:14.000Z</time>
      </trkpt>
      <trkpt lat="43.58846" lon="6.45527">
        <ele>554</ele>
        <time>2022-11-23T13:41:23.000Z</time>
      </trkpt>
      <trkpt lat="43.5885" lon="6.45519">
        <ele>555.5</ele>
        <time>2022-11-23T13:41:26.000Z</time>
      </trkpt>
      <trkpt lat="43.58845" lon="6.45517">
        <ele>556.6</ele>
        <time>2022-11-23T13:41:35.000Z</time>
      </trkpt>
      <trkpt lat="43.58842" lon="6.45513">
        <ele>556.6</ele>
        <time>2022-11-23T13:41:42.000Z</time>
      </trkpt>
      <trkpt lat="43.58836" lon="6.45505">
        <ele>556.1</ele>
        <time>2022-11-23T13:41:50.000Z</time>
      </trkpt>
      <trkpt lat="43.58833" lon="6.455">
        <ele>556.7</ele>
        <time>2022-11-23T13:41:55.000Z</time>
      </trkpt>
      <trkpt lat="43.5883" lon="6.45494">
        <ele>556.9</ele>
        <time>2022-11-23T13:42:01.000Z</time>
      </trkpt>
      <trkpt lat="43.58833" lon="6.45489">
        <ele>556.6</ele>
        <time>2022-11-23T13:42:04.000Z</time>
      </trkpt>
      <trkpt lat="43.58828" lon="6.45486">
        <ele>557.2</ele>
        <time>2022-11-23T13:42:07.000Z</time>
      </trkpt>
      <trkpt lat="43.58827" lon="6.45478">
        <ele>557.2</ele>
        <time>2022-11-23T13:42:11.000Z</time>
      </trkpt>
      <trkpt lat="43.58827" lon="6.4547">
        <ele>556</ele>
        <time>2022-11-23T13:42:16.000Z</time>
      </trkpt>
      <trkpt lat="43.58825" lon="6.45464">
        <ele>556</ele>
        <time>2022-11-23T13:42:20.000Z</time>
      </trkpt>
      <trkpt lat="43.58824" lon="6.45456">
        <ele>557</ele>
        <time>2022-11-23T13:42:24.000Z</time>
      </trkpt>
      <trkpt lat="43.5882" lon="6.45452">
        <ele>557.5</ele>
        <time>2022-11-23T13:42:27.000Z</time>
      </trkpt>
      <trkpt lat="43.58816" lon="6.45447">
        <ele>556.7</ele>
        <time>2022-11-23T13:42:31.000Z</time>
      </trkpt>
      <trkpt lat="43.58812" lon="6.45443">
        <ele>556.9</ele>
        <time>2022-11-23T13:42:36.000Z</time>
      </trkpt>
      <trkpt lat="43.58809" lon="6.45437">
        <ele>557.1</ele>
        <time>2022-11-23T13:42:41.000Z</time>
      </trkpt>
      <trkpt lat="43.58808" lon="6.45431">
        <ele>557.2</ele>
        <time>2022-11-23T13:42:46.000Z</time>
      </trkpt>
      <trkpt lat="43.58811" lon="6.45423">
        <ele>557.9</ele>
        <time>2022-11-23T13:42:49.000Z</time>
      </trkpt>
      <trkpt lat="43.58815" lon="6.45418">
        <ele>558.3</ele>
        <time>2022-11-23T13:42:51.000Z</time>
      </trkpt>
      <trkpt lat="43.58818" lon="6.45412">
        <ele>558.4</ele>
        <time>2022-11-23T13:42:54.000Z</time>
      </trkpt>
      <trkpt lat="43.58822" lon="6.45407">
        <ele>558.6</ele>
        <time>2022-11-23T13:42:57.000Z</time>
      </trkpt>
      <trkpt lat="43.58824" lon="6.45401">
        <ele>558.1</ele>
        <time>2022-11-23T13:43:00.000Z</time>
      </trkpt>
      <trkpt lat="43.58829" lon="6.45396">
        <ele>558.2</ele>
        <time>2022-11-23T13:43:02.000Z</time>
      </trkpt>
      <trkpt lat="43.58832" lon="6.45391">
        <ele>558.6</ele>
        <time>2022-11-23T13:43:04.000Z</time>
      </trkpt>
      <trkpt lat="43.58836" lon="6.45384">
        <ele>559.1</ele>
        <time>2022-11-23T13:43:07.000Z</time>
      </trkpt>
      <trkpt lat="43.58841" lon="6.45378">
        <ele>558.9</ele>
        <time>2022-11-23T13:43:10.000Z</time>
      </trkpt>
      <trkpt lat="43.58846" lon="6.45368">
        <ele>559</ele>
        <time>2022-11-23T13:43:15.000Z</time>
      </trkpt>
      <trkpt lat="43.58842" lon="6.45362">
        <ele>560</ele>
        <time>2022-11-23T13:43:19.000Z</time>
      </trkpt>
      <trkpt lat="43.58841" lon="6.45355">
        <ele>560.5</ele>
        <time>2022-11-23T13:43:23.000Z</time>
      </trkpt>
      <trkpt lat="43.58845" lon="6.45339">
        <ele>561.1</ele>
        <time>2022-11-23T13:43:32.000Z</time>
      </trkpt>
      <trkpt lat="43.58846" lon="6.45331">
        <ele>561</ele>
        <time>2022-11-23T13:43:37.000Z</time>
      </trkpt>
      <trkpt lat="43.58851" lon="6.45323">
        <ele>562.3</ele>
        <time>2022-11-23T13:43:40.000Z</time>
      </trkpt>
      <trkpt lat="43.58853" lon="6.45317">
        <ele>562.3</ele>
        <time>2022-11-23T13:43:43.000Z</time>
      </trkpt>
      <trkpt lat="43.58854" lon="6.45311">
        <ele>562.1</ele>
        <time>2022-11-23T13:43:46.000Z</time>
      </trkpt>
      <trkpt lat="43.58861" lon="6.45298">
        <ele>564.7</ele>
        <time>2022-11-23T13:43:53.000Z</time>
      </trkpt>
      <trkpt lat="43.58861" lon="6.45291">
        <ele>564.6</ele>
        <time>2022-11-23T13:43:58.000Z</time>
      </trkpt>
      <trkpt lat="43.58862" lon="6.45285">
        <ele>565.9</ele>
        <time>2022-11-23T13:44:02.000Z</time>
      </trkpt>
      <trkpt lat="43.58852" lon="6.45281">
        <ele>565.8</ele>
        <time>2022-11-23T13:44:07.000Z</time>
      </trkpt>
      <trkpt lat="43.58848" lon="6.45278">
        <ele>566.2</ele>
        <time>2022-11-23T13:44:10.000Z</time>
      </trkpt>
      <trkpt lat="43.58847" lon="6.45272">
        <ele>566</ele>
        <time>2022-11-23T13:44:39.000Z</time>
      </trkpt>
      <trkpt lat="43.58852" lon="6.45261">
        <ele>566.5</ele>
        <time>2022-11-23T13:44:46.000Z</time>
      </trkpt>
      <trkpt lat="43.58856" lon="6.45255">
        <ele>566.6</ele>
        <time>2022-11-23T13:44:49.000Z</time>
      </trkpt>
      <trkpt lat="43.58852" lon="6.45258">
        <ele>566.7</ele>
        <time>2022-11-23T13:44:53.000Z</time>
      </trkpt>
      <trkpt lat="43.58847" lon="6.45261">
        <ele>566.9</ele>
        <time>2022-11-23T13:44:55.000Z</time>
      </trkpt>
      <trkpt lat="43.5885" lon="6.45254">
        <ele>567.8</ele>
        <time>2022-11-23T13:45:01.000Z</time>
      </trkpt>
      <trkpt lat="43.58855" lon="6.45252">
        <ele>567.8</ele>
        <time>2022-11-23T13:45:02.000Z</time>
      </trkpt>
      <trkpt lat="43.5886" lon="6.45248">
        <ele>567.9</ele>
        <time>2022-11-23T13:45:04.000Z</time>
      </trkpt>
      <trkpt lat="43.58862" lon="6.45242">
        <ele>568.2</ele>
        <time>2022-11-23T13:45:10.000Z</time>
      </trkpt>
      <trkpt lat="43.58866" lon="6.45237">
        <ele>568.1</ele>
        <time>2022-11-23T13:45:13.000Z</time>
      </trkpt>
      <trkpt lat="43.58871" lon="6.45232">
        <ele>567.8</ele>
        <time>2022-11-23T13:45:19.000Z</time>
      </trkpt>
      <trkpt lat="43.58876" lon="6.45229">
        <ele>567.5</ele>
        <time>2022-11-23T13:45:23.000Z</time>
      </trkpt>
      <trkpt lat="43.58881" lon="6.45226">
        <ele>568.4</ele>
        <time>2022-11-23T13:46:10.000Z</time>
      </trkpt>
      <trkpt lat="43.58885" lon="6.45229">
        <ele>567.8</ele>
        <time>2022-11-23T13:46:16.000Z</time>
      </trkpt>
      <trkpt lat="43.58886" lon="6.45222">
        <ele>568</ele>
        <time>2022-11-23T13:46:55.000Z</time>
      </trkpt>
      <trkpt lat="43.58888" lon="6.45215">
        <ele>568.9</ele>
        <time>2022-11-23T13:47:00.000Z</time>
      </trkpt>
      <trkpt lat="43.5889" lon="6.4521">
        <ele>568.7</ele>
        <time>2022-11-23T13:47:04.000Z</time>
      </trkpt>
      <trkpt lat="43.58892" lon="6.45203">
        <ele>568.2</ele>
        <time>2022-11-23T13:47:08.000Z</time>
      </trkpt>
      <trkpt lat="43.58893" lon="6.45197">
        <ele>568</ele>
        <time>2022-11-23T13:47:12.000Z</time>
      </trkpt>
      <trkpt lat="43.58896" lon="6.45191">
        <ele>568.4</ele>
        <time>2022-11-23T13:47:16.000Z</time>
      </trkpt>
      <trkpt lat="43.58896" lon="6.45184">
        <ele>568</ele>
        <time>2022-11-23T13:47:23.000Z</time>
      </trkpt>
      <trkpt lat="43.58898" lon="6.45177">
        <ele>569</ele>
        <time>2022-11-23T13:47:27.000Z</time>
      </trkpt>
      <trkpt lat="43.589" lon="6.4517">
        <ele>569.3</ele>
        <time>2022-11-23T13:47:30.000Z</time>
      </trkpt>
      <trkpt lat="43.58902" lon="6.45163">
        <ele>569.6</ele>
        <time>2022-11-23T13:47:33.000Z</time>
      </trkpt>
      <trkpt lat="43.58903" lon="6.45156">
        <ele>570</ele>
        <time>2022-11-23T13:47:37.000Z</time>
      </trkpt>
      <trkpt lat="43.58904" lon="6.45149">
        <ele>570.7</ele>
        <time>2022-11-23T13:47:41.000Z</time>
      </trkpt>
      <trkpt lat="43.589" lon="6.45145">
        <ele>570</ele>
        <time>2022-11-23T13:47:52.000Z</time>
      </trkpt>
      <trkpt lat="43.58899" lon="6.45139">
        <ele>571.8</ele>
        <time>2022-11-23T13:48:30.000Z</time>
      </trkpt>
      <trkpt lat="43.589" lon="6.45132">
        <ele>571.3</ele>
        <time>2022-11-23T13:48:36.000Z</time>
      </trkpt>
      <trkpt lat="43.58895" lon="6.45128">
        <ele>571.3</ele>
        <time>2022-11-23T13:48:40.000Z</time>
      </trkpt>
      <trkpt lat="43.58894" lon="6.45121">
        <ele>571.1</ele>
        <time>2022-11-23T13:48:44.000Z</time>
      </trkpt>
      <trkpt lat="43.58897" lon="6.45115">
        <ele>571</ele>
        <time>2022-11-23T13:48:48.000Z</time>
      </trkpt>
      <trkpt lat="43.58894" lon="6.45109">
        <ele>571.4</ele>
        <time>2022-11-23T13:48:54.000Z</time>
      </trkpt>
      <trkpt lat="43.58891" lon="6.45104">
        <ele>570.9</ele>
        <time>2022-11-23T13:48:57.000Z</time>
      </trkpt>
      <trkpt lat="43.58891" lon="6.45097">
        <ele>570.6</ele>
        <time>2022-11-23T13:49:01.000Z</time>
      </trkpt>
      <trkpt lat="43.5889" lon="6.45091">
        <ele>570.4</ele>
        <time>2022-11-23T13:49:04.000Z</time>
      </trkpt>
      <trkpt lat="43.5889" lon="6.45084">
        <ele>570.9</ele>
        <time>2022-11-23T13:49:07.000Z</time>
      </trkpt>
      <trkpt lat="43.58888" lon="6.45076">
        <ele>571.1</ele>
        <time>2022-11-23T13:49:10.000Z</time>
      </trkpt>
      <trkpt lat="43.58888" lon="6.4507">
        <ele>571</ele>
        <time>2022-11-23T13:49:13.000Z</time>
      </trkpt>
      <trkpt lat="43.58888" lon="6.45063">
        <ele>570.6</ele>
        <time>2022-11-23T13:49:16.000Z</time>
      </trkpt>
      <trkpt lat="43.58887" lon="6.45056">
        <ele>570.4</ele>
        <time>2022-11-23T13:49:19.000Z</time>
      </trkpt>
      <trkpt lat="43.58889" lon="6.45048">
        <ele>570</ele>
        <time>2022-11-23T13:49:22.000Z</time>
      </trkpt>
      <trkpt lat="43.58891" lon="6.45041">
        <ele>569.5</ele>
        <time>2022-11-23T13:49:26.000Z</time>
      </trkpt>
      <trkpt lat="43.58894" lon="6.45035">
        <ele>569.9</ele>
        <time>2022-11-23T13:49:30.000Z</time>
      </trkpt>
      <trkpt lat="43.58896" lon="6.45028">
        <ele>569.5</ele>
        <time>2022-11-23T13:49:34.000Z</time>
      </trkpt>
      <trkpt lat="43.589" lon="6.45022">
        <ele>569.3</ele>
        <time>2022-11-23T13:49:37.000Z</time>
      </trkpt>
      <trkpt lat="43.58904" lon="6.45016">
        <ele>569.6</ele>
        <time>2022-11-23T13:49:40.000Z</time>
      </trkpt>
      <trkpt lat="43.58908" lon="6.45011">
        <ele>569.5</ele>
        <time>2022-11-23T13:49:43.000Z</time>
      </trkpt>
      <trkpt lat="43.58911" lon="6.45006">
        <ele>569.5</ele>
        <time>2022-11-23T13:49:46.000Z</time>
      </trkpt>
      <trkpt lat="43.58913" lon="6.44999">
        <ele>570.2</ele>
        <time>2022-11-23T13:49:50.000Z</time>
      </trkpt>
      <trkpt lat="43.58917" lon="6.44992">
        <ele>570.5</ele>
        <time>2022-11-23T13:49:54.000Z</time>
      </trkpt>
      <trkpt lat="43.58921" lon="6.44986">
        <ele>570.6</ele>
        <time>2022-11-23T13:49:58.000Z</time>
      </trkpt>
      <trkpt lat="43.58925" lon="6.44979">
        <ele>569.9</ele>
        <time>2022-11-23T13:50:02.000Z</time>
      </trkpt>
      <trkpt lat="43.58929" lon="6.44973">
        <ele>569.6</ele>
        <time>2022-11-23T13:50:06.000Z</time>
      </trkpt>
      <trkpt lat="43.58931" lon="6.44967">
        <ele>570.7</ele>
        <time>2022-11-23T13:50:10.000Z</time>
      </trkpt>
      <trkpt lat="43.58934" lon="6.44963">
        <ele>571.9</ele>
        <time>2022-11-23T13:50:13.000Z</time>
      </trkpt>
      <trkpt lat="43.58938" lon="6.44959">
        <ele>572.6</ele>
        <time>2022-11-23T13:50:16.000Z</time>
      </trkpt>
      <trkpt lat="43.58943" lon="6.44954">
        <ele>572.9</ele>
        <time>2022-11-23T13:50:19.000Z</time>
      </trkpt>
      <trkpt lat="43.58948" lon="6.44952">
        <ele>573.2</ele>
        <time>2022-11-23T13:50:22.000Z</time>
      </trkpt>
      <trkpt lat="43.58953" lon="6.44949">
        <ele>573.1</ele>
        <time>2022-11-23T13:50:25.000Z</time>
      </trkpt>
      <trkpt lat="43.58958" lon="6.44945">
        <ele>573.1</ele>
        <time>2022-11-23T13:50:29.000Z</time>
      </trkpt>
      <trkpt lat="43.58963" lon="6.44941">
        <ele>573.6</ele>
        <time>2022-11-23T13:50:33.000Z</time>
      </trkpt>
      <trkpt lat="43.58968" lon="6.44938">
        <ele>573.7</ele>
        <time>2022-11-23T13:50:37.000Z</time>
      </trkpt>
      <trkpt lat="43.58971" lon="6.44934">
        <ele>574.2</ele>
        <time>2022-11-23T13:50:40.000Z</time>
      </trkpt>
      <trkpt lat="43.58975" lon="6.44929">
        <ele>574.3</ele>
        <time>2022-11-23T13:50:43.000Z</time>
      </trkpt>
      <trkpt lat="43.5898" lon="6.44923">
        <ele>573.9</ele>
        <time>2022-11-23T13:50:47.000Z</time>
      </trkpt>
      <trkpt lat="43.58985" lon="6.4492">
        <ele>574.4</ele>
        <time>2022-11-23T13:50:50.000Z</time>
      </trkpt>
      <trkpt lat="43.5899" lon="6.44916">
        <ele>574.6</ele>
        <time>2022-11-23T13:50:54.000Z</time>
      </trkpt>
      <trkpt lat="43.58996" lon="6.44915">
        <ele>575</ele>
        <time>2022-11-23T13:50:58.000Z</time>
      </trkpt>
      <trkpt lat="43.59" lon="6.44914">
        <ele>575.3</ele>
        <time>2022-11-23T13:51:01.000Z</time>
      </trkpt>
      <trkpt lat="43.59005" lon="6.4491">
        <ele>575.7</ele>
        <time>2022-11-23T13:51:05.000Z</time>
      </trkpt>
      <trkpt lat="43.59009" lon="6.44906">
        <ele>576.2</ele>
        <time>2022-11-23T13:51:09.000Z</time>
      </trkpt>
      <trkpt lat="43.59015" lon="6.44904">
        <ele>575.8</ele>
        <time>2022-11-23T13:51:12.000Z</time>
      </trkpt>
      <trkpt lat="43.5902" lon="6.44902">
        <ele>575.9</ele>
        <time>2022-11-23T13:51:15.000Z</time>
      </trkpt>
      <trkpt lat="43.59025" lon="6.44898">
        <ele>575</ele>
        <time>2022-11-23T13:51:18.000Z</time>
      </trkpt>
      <trkpt lat="43.59029" lon="6.44894">
        <ele>576</ele>
        <time>2022-11-23T13:51:22.000Z</time>
      </trkpt>
      <trkpt lat="43.59033" lon="6.44888">
        <ele>576.3</ele>
        <time>2022-11-23T13:51:25.000Z</time>
      </trkpt>
      <trkpt lat="43.59036" lon="6.44883">
        <ele>576.1</ele>
        <time>2022-11-23T13:51:28.000Z</time>
      </trkpt>
      <trkpt lat="43.59041" lon="6.44879">
        <ele>576</ele>
        <time>2022-11-23T13:51:32.000Z</time>
      </trkpt>
      <trkpt lat="43.59044" lon="6.44873">
        <ele>576.5</ele>
        <time>2022-11-23T13:51:36.000Z</time>
      </trkpt>
      <trkpt lat="43.59045" lon="6.44867">
        <ele>576.7</ele>
        <time>2022-11-23T13:51:40.000Z</time>
      </trkpt>
      <trkpt lat="43.5905" lon="6.44868">
        <ele>576.9</ele>
        <time>2022-11-23T13:51:46.000Z</time>
      </trkpt>
      <trkpt lat="43.59048" lon="6.44862">
        <ele>576.8</ele>
        <time>2022-11-23T13:52:02.000Z</time>
      </trkpt>
      <trkpt lat="43.59049" lon="6.44855">
        <ele>576.3</ele>
        <time>2022-11-23T13:52:18.000Z</time>
      </trkpt>
      <trkpt lat="43.5905" lon="6.44848">
        <ele>575.4</ele>
        <time>2022-11-23T13:52:48.000Z</time>
      </trkpt>
      <trkpt lat="43.59054" lon="6.44844">
        <ele>575.5</ele>
        <time>2022-11-23T13:52:52.000Z</time>
      </trkpt>
      <trkpt lat="43.59057" lon="6.4484">
        <ele>576.2</ele>
        <time>2022-11-23T13:52:56.000Z</time>
      </trkpt>
      <trkpt lat="43.59057" lon="6.44833">
        <ele>577.4</ele>
        <time>2022-11-23T13:53:02.000Z</time>
      </trkpt>
      <trkpt lat="43.59059" lon="6.44826">
        <ele>575.4</ele>
        <time>2022-11-23T13:53:08.000Z</time>
      </trkpt>
      <trkpt lat="43.59062" lon="6.44819">
        <ele>575.9</ele>
        <time>2022-11-23T13:53:13.000Z</time>
      </trkpt>
      <trkpt lat="43.59065" lon="6.44814">
        <ele>579.1</ele>
        <time>2022-11-23T13:53:18.000Z</time>
      </trkpt>
      <trkpt lat="43.59066" lon="6.44807">
        <ele>576.4</ele>
        <time>2022-11-23T13:53:24.000Z</time>
      </trkpt>
      <trkpt lat="43.5907" lon="6.44802">
        <ele>579</ele>
        <time>2022-11-23T13:53:29.000Z</time>
      </trkpt>
      <trkpt lat="43.5907" lon="6.44794">
        <ele>579.8</ele>
        <time>2022-11-23T13:53:33.000Z</time>
      </trkpt>
      <trkpt lat="43.59071" lon="6.44788">
        <ele>580.1</ele>
        <time>2022-11-23T13:53:39.000Z</time>
      </trkpt>
      <trkpt lat="43.59073" lon="6.44782">
        <ele>582</ele>
        <time>2022-11-23T13:53:43.000Z</time>
      </trkpt>
      <trkpt lat="43.59076" lon="6.44775">
        <ele>582</ele>
        <time>2022-11-23T13:53:47.000Z</time>
      </trkpt>
      <trkpt lat="43.59077" lon="6.44769">
        <ele>581</ele>
        <time>2022-11-23T13:53:51.000Z</time>
      </trkpt>
      <trkpt lat="43.5908" lon="6.44764">
        <ele>581.7</ele>
        <time>2022-11-23T13:53:55.000Z</time>
      </trkpt>
      <trkpt lat="43.59083" lon="6.44758">
        <ele>582.8</ele>
        <time>2022-11-23T13:53:59.000Z</time>
      </trkpt>
      <trkpt lat="43.59086" lon="6.44752">
        <ele>583.5</ele>
        <time>2022-11-23T13:54:03.000Z</time>
      </trkpt>
      <trkpt lat="43.5909" lon="6.44748">
        <ele>583.3</ele>
        <time>2022-11-23T13:54:06.000Z</time>
      </trkpt>
      <trkpt lat="43.59091" lon="6.44742">
        <ele>582.6</ele>
        <time>2022-11-23T13:54:10.000Z</time>
      </trkpt>
      <trkpt lat="43.59091" lon="6.44735">
        <ele>585</ele>
        <time>2022-11-23T13:54:15.000Z</time>
      </trkpt>
      <trkpt lat="43.5909" lon="6.44729">
        <ele>584.7</ele>
        <time>2022-11-23T13:54:20.000Z</time>
      </trkpt>
      <trkpt lat="43.59094" lon="6.44724">
        <ele>586.9</ele>
        <time>2022-11-23T13:54:24.000Z</time>
      </trkpt>
      <trkpt lat="43.59098" lon="6.44718">
        <ele>587.1</ele>
        <time>2022-11-23T13:54:29.000Z</time>
      </trkpt>
      <trkpt lat="43.59101" lon="6.4471">
        <ele>589.9</ele>
        <time>2022-11-23T13:54:34.000Z</time>
      </trkpt>
      <trkpt lat="43.59102" lon="6.44703">
        <ele>590.4</ele>
        <time>2022-11-23T13:54:39.000Z</time>
      </trkpt>
      <trkpt lat="43.59101" lon="6.44696">
        <ele>589</ele>
        <time>2022-11-23T13:54:44.000Z</time>
      </trkpt>
      <trkpt lat="43.591" lon="6.44689">
        <ele>588.7</ele>
        <time>2022-11-23T13:54:50.000Z</time>
      </trkpt>
      <trkpt lat="43.591" lon="6.44682">
        <ele>591.4</ele>
        <time>2022-11-23T13:54:55.000Z</time>
      </trkpt>
      <trkpt lat="43.59103" lon="6.44676">
        <ele>590.7</ele>
        <time>2022-11-23T13:54:59.000Z</time>
      </trkpt>
      <trkpt lat="43.59103" lon="6.44668">
        <ele>591.7</ele>
        <time>2022-11-23T13:55:04.000Z</time>
      </trkpt>
      <trkpt lat="43.59103" lon="6.44662">
        <ele>591.5</ele>
        <time>2022-11-23T13:55:08.000Z</time>
      </trkpt>
      <trkpt lat="43.59103" lon="6.44655">
        <ele>592.7</ele>
        <time>2022-11-23T13:55:13.000Z</time>
      </trkpt>
      <trkpt lat="43.59104" lon="6.44648">
        <ele>592.3</ele>
        <time>2022-11-23T13:55:17.000Z</time>
      </trkpt>
      <trkpt lat="43.59104" lon="6.44641">
        <ele>591.8</ele>
        <time>2022-11-23T13:55:21.000Z</time>
      </trkpt>
      <trkpt lat="43.59102" lon="6.44634">
        <ele>592.6</ele>
        <time>2022-11-23T13:55:26.000Z</time>
      </trkpt>
      <trkpt lat="43.59103" lon="6.44627">
        <ele>592.7</ele>
        <time>2022-11-23T13:55:30.000Z</time>
      </trkpt>
      <trkpt lat="43.59105" lon="6.44621">
        <ele>591.7</ele>
        <time>2022-11-23T13:55:34.000Z</time>
      </trkpt>
      <trkpt lat="43.59108" lon="6.44615">
        <ele>592.5</ele>
        <time>2022-11-23T13:55:38.000Z</time>
      </trkpt>
      <trkpt lat="43.59109" lon="6.44609">
        <ele>593.2</ele>
        <time>2022-11-23T13:55:42.000Z</time>
      </trkpt>
      <trkpt lat="43.59111" lon="6.44602">
        <ele>592.4</ele>
        <time>2022-11-23T13:55:47.000Z</time>
      </trkpt>
      <trkpt lat="43.59114" lon="6.44596">
        <ele>593.9</ele>
        <time>2022-11-23T13:55:52.000Z</time>
      </trkpt>
      <trkpt lat="43.59118" lon="6.44592">
        <ele>592.9</ele>
        <time>2022-11-23T13:55:56.000Z</time>
      </trkpt>
      <trkpt lat="43.59122" lon="6.44587">
        <ele>593.8</ele>
        <time>2022-11-23T13:56:02.000Z</time>
      </trkpt>
      <trkpt lat="43.59122" lon="6.44579">
        <ele>594.3</ele>
        <time>2022-11-23T13:56:08.000Z</time>
      </trkpt>
      <trkpt lat="43.59125" lon="6.44574">
        <ele>594.9</ele>
        <time>2022-11-23T13:56:13.000Z</time>
      </trkpt>
      <trkpt lat="43.59125" lon="6.44568">
        <ele>594.7</ele>
        <time>2022-11-23T13:56:18.000Z</time>
      </trkpt>
      <trkpt lat="43.59128" lon="6.44562">
        <ele>595.3</ele>
        <time>2022-11-23T13:56:23.000Z</time>
      </trkpt>
      <trkpt lat="43.59131" lon="6.44557">
        <ele>594.9</ele>
        <time>2022-11-23T13:56:27.000Z</time>
      </trkpt>
      <trkpt lat="43.59134" lon="6.44551">
        <ele>595.6</ele>
        <time>2022-11-23T13:56:31.000Z</time>
      </trkpt>
      <trkpt lat="43.59137" lon="6.44547">
        <ele>596.8</ele>
        <time>2022-11-23T13:56:35.000Z</time>
      </trkpt>
      <trkpt lat="43.5914" lon="6.44541">
        <ele>597</ele>
        <time>2022-11-23T13:56:40.000Z</time>
      </trkpt>
      <trkpt lat="43.59144" lon="6.44537">
        <ele>597.7</ele>
        <time>2022-11-23T13:56:44.000Z</time>
      </trkpt>
      <trkpt lat="43.59147" lon="6.44532">
        <ele>597.9</ele>
        <time>2022-11-23T13:56:48.000Z</time>
      </trkpt>
      <trkpt lat="43.59151" lon="6.44528">
        <ele>597.9</ele>
        <time>2022-11-23T13:56:52.000Z</time>
      </trkpt>
      <trkpt lat="43.59154" lon="6.44524">
        <ele>597.5</ele>
        <time>2022-11-23T13:56:56.000Z</time>
      </trkpt>
      <trkpt lat="43.59156" lon="6.44517">
        <ele>597.6</ele>
        <time>2022-11-23T13:57:00.000Z</time>
      </trkpt>
      <trkpt lat="43.59155" lon="6.4451">
        <ele>597.6</ele>
        <time>2022-11-23T13:57:04.000Z</time>
      </trkpt>
      <trkpt lat="43.59155" lon="6.44503">
        <ele>597.8</ele>
        <time>2022-11-23T13:57:08.000Z</time>
      </trkpt>
      <trkpt lat="43.59156" lon="6.44496">
        <ele>598.7</ele>
        <time>2022-11-23T13:57:12.000Z</time>
      </trkpt>
      <trkpt lat="43.59156" lon="6.4449">
        <ele>597.6</ele>
        <time>2022-11-23T13:57:16.000Z</time>
      </trkpt>
      <trkpt lat="43.59157" lon="6.44483">
        <ele>598.8</ele>
        <time>2022-11-23T13:57:20.000Z</time>
      </trkpt>
      <trkpt lat="43.59156" lon="6.44477">
        <ele>600.1</ele>
        <time>2022-11-23T13:57:24.000Z</time>
      </trkpt>
      <trkpt lat="43.59156" lon="6.4447">
        <ele>599.7</ele>
        <time>2022-11-23T13:57:28.000Z</time>
      </trkpt>
      <trkpt lat="43.59155" lon="6.44463">
        <ele>600</ele>
        <time>2022-11-23T13:57:32.000Z</time>
      </trkpt>
      <trkpt lat="43.59153" lon="6.44456">
        <ele>600.2</ele>
        <time>2022-11-23T13:57:36.000Z</time>
      </trkpt>
      <trkpt lat="43.59153" lon="6.44449">
        <ele>600.2</ele>
        <time>2022-11-23T13:57:40.000Z</time>
      </trkpt>
      <trkpt lat="43.59152" lon="6.44443">
        <ele>600.1</ele>
        <time>2022-11-23T13:57:44.000Z</time>
      </trkpt>
      <trkpt lat="43.59148" lon="6.44436">
        <ele>600.1</ele>
        <time>2022-11-23T13:57:48.000Z</time>
      </trkpt>
      <trkpt lat="43.59144" lon="6.4443">
        <ele>599.9</ele>
        <time>2022-11-23T13:57:52.000Z</time>
      </trkpt>
      <trkpt lat="43.5914" lon="6.44425">
        <ele>600.1</ele>
        <time>2022-11-23T13:57:56.000Z</time>
      </trkpt>
      <trkpt lat="43.59138" lon="6.44419">
        <ele>599.5</ele>
        <time>2022-11-23T13:58:00.000Z</time>
      </trkpt>
      <trkpt lat="43.59135" lon="6.44412">
        <ele>599.6</ele>
        <time>2022-11-23T13:58:04.000Z</time>
      </trkpt>
      <trkpt lat="43.59133" lon="6.44406">
        <ele>599.4</ele>
        <time>2022-11-23T13:58:08.000Z</time>
      </trkpt>
      <trkpt lat="43.59129" lon="6.444">
        <ele>599.8</ele>
        <time>2022-11-23T13:58:13.000Z</time>
      </trkpt>
      <trkpt lat="43.59125" lon="6.44396">
        <ele>599.8</ele>
        <time>2022-11-23T13:58:16.000Z</time>
      </trkpt>
      <trkpt lat="43.59123" lon="6.44389">
        <ele>599.6</ele>
        <time>2022-11-23T13:58:20.000Z</time>
      </trkpt>
      <trkpt lat="43.59121" lon="6.44383">
        <ele>600.1</ele>
        <time>2022-11-23T13:58:24.000Z</time>
      </trkpt>
      <trkpt lat="43.5912" lon="6.44377">
        <ele>601.7</ele>
        <time>2022-11-23T13:58:29.000Z</time>
      </trkpt>
      <trkpt lat="43.59118" lon="6.44369">
        <ele>600.5</ele>
        <time>2022-11-23T13:58:33.000Z</time>
      </trkpt>
      <trkpt lat="43.59117" lon="6.44363">
        <ele>601.1</ele>
        <time>2022-11-23T13:58:39.000Z</time>
      </trkpt>
      <trkpt lat="43.59112" lon="6.44361">
        <ele>601.6</ele>
        <time>2022-11-23T13:58:50.000Z</time>
      </trkpt>
      <trkpt lat="43.59108" lon="6.44364">
        <ele>602.4</ele>
        <time>2022-11-23T13:59:22.000Z</time>
      </trkpt>
      <trkpt lat="43.59107" lon="6.44358">
        <ele>602.7</ele>
        <time>2022-11-23T13:59:53.000Z</time>
      </trkpt>
      <trkpt lat="43.59108" lon="6.44352">
        <ele>602.7</ele>
        <time>2022-11-23T13:59:58.000Z</time>
      </trkpt>
      <trkpt lat="43.59108" lon="6.44344">
        <ele>602.2</ele>
        <time>2022-11-23T14:00:04.000Z</time>
      </trkpt>
      <trkpt lat="43.59107" lon="6.44337">
        <ele>602.5</ele>
        <time>2022-11-23T14:00:10.000Z</time>
      </trkpt>
      <trkpt lat="43.59107" lon="6.4433">
        <ele>603.6</ele>
        <time>2022-11-23T14:00:15.000Z</time>
      </trkpt>
      <trkpt lat="43.59106" lon="6.44324">
        <ele>603.3</ele>
        <time>2022-11-23T14:00:20.000Z</time>
      </trkpt>
      <trkpt lat="43.59107" lon="6.44317">
        <ele>602.9</ele>
        <time>2022-11-23T14:00:25.000Z</time>
      </trkpt>
      <trkpt lat="43.59107" lon="6.4431">
        <ele>603.7</ele>
        <time>2022-11-23T14:00:30.000Z</time>
      </trkpt>
      <trkpt lat="43.59105" lon="6.44303">
        <ele>604.9</ele>
        <time>2022-11-23T14:00:35.000Z</time>
      </trkpt>
      <trkpt lat="43.59106" lon="6.44296">
        <ele>604.6</ele>
        <time>2022-11-23T14:00:40.000Z</time>
      </trkpt>
      <trkpt lat="43.59102" lon="6.4429">
        <ele>606.5</ele>
        <time>2022-11-23T14:00:44.000Z</time>
      </trkpt>
      <trkpt lat="43.59102" lon="6.44284">
        <ele>605.3</ele>
        <time>2022-11-23T14:00:48.000Z</time>
      </trkpt>
      <trkpt lat="43.59099" lon="6.44277">
        <ele>607.5</ele>
        <time>2022-11-23T14:00:53.000Z</time>
      </trkpt>
      <trkpt lat="43.59096" lon="6.44271">
        <ele>608.4</ele>
        <time>2022-11-23T14:00:57.000Z</time>
      </trkpt>
      <trkpt lat="43.59095" lon="6.44265">
        <ele>608.1</ele>
        <time>2022-11-23T14:01:01.000Z</time>
      </trkpt>
      <trkpt lat="43.59093" lon="6.44258">
        <ele>610.3</ele>
        <time>2022-11-23T14:01:06.000Z</time>
      </trkpt>
      <trkpt lat="43.59091" lon="6.44253">
        <ele>610</ele>
        <time>2022-11-23T14:01:10.000Z</time>
      </trkpt>
      <trkpt lat="43.59089" lon="6.44246">
        <ele>611.1</ele>
        <time>2022-11-23T14:01:16.000Z</time>
      </trkpt>
      <trkpt lat="43.59088" lon="6.4424">
        <ele>611.3</ele>
        <time>2022-11-23T14:01:20.000Z</time>
      </trkpt>
      <trkpt lat="43.59087" lon="6.44234">
        <ele>611</ele>
        <time>2022-11-23T14:01:24.000Z</time>
      </trkpt>
      <trkpt lat="43.59085" lon="6.44227">
        <ele>611.7</ele>
        <time>2022-11-23T14:01:29.000Z</time>
      </trkpt>
      <trkpt lat="43.59085" lon="6.4422">
        <ele>611.9</ele>
        <time>2022-11-23T14:01:34.000Z</time>
      </trkpt>
      <trkpt lat="43.59084" lon="6.44213">
        <ele>612</ele>
        <time>2022-11-23T14:01:38.000Z</time>
      </trkpt>
      <trkpt lat="43.59081" lon="6.44208">
        <ele>612.6</ele>
        <time>2022-11-23T14:01:42.000Z</time>
      </trkpt>
      <trkpt lat="43.59078" lon="6.44202">
        <ele>612.3</ele>
        <time>2022-11-23T14:01:46.000Z</time>
      </trkpt>
      <trkpt lat="43.59074" lon="6.44197">
        <ele>613.4</ele>
        <time>2022-11-23T14:01:49.000Z</time>
      </trkpt>
      <trkpt lat="43.59069" lon="6.44195">
        <ele>612.4</ele>
        <time>2022-11-23T14:01:53.000Z</time>
      </trkpt>
      <trkpt lat="43.59064" lon="6.44193">
        <ele>613.4</ele>
        <time>2022-11-23T14:01:57.000Z</time>
      </trkpt>
      <trkpt lat="43.59058" lon="6.44193">
        <ele>614.4</ele>
        <time>2022-11-23T14:02:00.000Z</time>
      </trkpt>
      <trkpt lat="43.59053" lon="6.44194">
        <ele>614.3</ele>
        <time>2022-11-23T14:02:02.000Z</time>
      </trkpt>
      <trkpt lat="43.59048" lon="6.44193">
        <ele>615.1</ele>
        <time>2022-11-23T14:02:05.000Z</time>
      </trkpt>
      <trkpt lat="43.59045" lon="6.4419">
        <ele>615.8</ele>
        <time>2022-11-23T14:02:09.000Z</time>
      </trkpt>
      <trkpt lat="43.59049" lon="6.44187">
        <ele>615.6</ele>
        <time>2022-11-23T14:02:18.000Z</time>
      </trkpt>
      <trkpt lat="43.59044" lon="6.44187">
        <ele>616.2</ele>
        <time>2022-11-23T14:02:24.000Z</time>
      </trkpt>
      <trkpt lat="43.59039" lon="6.44185">
        <ele>615.7</ele>
        <time>2022-11-23T14:02:28.000Z</time>
      </trkpt>
      <trkpt lat="43.59035" lon="6.44182">
        <ele>615.2</ele>
        <time>2022-11-23T14:02:31.000Z</time>
      </trkpt>
      <trkpt lat="43.5903" lon="6.44181">
        <ele>615.1</ele>
        <time>2022-11-23T14:02:34.000Z</time>
      </trkpt>
      <trkpt lat="43.59025" lon="6.44175">
        <ele>614.9</ele>
        <time>2022-11-23T14:02:37.000Z</time>
      </trkpt>
      <trkpt lat="43.5902" lon="6.44172">
        <ele>614.8</ele>
        <time>2022-11-23T14:02:40.000Z</time>
      </trkpt>
      <trkpt lat="43.59015" lon="6.4417">
        <ele>614</ele>
        <time>2022-11-23T14:02:44.000Z</time>
      </trkpt>
      <trkpt lat="43.5901" lon="6.44171">
        <ele>613.9</ele>
        <time>2022-11-23T14:02:50.000Z</time>
      </trkpt>
      <trkpt lat="43.59006" lon="6.44169">
        <ele>614.5</ele>
        <time>2022-11-23T14:02:54.000Z</time>
      </trkpt>
      <trkpt lat="43.59002" lon="6.44165">
        <ele>614.3</ele>
        <time>2022-11-23T14:02:58.000Z</time>
      </trkpt>
      <trkpt lat="43.58997" lon="6.44163">
        <ele>614.2</ele>
        <time>2022-11-23T14:03:02.000Z</time>
      </trkpt>
      <trkpt lat="43.58992" lon="6.4416">
        <ele>614.2</ele>
        <time>2022-11-23T14:03:05.000Z</time>
      </trkpt>
      <trkpt lat="43.58987" lon="6.44156">
        <ele>614.1</ele>
        <time>2022-11-23T14:03:09.000Z</time>
      </trkpt>
      <trkpt lat="43.58982" lon="6.44153">
        <ele>614.1</ele>
        <time>2022-11-23T14:03:12.000Z</time>
      </trkpt>
      <trkpt lat="43.58976" lon="6.44148">
        <ele>614.2</ele>
        <time>2022-11-23T14:03:16.000Z</time>
      </trkpt>
      <trkpt lat="43.58972" lon="6.44145">
        <ele>614.3</ele>
        <time>2022-11-23T14:03:20.000Z</time>
      </trkpt>
      <trkpt lat="43.58968" lon="6.44142">
        <ele>614.2</ele>
        <time>2022-11-23T14:03:24.000Z</time>
      </trkpt>
      <trkpt lat="43.58964" lon="6.44139">
        <ele>613.9</ele>
        <time>2022-11-23T14:03:28.000Z</time>
      </trkpt>
      <trkpt lat="43.58959" lon="6.44136">
        <ele>613.5</ele>
        <time>2022-11-23T14:03:32.000Z</time>
      </trkpt>
      <trkpt lat="43.58954" lon="6.44135">
        <ele>613.4</ele>
        <time>2022-11-23T14:03:36.000Z</time>
      </trkpt>
      <trkpt lat="43.58948" lon="6.44135">
        <ele>612.9</ele>
        <time>2022-11-23T14:03:40.000Z</time>
      </trkpt>
      <trkpt lat="43.58943" lon="6.44135">
        <ele>611.8</ele>
        <time>2022-11-23T14:03:44.000Z</time>
      </trkpt>
      <trkpt lat="43.58936" lon="6.44136">
        <ele>611.1</ele>
        <time>2022-11-23T14:03:50.000Z</time>
      </trkpt>
      <trkpt lat="43.5893" lon="6.44135">
        <ele>612.2</ele>
        <time>2022-11-23T14:03:55.000Z</time>
      </trkpt>
      <trkpt lat="43.58925" lon="6.44134">
        <ele>611.8</ele>
        <time>2022-11-23T14:03:59.000Z</time>
      </trkpt>
      <trkpt lat="43.5892" lon="6.44132">
        <ele>611.7</ele>
        <time>2022-11-23T14:04:04.000Z</time>
      </trkpt>
      <trkpt lat="43.58915" lon="6.44134">
        <ele>611.6</ele>
        <time>2022-11-23T14:04:08.000Z</time>
      </trkpt>
      <trkpt lat="43.5891" lon="6.4413">
        <ele>610.7</ele>
        <time>2022-11-23T14:04:12.000Z</time>
      </trkpt>
      <trkpt lat="43.58905" lon="6.44128">
        <ele>609.9</ele>
        <time>2022-11-23T14:04:16.000Z</time>
      </trkpt>
      <trkpt lat="43.589" lon="6.44124">
        <ele>609.2</ele>
        <time>2022-11-23T14:04:20.000Z</time>
      </trkpt>
      <trkpt lat="43.58895" lon="6.44122">
        <ele>608.8</ele>
        <time>2022-11-23T14:04:24.000Z</time>
      </trkpt>
      <trkpt lat="43.5889" lon="6.44122">
        <ele>608.9</ele>
        <time>2022-11-23T14:04:27.000Z</time>
      </trkpt>
      <trkpt lat="43.58885" lon="6.44121">
        <ele>609.1</ele>
        <time>2022-11-23T14:04:31.000Z</time>
      </trkpt>
      <trkpt lat="43.5888" lon="6.44119">
        <ele>608.5</ele>
        <time>2022-11-23T14:04:36.000Z</time>
      </trkpt>
      <trkpt lat="43.58877" lon="6.44115">
        <ele>607.4</ele>
        <time>2022-11-23T14:04:40.000Z</time>
      </trkpt>
      <trkpt lat="43.58873" lon="6.4411">
        <ele>606.5</ele>
        <time>2022-11-23T14:04:44.000Z</time>
      </trkpt>
      <trkpt lat="43.5887" lon="6.44104">
        <ele>605.9</ele>
        <time>2022-11-23T14:04:48.000Z</time>
      </trkpt>
      <trkpt lat="43.58867" lon="6.44099">
        <ele>605.6</ele>
        <time>2022-11-23T14:04:51.000Z</time>
      </trkpt>
      <trkpt lat="43.58863" lon="6.44095">
        <ele>605</ele>
        <time>2022-11-23T14:04:55.000Z</time>
      </trkpt>
      <trkpt lat="43.58861" lon="6.44088">
        <ele>604.2</ele>
        <time>2022-11-23T14:04:59.000Z</time>
      </trkpt>
      <trkpt lat="43.58857" lon="6.44084">
        <ele>604.1</ele>
        <time>2022-11-23T14:05:04.000Z</time>
      </trkpt>
      <trkpt lat="43.58853" lon="6.44081">
        <ele>603.6</ele>
        <time>2022-11-23T14:05:09.000Z</time>
      </trkpt>
      <trkpt lat="43.5885" lon="6.44076">
        <ele>603.7</ele>
        <time>2022-11-23T14:05:14.000Z</time>
      </trkpt>
      <trkpt lat="43.58847" lon="6.44071">
        <ele>602.6</ele>
        <time>2022-11-23T14:05:18.000Z</time>
      </trkpt>
      <trkpt lat="43.58843" lon="6.44066">
        <ele>601.8</ele>
        <time>2022-11-23T14:05:22.000Z</time>
      </trkpt>
      <trkpt lat="43.58838" lon="6.44063">
        <ele>601.6</ele>
        <time>2022-11-23T14:05:26.000Z</time>
      </trkpt>
      <trkpt lat="43.58833" lon="6.44061">
        <ele>601.6</ele>
        <time>2022-11-23T14:05:30.000Z</time>
      </trkpt>
      <trkpt lat="43.58828" lon="6.44057">
        <ele>601.1</ele>
        <time>2022-11-23T14:05:35.000Z</time>
      </trkpt>
      <trkpt lat="43.58825" lon="6.44051">
        <ele>600.4</ele>
        <time>2022-11-23T14:05:39.000Z</time>
      </trkpt>
      <trkpt lat="43.58821" lon="6.44047">
        <ele>601.2</ele>
        <time>2022-11-23T14:05:42.000Z</time>
      </trkpt>
      <trkpt lat="43.58818" lon="6.44043">
        <ele>601</ele>
        <time>2022-11-23T14:05:46.000Z</time>
      </trkpt>
      <trkpt lat="43.5882" lon="6.44036">
        <ele>600.4</ele>
        <time>2022-11-23T14:05:51.000Z</time>
      </trkpt>
      <trkpt lat="43.58823" lon="6.44029">
        <ele>599.3</ele>
        <time>2022-11-23T14:05:55.000Z</time>
      </trkpt>
      <trkpt lat="43.58825" lon="6.44023">
        <ele>598.6</ele>
        <time>2022-11-23T14:05:59.000Z</time>
      </trkpt>
      <trkpt lat="43.58826" lon="6.44015">
        <ele>598.4</ele>
        <time>2022-11-23T14:06:03.000Z</time>
      </trkpt>
      <trkpt lat="43.58824" lon="6.44008">
        <ele>597.7</ele>
        <time>2022-11-23T14:06:07.000Z</time>
      </trkpt>
      <trkpt lat="43.58823" lon="6.44001">
        <ele>597.7</ele>
        <time>2022-11-23T14:06:12.000Z</time>
      </trkpt>
      <trkpt lat="43.58822" lon="6.43995">
        <ele>598</ele>
        <time>2022-11-23T14:06:16.000Z</time>
      </trkpt>
      <trkpt lat="43.5882" lon="6.43987">
        <ele>596.8</ele>
        <time>2022-11-23T14:06:21.000Z</time>
      </trkpt>
      <trkpt lat="43.5882" lon="6.4398">
        <ele>595.6</ele>
        <time>2022-11-23T14:06:25.000Z</time>
      </trkpt>
      <trkpt lat="43.58818" lon="6.43973">
        <ele>596.6</ele>
        <time>2022-11-23T14:06:29.000Z</time>
      </trkpt>
      <trkpt lat="43.58817" lon="6.43966">
        <ele>596.1</ele>
        <time>2022-11-23T14:06:33.000Z</time>
      </trkpt>
      <trkpt lat="43.58816" lon="6.43959">
        <ele>595.3</ele>
        <time>2022-11-23T14:06:37.000Z</time>
      </trkpt>
      <trkpt lat="43.58816" lon="6.43953">
        <ele>594.9</ele>
        <time>2022-11-23T14:06:41.000Z</time>
      </trkpt>
      <trkpt lat="43.58816" lon="6.43946">
        <ele>595</ele>
        <time>2022-11-23T14:06:45.000Z</time>
      </trkpt>
      <trkpt lat="43.58816" lon="6.43939">
        <ele>594.9</ele>
        <time>2022-11-23T14:06:49.000Z</time>
      </trkpt>
      <trkpt lat="43.58817" lon="6.43932">
        <ele>595.4</ele>
        <time>2022-11-23T14:06:53.000Z</time>
      </trkpt>
      <trkpt lat="43.58818" lon="6.43925">
        <ele>595.4</ele>
        <time>2022-11-23T14:06:57.000Z</time>
      </trkpt>
      <trkpt lat="43.58819" lon="6.43918">
        <ele>595.4</ele>
        <time>2022-11-23T14:07:01.000Z</time>
      </trkpt>
      <trkpt lat="43.58818" lon="6.43911">
        <ele>594.9</ele>
        <time>2022-11-23T14:07:05.000Z</time>
      </trkpt>
      <trkpt lat="43.58817" lon="6.43904">
        <ele>595.2</ele>
        <time>2022-11-23T14:07:09.000Z</time>
      </trkpt>
      <trkpt lat="43.58817" lon="6.43898">
        <ele>595</ele>
        <time>2022-11-23T14:07:13.000Z</time>
      </trkpt>
      <trkpt lat="43.58818" lon="6.43892">
        <ele>595.6</ele>
        <time>2022-11-23T14:07:17.000Z</time>
      </trkpt>
      <trkpt lat="43.58816" lon="6.43884">
        <ele>595.4</ele>
        <time>2022-11-23T14:07:21.000Z</time>
      </trkpt>
      <trkpt lat="43.58813" lon="6.43878">
        <ele>594.9</ele>
        <time>2022-11-23T14:07:25.000Z</time>
      </trkpt>
      <trkpt lat="43.5881" lon="6.43872">
        <ele>594.5</ele>
        <time>2022-11-23T14:07:30.000Z</time>
      </trkpt>
      <trkpt lat="43.58807" lon="6.43867">
        <ele>593.9</ele>
        <time>2022-11-23T14:07:33.000Z</time>
      </trkpt>
      <trkpt lat="43.58806" lon="6.4386">
        <ele>594</ele>
        <time>2022-11-23T14:07:38.000Z</time>
      </trkpt>
      <trkpt lat="43.58804" lon="6.43853">
        <ele>593.9</ele>
        <time>2022-11-23T14:07:44.000Z</time>
      </trkpt>
      <trkpt lat="43.58799" lon="6.43853">
        <ele>593.5</ele>
        <time>2022-11-23T14:07:51.000Z</time>
      </trkpt>
      <trkpt lat="43.58794" lon="6.43854">
        <ele>594.6</ele>
        <time>2022-11-23T14:07:59.000Z</time>
      </trkpt>
      <trkpt lat="43.58796" lon="6.43848">
        <ele>593</ele>
        <time>2022-11-23T14:09:36.000Z</time>
      </trkpt>
      <trkpt lat="43.58795" lon="6.43841">
        <ele>592.3</ele>
        <time>2022-11-23T14:09:40.000Z</time>
      </trkpt>
      <trkpt lat="43.58793" lon="6.43835">
        <ele>593.2</ele>
        <time>2022-11-23T14:09:45.000Z</time>
      </trkpt>
      <trkpt lat="43.58792" lon="6.43827">
        <ele>593.4</ele>
        <time>2022-11-23T14:09:50.000Z</time>
      </trkpt>
      <trkpt lat="43.58792" lon="6.4382">
        <ele>594.1</ele>
        <time>2022-11-23T14:09:55.000Z</time>
      </trkpt>
      <trkpt lat="43.58791" lon="6.43813">
        <ele>594.9</ele>
        <time>2022-11-23T14:09:59.000Z</time>
      </trkpt>
      <trkpt lat="43.58789" lon="6.43807">
        <ele>595</ele>
        <time>2022-11-23T14:10:03.000Z</time>
      </trkpt>
      <trkpt lat="43.58787" lon="6.43801">
        <ele>594.4</ele>
        <time>2022-11-23T14:10:07.000Z</time>
      </trkpt>
      <trkpt lat="43.58787" lon="6.43794">
        <ele>594.6</ele>
        <time>2022-11-23T14:10:11.000Z</time>
      </trkpt>
      <trkpt lat="43.58788" lon="6.43786">
        <ele>594.8</ele>
        <time>2022-11-23T14:10:16.000Z</time>
      </trkpt>
      <trkpt lat="43.58788" lon="6.43779">
        <ele>595.4</ele>
        <time>2022-11-23T14:10:20.000Z</time>
      </trkpt>
      <trkpt lat="43.58788" lon="6.43772">
        <ele>594.8</ele>
        <time>2022-11-23T14:10:24.000Z</time>
      </trkpt>
      <trkpt lat="43.5879" lon="6.43766">
        <ele>594.8</ele>
        <time>2022-11-23T14:10:28.000Z</time>
      </trkpt>
      <trkpt lat="43.58792" lon="6.4376">
        <ele>594.6</ele>
        <time>2022-11-23T14:10:32.000Z</time>
      </trkpt>
      <trkpt lat="43.58792" lon="6.43753">
        <ele>594.9</ele>
        <time>2022-11-23T14:10:36.000Z</time>
      </trkpt>
      <trkpt lat="43.58792" lon="6.43745">
        <ele>595.4</ele>
        <time>2022-11-23T14:10:41.000Z</time>
      </trkpt>
      <trkpt lat="43.58794" lon="6.43738">
        <ele>594.7</ele>
        <time>2022-11-23T14:10:45.000Z</time>
      </trkpt>
      <trkpt lat="43.58795" lon="6.43732">
        <ele>594.6</ele>
        <time>2022-11-23T14:10:49.000Z</time>
      </trkpt>
      <trkpt lat="43.58797" lon="6.43726">
        <ele>594.9</ele>
        <time>2022-11-23T14:10:53.000Z</time>
      </trkpt>
      <trkpt lat="43.58798" lon="6.43719">
        <ele>595.1</ele>
        <time>2022-11-23T14:10:57.000Z</time>
      </trkpt>
      <trkpt lat="43.58798" lon="6.43712">
        <ele>594.5</ele>
        <time>2022-11-23T14:11:01.000Z</time>
      </trkpt>
      <trkpt lat="43.58799" lon="6.43705">
        <ele>594.4</ele>
        <time>2022-11-23T14:11:05.000Z</time>
      </trkpt>
      <trkpt lat="43.588" lon="6.43698">
        <ele>594.1</ele>
        <time>2022-11-23T14:11:09.000Z</time>
      </trkpt>
      <trkpt lat="43.58801" lon="6.43691">
        <ele>593.5</ele>
        <time>2022-11-23T14:11:13.000Z</time>
      </trkpt>
      <trkpt lat="43.58802" lon="6.43685">
        <ele>593.5</ele>
        <time>2022-11-23T14:11:17.000Z</time>
      </trkpt>
      <trkpt lat="43.58803" lon="6.43677">
        <ele>593.7</ele>
        <time>2022-11-23T14:11:21.000Z</time>
      </trkpt>
      <trkpt lat="43.58803" lon="6.4367">
        <ele>593.4</ele>
        <time>2022-11-23T14:11:27.000Z</time>
      </trkpt>
      <trkpt lat="43.58804" lon="6.43664">
        <ele>593.2</ele>
        <time>2022-11-23T14:11:31.000Z</time>
      </trkpt>
      <trkpt lat="43.58804" lon="6.43657">
        <ele>593</ele>
        <time>2022-11-23T14:11:35.000Z</time>
      </trkpt>
      <trkpt lat="43.58804" lon="6.43649">
        <ele>593.1</ele>
        <time>2022-11-23T14:11:39.000Z</time>
      </trkpt>
      <trkpt lat="43.58803" lon="6.43643">
        <ele>593.1</ele>
        <time>2022-11-23T14:11:43.000Z</time>
      </trkpt>
      <trkpt lat="43.58802" lon="6.43637">
        <ele>593.3</ele>
        <time>2022-11-23T14:11:47.000Z</time>
      </trkpt>
      <trkpt lat="43.58801" lon="6.4363">
        <ele>593.1</ele>
        <time>2022-11-23T14:11:51.000Z</time>
      </trkpt>
      <trkpt lat="43.58799" lon="6.43622">
        <ele>592.2</ele>
        <time>2022-11-23T14:11:54.000Z</time>
      </trkpt>
      <trkpt lat="43.58797" lon="6.43614">
        <ele>592.1</ele>
        <time>2022-11-23T14:11:58.000Z</time>
      </trkpt>
      <trkpt lat="43.58796" lon="6.43607">
        <ele>592.6</ele>
        <time>2022-11-23T14:12:03.000Z</time>
      </trkpt>
      <trkpt lat="43.58794" lon="6.43601">
        <ele>592.8</ele>
        <time>2022-11-23T14:12:07.000Z</time>
      </trkpt>
      <trkpt lat="43.58792" lon="6.43595">
        <ele>592.7</ele>
        <time>2022-11-23T14:12:10.000Z</time>
      </trkpt>
      <trkpt lat="43.5879" lon="6.43587">
        <ele>591.9</ele>
        <time>2022-11-23T14:12:14.000Z</time>
      </trkpt>
      <trkpt lat="43.58788" lon="6.4358">
        <ele>591.6</ele>
        <time>2022-11-23T14:12:18.000Z</time>
      </trkpt>
      <trkpt lat="43.58786" lon="6.43572">
        <ele>591.3</ele>
        <time>2022-11-23T14:12:22.000Z</time>
      </trkpt>
      <trkpt lat="43.58784" lon="6.43564">
        <ele>591.2</ele>
        <time>2022-11-23T14:12:26.000Z</time>
      </trkpt>
      <trkpt lat="43.58782" lon="6.43558">
        <ele>590.5</ele>
        <time>2022-11-23T14:12:30.000Z</time>
      </trkpt>
      <trkpt lat="43.5878" lon="6.43551">
        <ele>591.1</ele>
        <time>2022-11-23T14:12:34.000Z</time>
      </trkpt>
      <trkpt lat="43.58778" lon="6.43545">
        <ele>591.2</ele>
        <time>2022-11-23T14:12:37.000Z</time>
      </trkpt>
      <trkpt lat="43.58777" lon="6.43538">
        <ele>591.4</ele>
        <time>2022-11-23T14:12:41.000Z</time>
      </trkpt>
      <trkpt lat="43.58776" lon="6.43531">
        <ele>591.3</ele>
        <time>2022-11-23T14:12:45.000Z</time>
      </trkpt>
      <trkpt lat="43.58774" lon="6.43525">
        <ele>591.2</ele>
        <time>2022-11-23T14:12:49.000Z</time>
      </trkpt>
      <trkpt lat="43.58769" lon="6.43518">
        <ele>590.8</ele>
        <time>2022-11-23T14:12:53.000Z</time>
      </trkpt>
      <trkpt lat="43.58767" lon="6.43511">
        <ele>590.5</ele>
        <time>2022-11-23T14:12:57.000Z</time>
      </trkpt>
      <trkpt lat="43.58764" lon="6.43505">
        <ele>589.9</ele>
        <time>2022-11-23T14:13:00.000Z</time>
      </trkpt>
      <trkpt lat="43.58762" lon="6.43497">
        <ele>589.4</ele>
        <time>2022-11-23T14:13:04.000Z</time>
      </trkpt>
      <trkpt lat="43.58759" lon="6.43492">
        <ele>589.4</ele>
        <time>2022-11-23T14:13:08.000Z</time>
      </trkpt>
      <trkpt lat="43.58757" lon="6.43486">
        <ele>589.1</ele>
        <time>2022-11-23T14:13:12.000Z</time>
      </trkpt>
      <trkpt lat="43.58754" lon="6.43481">
        <ele>587.8</ele>
        <time>2022-11-23T14:13:17.000Z</time>
      </trkpt>
      <trkpt lat="43.58751" lon="6.43474">
        <ele>588.6</ele>
        <time>2022-11-23T14:13:22.000Z</time>
      </trkpt>
      <trkpt lat="43.58748" lon="6.43466">
        <ele>589.6</ele>
        <time>2022-11-23T14:13:26.000Z</time>
      </trkpt>
      <trkpt lat="43.58747" lon="6.43459">
        <ele>589.6</ele>
        <time>2022-11-23T14:13:30.000Z</time>
      </trkpt>
      <trkpt lat="43.58745" lon="6.43452">
        <ele>588.9</ele>
        <time>2022-11-23T14:13:35.000Z</time>
      </trkpt>
      <trkpt lat="43.58744" lon="6.43445">
        <ele>588.7</ele>
        <time>2022-11-23T14:13:39.000Z</time>
      </trkpt>
      <trkpt lat="43.58743" lon="6.43439">
        <ele>588.1</ele>
        <time>2022-11-23T14:13:43.000Z</time>
      </trkpt>
      <trkpt lat="43.58742" lon="6.43433">
        <ele>588.1</ele>
        <time>2022-11-23T14:13:47.000Z</time>
      </trkpt>
      <trkpt lat="43.5874" lon="6.43427">
        <ele>588.9</ele>
        <time>2022-11-23T14:13:51.000Z</time>
      </trkpt>
      <trkpt lat="43.58737" lon="6.4342">
        <ele>590.1</ele>
        <time>2022-11-23T14:13:55.000Z</time>
      </trkpt>
      <trkpt lat="43.58734" lon="6.43415">
        <ele>589</ele>
        <time>2022-11-23T14:13:59.000Z</time>
      </trkpt>
      <trkpt lat="43.58731" lon="6.43409">
        <ele>588.3</ele>
        <time>2022-11-23T14:14:03.000Z</time>
      </trkpt>
      <trkpt lat="43.58729" lon="6.43403">
        <ele>587.6</ele>
        <time>2022-11-23T14:14:06.000Z</time>
      </trkpt>
      <trkpt lat="43.58726" lon="6.43397">
        <ele>587</ele>
        <time>2022-11-23T14:14:09.000Z</time>
      </trkpt>
      <trkpt lat="43.58723" lon="6.43391">
        <ele>586.6</ele>
        <time>2022-11-23T14:14:13.000Z</time>
      </trkpt>
      <trkpt lat="43.5872" lon="6.43385">
        <ele>586.2</ele>
        <time>2022-11-23T14:14:16.000Z</time>
      </trkpt>
      <trkpt lat="43.58716" lon="6.43381">
        <ele>585.8</ele>
        <time>2022-11-23T14:14:19.000Z</time>
      </trkpt>
      <trkpt lat="43.58713" lon="6.43376">
        <ele>585.6</ele>
        <time>2022-11-23T14:14:22.000Z</time>
      </trkpt>
      <trkpt lat="43.5871" lon="6.43369">
        <ele>585.7</ele>
        <time>2022-11-23T14:14:25.000Z</time>
      </trkpt>
      <trkpt lat="43.58707" lon="6.43363">
        <ele>586</ele>
        <time>2022-11-23T14:14:28.000Z</time>
      </trkpt>
      <trkpt lat="43.58704" lon="6.43356">
        <ele>585.5</ele>
        <time>2022-11-23T14:14:33.000Z</time>
      </trkpt>
      <trkpt lat="43.58701" lon="6.4335">
        <ele>586</ele>
        <time>2022-11-23T14:14:37.000Z</time>
      </trkpt>
      <trkpt lat="43.58697" lon="6.43344">
        <ele>585.8</ele>
        <time>2022-11-23T14:14:40.000Z</time>
      </trkpt>
      <trkpt lat="43.58693" lon="6.4334">
        <ele>586.2</ele>
        <time>2022-11-23T14:14:43.000Z</time>
      </trkpt>
      <trkpt lat="43.58689" lon="6.43336">
        <ele>586.4</ele>
        <time>2022-11-23T14:14:48.000Z</time>
      </trkpt>
      <trkpt lat="43.58684" lon="6.43334">
        <ele>586</ele>
        <time>2022-11-23T14:14:50.000Z</time>
      </trkpt>
      <trkpt lat="43.58679" lon="6.43329">
        <ele>585</ele>
        <time>2022-11-23T14:14:56.000Z</time>
      </trkpt>
      <trkpt lat="43.58677" lon="6.43322">
        <ele>585.6</ele>
        <time>2022-11-23T14:15:03.000Z</time>
      </trkpt>
      <trkpt lat="43.58673" lon="6.43319">
        <ele>585.3</ele>
        <time>2022-11-23T14:15:08.000Z</time>
      </trkpt>
      <trkpt lat="43.58671" lon="6.43313">
        <ele>586.4</ele>
        <time>2022-11-23T14:15:13.000Z</time>
      </trkpt>
      <trkpt lat="43.58669" lon="6.43307">
        <ele>586.4</ele>
        <time>2022-11-23T14:15:16.000Z</time>
      </trkpt>
      <trkpt lat="43.58666" lon="6.43302">
        <ele>586.3</ele>
        <time>2022-11-23T14:15:20.000Z</time>
      </trkpt>
      <trkpt lat="43.5866" lon="6.43298">
        <ele>586.4</ele>
        <time>2022-11-23T14:15:23.000Z</time>
      </trkpt>
      <trkpt lat="43.58655" lon="6.43293">
        <ele>586.4</ele>
        <time>2022-11-23T14:15:27.000Z</time>
      </trkpt>
      <trkpt lat="43.58651" lon="6.43288">
        <ele>586.3</ele>
        <time>2022-11-23T14:15:30.000Z</time>
      </trkpt>
      <trkpt lat="43.58647" lon="6.43284">
        <ele>586.1</ele>
        <time>2022-11-23T14:15:36.000Z</time>
      </trkpt>
      <trkpt lat="43.58643" lon="6.4328">
        <ele>586.7</ele>
        <time>2022-11-23T14:15:41.000Z</time>
      </trkpt>
      <trkpt lat="43.58639" lon="6.43275">
        <ele>587.3</ele>
        <time>2022-11-23T14:15:46.000Z</time>
      </trkpt>
      <trkpt lat="43.58635" lon="6.43271">
        <ele>587.5</ele>
        <time>2022-11-23T14:15:51.000Z</time>
      </trkpt>
      <trkpt lat="43.58631" lon="6.43266">
        <ele>588.7</ele>
        <time>2022-11-23T14:15:56.000Z</time>
      </trkpt>
      <trkpt lat="43.58628" lon="6.43261">
        <ele>588.9</ele>
        <time>2022-11-23T14:16:00.000Z</time>
      </trkpt>
      <trkpt lat="43.58624" lon="6.43258">
        <ele>585.9</ele>
        <time>2022-11-23T14:16:04.000Z</time>
      </trkpt>
      <trkpt lat="43.5862" lon="6.43253">
        <ele>586.8</ele>
        <time>2022-11-23T14:16:08.000Z</time>
      </trkpt>
      <trkpt lat="43.58617" lon="6.43247">
        <ele>588.6</ele>
        <time>2022-11-23T14:16:12.000Z</time>
      </trkpt>
      <trkpt lat="43.58613" lon="6.43242">
        <ele>588.5</ele>
        <time>2022-11-23T14:16:16.000Z</time>
      </trkpt>
      <trkpt lat="43.58609" lon="6.43236">
        <ele>589.1</ele>
        <time>2022-11-23T14:16:20.000Z</time>
      </trkpt>
      <trkpt lat="43.58605" lon="6.43232">
        <ele>590.5</ele>
        <time>2022-11-23T14:16:24.000Z</time>
      </trkpt>
      <trkpt lat="43.586" lon="6.43228">
        <ele>589.9</ele>
        <time>2022-11-23T14:16:28.000Z</time>
      </trkpt>
      <trkpt lat="43.58596" lon="6.43222">
        <ele>589.3</ele>
        <time>2022-11-23T14:16:32.000Z</time>
      </trkpt>
      <trkpt lat="43.58593" lon="6.43216">
        <ele>589.4</ele>
        <time>2022-11-23T14:16:35.000Z</time>
      </trkpt>
      <trkpt lat="43.58588" lon="6.43213">
        <ele>590.4</ele>
        <time>2022-11-23T14:16:39.000Z</time>
      </trkpt>
      <trkpt lat="43.58585" lon="6.43208">
        <ele>590.9</ele>
        <time>2022-11-23T14:16:43.000Z</time>
      </trkpt>
      <trkpt lat="43.58581" lon="6.43203">
        <ele>590.4</ele>
        <time>2022-11-23T14:16:47.000Z</time>
      </trkpt>
      <trkpt lat="43.58577" lon="6.43199">
        <ele>589.2</ele>
        <time>2022-11-23T14:16:52.000Z</time>
      </trkpt>
      <trkpt lat="43.58573" lon="6.43195">
        <ele>589.2</ele>
        <time>2022-11-23T14:16:56.000Z</time>
      </trkpt>
      <trkpt lat="43.58568" lon="6.43193">
        <ele>590.2</ele>
        <time>2022-11-23T14:16:59.000Z</time>
      </trkpt>
      <trkpt lat="43.58564" lon="6.4319">
        <ele>591</ele>
        <time>2022-11-23T14:17:02.000Z</time>
      </trkpt>
      <trkpt lat="43.58559" lon="6.43188">
        <ele>591.3</ele>
        <time>2022-11-23T14:17:05.000Z</time>
      </trkpt>
      <trkpt lat="43.58556" lon="6.43184">
        <ele>591.2</ele>
        <time>2022-11-23T14:17:08.000Z</time>
      </trkpt>
      <trkpt lat="43.58553" lon="6.43178">
        <ele>591.4</ele>
        <time>2022-11-23T14:17:12.000Z</time>
      </trkpt>
      <trkpt lat="43.58549" lon="6.43174">
        <ele>591.5</ele>
        <time>2022-11-23T14:17:15.000Z</time>
      </trkpt>
      <trkpt lat="43.58545" lon="6.4317">
        <ele>590.8</ele>
        <time>2022-11-23T14:17:18.000Z</time>
      </trkpt>
      <trkpt lat="43.58541" lon="6.43165">
        <ele>589.9</ele>
        <time>2022-11-23T14:17:22.000Z</time>
      </trkpt>
      <trkpt lat="43.58536" lon="6.43163">
        <ele>589.8</ele>
        <time>2022-11-23T14:17:26.000Z</time>
      </trkpt>
      <trkpt lat="43.58532" lon="6.4316">
        <ele>590.5</ele>
        <time>2022-11-23T14:17:29.000Z</time>
      </trkpt>
      <trkpt lat="43.58527" lon="6.4316">
        <ele>592</ele>
        <time>2022-11-23T14:17:33.000Z</time>
      </trkpt>
      <trkpt lat="43.58522" lon="6.43158">
        <ele>591.7</ele>
        <time>2022-11-23T14:17:37.000Z</time>
      </trkpt>
      <trkpt lat="43.58518" lon="6.43156">
        <ele>590.4</ele>
        <time>2022-11-23T14:17:41.000Z</time>
      </trkpt>
      <trkpt lat="43.58513" lon="6.43155">
        <ele>590.8</ele>
        <time>2022-11-23T14:17:45.000Z</time>
      </trkpt>
      <trkpt lat="43.58508" lon="6.43154">
        <ele>592.2</ele>
        <time>2022-11-23T14:17:49.000Z</time>
      </trkpt>
      <trkpt lat="43.58503" lon="6.43152">
        <ele>592.7</ele>
        <time>2022-11-23T14:17:53.000Z</time>
      </trkpt>
      <trkpt lat="43.58498" lon="6.43153">
        <ele>591.4</ele>
        <time>2022-11-23T14:17:57.000Z</time>
      </trkpt>
      <trkpt lat="43.58492" lon="6.43153">
        <ele>592</ele>
        <time>2022-11-23T14:18:01.000Z</time>
      </trkpt>
      <trkpt lat="43.58487" lon="6.43154">
        <ele>593.2</ele>
        <time>2022-11-23T14:18:05.000Z</time>
      </trkpt>
      <trkpt lat="43.58483" lon="6.43155">
        <ele>594.3</ele>
        <time>2022-11-23T14:18:09.000Z</time>
      </trkpt>
      <trkpt lat="43.58478" lon="6.43156">
        <ele>594</ele>
        <time>2022-11-23T14:18:13.000Z</time>
      </trkpt>
      <trkpt lat="43.58473" lon="6.43155">
        <ele>593.9</ele>
        <time>2022-11-23T14:18:17.000Z</time>
      </trkpt>
      <trkpt lat="43.58468" lon="6.43154">
        <ele>594.5</ele>
        <time>2022-11-23T14:18:21.000Z</time>
      </trkpt>
      <trkpt lat="43.58463" lon="6.43154">
        <ele>595.7</ele>
        <time>2022-11-23T14:18:25.000Z</time>
      </trkpt>
      <trkpt lat="43.58458" lon="6.43153">
        <ele>595.5</ele>
        <time>2022-11-23T14:18:29.000Z</time>
      </trkpt>
      <trkpt lat="43.58453" lon="6.43154">
        <ele>593.7</ele>
        <time>2022-11-23T14:18:34.000Z</time>
      </trkpt>
      <trkpt lat="43.58448" lon="6.43152">
        <ele>595.9</ele>
        <time>2022-11-23T14:18:39.000Z</time>
      </trkpt>
      <trkpt lat="43.58443" lon="6.4315">
        <ele>595.4</ele>
        <time>2022-11-23T14:18:43.000Z</time>
      </trkpt>
      <trkpt lat="43.58439" lon="6.43149">
        <ele>594.9</ele>
        <time>2022-11-23T14:18:47.000Z</time>
      </trkpt>
      <trkpt lat="43.58434" lon="6.43148">
        <ele>595.4</ele>
        <time>2022-11-23T14:18:51.000Z</time>
      </trkpt>
      <trkpt lat="43.58429" lon="6.43148">
        <ele>596.1</ele>
        <time>2022-11-23T14:18:55.000Z</time>
      </trkpt>
      <trkpt lat="43.58424" lon="6.43146">
        <ele>595.7</ele>
        <time>2022-11-23T14:18:59.000Z</time>
      </trkpt>
      <trkpt lat="43.5842" lon="6.43141">
        <ele>596.3</ele>
        <time>2022-11-23T14:19:03.000Z</time>
      </trkpt>
      <trkpt lat="43.58416" lon="6.43137">
        <ele>596</ele>
        <time>2022-11-23T14:19:08.000Z</time>
      </trkpt>
      <trkpt lat="43.58414" lon="6.43131">
        <ele>596.9</ele>
        <time>2022-11-23T14:19:13.000Z</time>
      </trkpt>
      <trkpt lat="43.58408" lon="6.43129">
        <ele>596.6</ele>
        <time>2022-11-23T14:19:18.000Z</time>
      </trkpt>
      <trkpt lat="43.58407" lon="6.43122">
        <ele>598</ele>
        <time>2022-11-23T14:19:24.000Z</time>
      </trkpt>
      <trkpt lat="43.58411" lon="6.43117">
        <ele>598.4</ele>
        <time>2022-11-23T14:19:30.000Z</time>
      </trkpt>
      <trkpt lat="43.58413" lon="6.4311">
        <ele>598.2</ele>
        <time>2022-11-23T14:19:35.000Z</time>
      </trkpt>
      <trkpt lat="43.58414" lon="6.43103">
        <ele>598.1</ele>
        <time>2022-11-23T14:19:40.000Z</time>
      </trkpt>
      <trkpt lat="43.58414" lon="6.43097">
        <ele>597.5</ele>
        <time>2022-11-23T14:20:27.000Z</time>
      </trkpt>
      <trkpt lat="43.58417" lon="6.43092">
        <ele>595.4</ele>
        <time>2022-11-23T14:20:52.000Z</time>
      </trkpt>
      <trkpt lat="43.58413" lon="6.43095">
        <ele>593.5</ele>
        <time>2022-11-23T14:24:17.000Z</time>
      </trkpt>
      <trkpt lat="43.58413" lon="6.43101">
        <ele>595.1</ele>
        <time>2022-11-23T14:24:51.000Z</time>
      </trkpt>
      <trkpt lat="43.5841" lon="6.43105">
        <ele>596.4</ele>
        <time>2022-11-23T14:26:51.000Z</time>
      </trkpt>
      <trkpt lat="43.58405" lon="6.4311">
        <ele>596.7</ele>
        <time>2022-11-23T14:27:19.000Z</time>
      </trkpt>
      <trkpt lat="43.584" lon="6.43112">
        <ele>596.8</ele>
        <time>2022-11-23T14:27:27.000Z</time>
      </trkpt>
      <trkpt lat="43.58395" lon="6.4311">
        <ele>598.6</ele>
        <time>2022-11-23T14:27:32.000Z</time>
      </trkpt>
      <trkpt lat="43.5839" lon="6.43111">
        <ele>598.4</ele>
        <time>2022-11-23T14:27:38.000Z</time>
      </trkpt>
      <trkpt lat="43.58385" lon="6.43111">
        <ele>598.1</ele>
        <time>2022-11-23T14:27:44.000Z</time>
      </trkpt>
      <trkpt lat="43.5838" lon="6.43111">
        <ele>598.5</ele>
        <time>2022-11-23T14:27:49.000Z</time>
      </trkpt>
      <trkpt lat="43.58375" lon="6.4311">
        <ele>598.1</ele>
        <time>2022-11-23T14:27:54.000Z</time>
      </trkpt>
      <trkpt lat="43.5837" lon="6.43108">
        <ele>598.2</ele>
        <time>2022-11-23T14:28:00.000Z</time>
      </trkpt>
      <trkpt lat="43.58365" lon="6.43108">
        <ele>599.1</ele>
        <time>2022-11-23T14:28:06.000Z</time>
      </trkpt>
      <trkpt lat="43.5836" lon="6.43107">
        <ele>599.1</ele>
        <time>2022-11-23T14:28:11.000Z</time>
      </trkpt>
      <trkpt lat="43.58354" lon="6.43106">
        <ele>599.9</ele>
        <time>2022-11-23T14:28:17.000Z</time>
      </trkpt>
      <trkpt lat="43.58349" lon="6.43105">
        <ele>598.7</ele>
        <time>2022-11-23T14:28:21.000Z</time>
      </trkpt>
      <trkpt lat="43.58343" lon="6.43106">
        <ele>599.4</ele>
        <time>2022-11-23T14:28:26.000Z</time>
      </trkpt>
      <trkpt lat="43.58338" lon="6.43106">
        <ele>599.4</ele>
        <time>2022-11-23T14:28:32.000Z</time>
      </trkpt>
      <trkpt lat="43.58333" lon="6.43103">
        <ele>599.2</ele>
        <time>2022-11-23T14:28:36.000Z</time>
      </trkpt>
      <trkpt lat="43.58328" lon="6.431">
        <ele>599.9</ele>
        <time>2022-11-23T14:28:41.000Z</time>
      </trkpt>
      <trkpt lat="43.58324" lon="6.43097">
        <ele>599.5</ele>
        <time>2022-11-23T14:28:49.000Z</time>
      </trkpt>
      <trkpt lat="43.58319" lon="6.43098">
        <ele>599.7</ele>
        <time>2022-11-23T14:29:20.000Z</time>
      </trkpt>
      <trkpt lat="43.58314" lon="6.43097">
        <ele>599.2</ele>
        <time>2022-11-23T14:29:37.000Z</time>
      </trkpt>
      <trkpt lat="43.58312" lon="6.43104">
        <ele>599</ele>
        <time>2022-11-23T14:30:53.000Z</time>
      </trkpt>
      <trkpt lat="43.58308" lon="6.43108">
        <ele>599</ele>
        <time>2022-11-23T14:30:59.000Z</time>
      </trkpt>
      <trkpt lat="43.58304" lon="6.43112">
        <ele>599.6</ele>
        <time>2022-11-23T14:31:04.000Z</time>
      </trkpt>
      <trkpt lat="43.58301" lon="6.43118">
        <ele>599.6</ele>
        <time>2022-11-23T14:31:10.000Z</time>
      </trkpt>
      <trkpt lat="43.58297" lon="6.43122">
        <ele>599</ele>
        <time>2022-11-23T14:31:15.000Z</time>
      </trkpt>
      <trkpt lat="43.58293" lon="6.43126">
        <ele>598.8</ele>
        <time>2022-11-23T14:31:19.000Z</time>
      </trkpt>
      <trkpt lat="43.5829" lon="6.4313">
        <ele>599.6</ele>
        <time>2022-11-23T14:31:24.000Z</time>
      </trkpt>
      <trkpt lat="43.58286" lon="6.43134">
        <ele>598.8</ele>
        <time>2022-11-23T14:31:31.000Z</time>
      </trkpt>
      <trkpt lat="43.58281" lon="6.43136">
        <ele>599.3</ele>
        <time>2022-11-23T14:31:36.000Z</time>
      </trkpt>
      <trkpt lat="43.58276" lon="6.43136">
        <ele>598.1</ele>
        <time>2022-11-23T14:31:41.000Z</time>
      </trkpt>
      <trkpt lat="43.58271" lon="6.43135">
        <ele>597.7</ele>
        <time>2022-11-23T14:31:45.000Z</time>
      </trkpt>
      <trkpt lat="43.58266" lon="6.43135">
        <ele>597.7</ele>
        <time>2022-11-23T14:31:49.000Z</time>
      </trkpt>
      <trkpt lat="43.58261" lon="6.43135">
        <ele>598</ele>
        <time>2022-11-23T14:31:53.000Z</time>
      </trkpt>
      <trkpt lat="43.58256" lon="6.43136">
        <ele>598</ele>
        <time>2022-11-23T14:31:58.000Z</time>
      </trkpt>
      <trkpt lat="43.58251" lon="6.43134">
        <ele>598.5</ele>
        <time>2022-11-23T14:32:01.000Z</time>
      </trkpt>
      <trkpt lat="43.58247" lon="6.43136">
        <ele>598.7</ele>
        <time>2022-11-23T14:32:05.000Z</time>
      </trkpt>
      <trkpt lat="43.58242" lon="6.43139">
        <ele>598.5</ele>
        <time>2022-11-23T14:32:09.000Z</time>
      </trkpt>
      <trkpt lat="43.58236" lon="6.43142">
        <ele>598.1</ele>
        <time>2022-11-23T14:32:13.000Z</time>
      </trkpt>
      <trkpt lat="43.58231" lon="6.43145">
        <ele>597.8</ele>
        <time>2022-11-23T14:32:17.000Z</time>
      </trkpt>
      <trkpt lat="43.58226" lon="6.43147">
        <ele>598.6</ele>
        <time>2022-11-23T14:32:25.000Z</time>
      </trkpt>
      <trkpt lat="43.58222" lon="6.43147">
        <ele>597.9</ele>
        <time>2022-11-23T14:32:34.000Z</time>
      </trkpt>
      <trkpt lat="43.58222" lon="6.43154">
        <ele>598.6</ele>
        <time>2022-11-23T14:33:11.000Z</time>
      </trkpt>
      <trkpt lat="43.58224" lon="6.4316">
        <ele>597.7</ele>
        <time>2022-11-23T14:33:16.000Z</time>
      </trkpt>
      <trkpt lat="43.58223" lon="6.43167">
        <ele>597.9</ele>
        <time>2022-11-23T14:33:21.000Z</time>
      </trkpt>
      <trkpt lat="43.5822" lon="6.43172">
        <ele>598.4</ele>
        <time>2022-11-23T14:33:25.000Z</time>
      </trkpt>
      <trkpt lat="43.58218" lon="6.43178">
        <ele>598.3</ele>
        <time>2022-11-23T14:33:30.000Z</time>
      </trkpt>
      <trkpt lat="43.58214" lon="6.43183">
        <ele>597.9</ele>
        <time>2022-11-23T14:33:33.000Z</time>
      </trkpt>
      <trkpt lat="43.58211" lon="6.43188">
        <ele>597.3</ele>
        <time>2022-11-23T14:33:37.000Z</time>
      </trkpt>
      <trkpt lat="43.58209" lon="6.43195">
        <ele>597</ele>
        <time>2022-11-23T14:33:41.000Z</time>
      </trkpt>
      <trkpt lat="43.58204" lon="6.432">
        <ele>596.6</ele>
        <time>2022-11-23T14:33:45.000Z</time>
      </trkpt>
      <trkpt lat="43.58201" lon="6.43205">
        <ele>596.2</ele>
        <time>2022-11-23T14:33:48.000Z</time>
      </trkpt>
      <trkpt lat="43.58196" lon="6.43209">
        <ele>596.6</ele>
        <time>2022-11-23T14:33:52.000Z</time>
      </trkpt>
      <trkpt lat="43.58198" lon="6.43216">
        <ele>596.7</ele>
        <time>2022-11-23T14:33:58.000Z</time>
      </trkpt>
      <trkpt lat="43.58195" lon="6.43221">
        <ele>596.2</ele>
        <time>2022-11-23T14:34:01.000Z</time>
      </trkpt>
      <trkpt lat="43.58197" lon="6.43228">
        <ele>596</ele>
        <time>2022-11-23T14:34:04.000Z</time>
      </trkpt>
      <trkpt lat="43.58197" lon="6.43234">
        <ele>596.6</ele>
        <time>2022-11-23T14:34:08.000Z</time>
      </trkpt>
      <trkpt lat="43.58197" lon="6.43241">
        <ele>597.3</ele>
        <time>2022-11-23T14:34:14.000Z</time>
      </trkpt>
      <trkpt lat="43.58196" lon="6.43248">
        <ele>596.9</ele>
        <time>2022-11-23T14:34:19.000Z</time>
      </trkpt>
      <trkpt lat="43.58194" lon="6.43254">
        <ele>595.9</ele>
        <time>2022-11-23T14:34:24.000Z</time>
      </trkpt>
      <trkpt lat="43.58191" lon="6.43259">
        <ele>596.3</ele>
        <time>2022-11-23T14:34:28.000Z</time>
      </trkpt>
      <trkpt lat="43.58189" lon="6.43265">
        <ele>596.6</ele>
        <time>2022-11-23T14:34:33.000Z</time>
      </trkpt>
      <trkpt lat="43.58187" lon="6.43271">
        <ele>596.1</ele>
        <time>2022-11-23T14:34:37.000Z</time>
      </trkpt>
      <trkpt lat="43.58183" lon="6.43276">
        <ele>595.5</ele>
        <time>2022-11-23T14:34:41.000Z</time>
      </trkpt>
      <trkpt lat="43.58181" lon="6.43282">
        <ele>595.6</ele>
        <time>2022-11-23T14:34:44.000Z</time>
      </trkpt>
      <trkpt lat="43.58175" lon="6.43285">
        <ele>595.7</ele>
        <time>2022-11-23T14:34:48.000Z</time>
      </trkpt>
      <trkpt lat="43.58173" lon="6.4329">
        <ele>596.1</ele>
        <time>2022-11-23T14:34:55.000Z</time>
      </trkpt>
      <trkpt lat="43.58173" lon="6.43296">
        <ele>595.7</ele>
        <time>2022-11-23T14:34:58.000Z</time>
      </trkpt>
      <trkpt lat="43.58169" lon="6.43301">
        <ele>594.9</ele>
        <time>2022-11-23T14:35:01.000Z</time>
      </trkpt>
      <trkpt lat="43.58168" lon="6.43307">
        <ele>594.1</ele>
        <time>2022-11-23T14:35:04.000Z</time>
      </trkpt>
      <trkpt lat="43.58163" lon="6.43312">
        <ele>593.8</ele>
        <time>2022-11-23T14:35:07.000Z</time>
      </trkpt>
      <trkpt lat="43.58162" lon="6.43319">
        <ele>593.7</ele>
        <time>2022-11-23T14:35:11.000Z</time>
      </trkpt>
      <trkpt lat="43.58161" lon="6.43326">
        <ele>594.1</ele>
        <time>2022-11-23T14:35:15.000Z</time>
      </trkpt>
      <trkpt lat="43.58159" lon="6.43332">
        <ele>594.3</ele>
        <time>2022-11-23T14:35:19.000Z</time>
      </trkpt>
      <trkpt lat="43.58154" lon="6.43337">
        <ele>593.6</ele>
        <time>2022-11-23T14:35:24.000Z</time>
      </trkpt>
      <trkpt lat="43.58152" lon="6.43343">
        <ele>593.2</ele>
        <time>2022-11-23T14:35:28.000Z</time>
      </trkpt>
      <trkpt lat="43.58151" lon="6.43351">
        <ele>593.6</ele>
        <time>2022-11-23T14:35:32.000Z</time>
      </trkpt>
      <trkpt lat="43.58151" lon="6.43358">
        <ele>593.8</ele>
        <time>2022-11-23T14:35:36.000Z</time>
      </trkpt>
      <trkpt lat="43.58148" lon="6.43364">
        <ele>593.6</ele>
        <time>2022-11-23T14:35:40.000Z</time>
      </trkpt>
      <trkpt lat="43.58148" lon="6.43371">
        <ele>593.1</ele>
        <time>2022-11-23T14:35:45.000Z</time>
      </trkpt>
      <trkpt lat="43.58145" lon="6.43377">
        <ele>592.9</ele>
        <time>2022-11-23T14:35:48.000Z</time>
      </trkpt>
      <trkpt lat="43.58143" lon="6.43384">
        <ele>592.7</ele>
        <time>2022-11-23T14:35:53.000Z</time>
      </trkpt>
      <trkpt lat="43.5814" lon="6.4339">
        <ele>593.1</ele>
        <time>2022-11-23T14:35:57.000Z</time>
      </trkpt>
      <trkpt lat="43.58137" lon="6.43396">
        <ele>592.5</ele>
        <time>2022-11-23T14:36:01.000Z</time>
      </trkpt>
      <trkpt lat="43.58137" lon="6.43403">
        <ele>592.7</ele>
        <time>2022-11-23T14:36:10.000Z</time>
      </trkpt>
      <trkpt lat="43.5814" lon="6.43408">
        <ele>592.8</ele>
        <time>2022-11-23T14:36:18.000Z</time>
      </trkpt>
      <trkpt lat="43.58139" lon="6.43414">
        <ele>592.6</ele>
        <time>2022-11-23T14:36:37.000Z</time>
      </trkpt>
      <trkpt lat="43.58136" lon="6.4342">
        <ele>591.9</ele>
        <time>2022-11-23T14:36:41.000Z</time>
      </trkpt>
      <trkpt lat="43.58133" lon="6.43425">
        <ele>591.9</ele>
        <time>2022-11-23T14:36:45.000Z</time>
      </trkpt>
      <trkpt lat="43.58135" lon="6.43432">
        <ele>592.3</ele>
        <time>2022-11-23T14:36:48.000Z</time>
      </trkpt>
      <trkpt lat="43.58136" lon="6.43439">
        <ele>591.3</ele>
        <time>2022-11-23T14:36:54.000Z</time>
      </trkpt>
      <trkpt lat="43.58139" lon="6.43444">
        <ele>589.7</ele>
        <time>2022-11-23T14:37:02.000Z</time>
      </trkpt>
      <trkpt lat="43.58143" lon="6.43446">
        <ele>590.1</ele>
        <time>2022-11-23T14:37:08.000Z</time>
      </trkpt>
      <trkpt lat="43.58142" lon="6.43453">
        <ele>591</ele>
        <time>2022-11-23T14:37:25.000Z</time>
      </trkpt>
      <trkpt lat="43.5814" lon="6.4346">
        <ele>589.9</ele>
        <time>2022-11-23T14:37:33.000Z</time>
      </trkpt>
      <trkpt lat="43.58142" lon="6.43467">
        <ele>590.9</ele>
        <time>2022-11-23T14:37:38.000Z</time>
      </trkpt>
      <trkpt lat="43.58141" lon="6.43474">
        <ele>590.8</ele>
        <time>2022-11-23T14:37:42.000Z</time>
      </trkpt>
      <trkpt lat="43.58142" lon="6.43481">
        <ele>590.5</ele>
        <time>2022-11-23T14:37:47.000Z</time>
      </trkpt>
      <trkpt lat="43.58142" lon="6.43487">
        <ele>591</ele>
        <time>2022-11-23T14:37:51.000Z</time>
      </trkpt>
      <trkpt lat="43.58144" lon="6.43493">
        <ele>590.9</ele>
        <time>2022-11-23T14:37:56.000Z</time>
      </trkpt>
      <trkpt lat="43.5814" lon="6.43497">
        <ele>591.4</ele>
        <time>2022-11-23T14:37:58.000Z</time>
      </trkpt>
      <trkpt lat="43.5814" lon="6.43503">
        <ele>590.8</ele>
        <time>2022-11-23T14:38:02.000Z</time>
      </trkpt>
      <trkpt lat="43.58141" lon="6.4351">
        <ele>591.3</ele>
        <time>2022-11-23T14:38:06.000Z</time>
      </trkpt>
      <trkpt lat="43.58141" lon="6.43516">
        <ele>591.4</ele>
        <time>2022-11-23T14:38:10.000Z</time>
      </trkpt>
      <trkpt lat="43.58142" lon="6.43523">
        <ele>591.2</ele>
        <time>2022-11-23T14:38:13.000Z</time>
      </trkpt>
      <trkpt lat="43.58142" lon="6.4353">
        <ele>591.9</ele>
        <time>2022-11-23T14:38:17.000Z</time>
      </trkpt>
      <trkpt lat="43.58143" lon="6.43536">
        <ele>591</ele>
        <time>2022-11-23T14:38:21.000Z</time>
      </trkpt>
      <trkpt lat="43.58141" lon="6.43543">
        <ele>592</ele>
        <time>2022-11-23T14:38:24.000Z</time>
      </trkpt>
      <trkpt lat="43.58141" lon="6.4355">
        <ele>590.6</ele>
        <time>2022-11-23T14:38:28.000Z</time>
      </trkpt>
      <trkpt lat="43.5814" lon="6.43557">
        <ele>592.2</ele>
        <time>2022-11-23T14:38:32.000Z</time>
      </trkpt>
      <trkpt lat="43.58137" lon="6.43563">
        <ele>591.9</ele>
        <time>2022-11-23T14:38:37.000Z</time>
      </trkpt>
      <trkpt lat="43.58138" lon="6.43571">
        <ele>592.2</ele>
        <time>2022-11-23T14:38:45.000Z</time>
      </trkpt>
      <trkpt lat="43.58138" lon="6.43579">
        <ele>593</ele>
        <time>2022-11-23T14:38:51.000Z</time>
      </trkpt>
      <trkpt lat="43.58139" lon="6.43585">
        <ele>592.8</ele>
        <time>2022-11-23T14:38:55.000Z</time>
      </trkpt>
      <trkpt lat="43.58138" lon="6.43591">
        <ele>593.3</ele>
        <time>2022-11-23T14:38:59.000Z</time>
      </trkpt>
      <trkpt lat="43.58138" lon="6.43599">
        <ele>593.4</ele>
        <time>2022-11-23T14:39:04.000Z</time>
      </trkpt>
      <trkpt lat="43.58138" lon="6.43606">
        <ele>593.7</ele>
        <time>2022-11-23T14:39:10.000Z</time>
      </trkpt>
      <trkpt lat="43.58135" lon="6.43612">
        <ele>592.7</ele>
        <time>2022-11-23T14:39:14.000Z</time>
      </trkpt>
      <trkpt lat="43.58133" lon="6.43617">
        <ele>594.1</ele>
        <time>2022-11-23T14:39:19.000Z</time>
      </trkpt>
      <trkpt lat="43.58132" lon="6.43624">
        <ele>593.4</ele>
        <time>2022-11-23T14:39:22.000Z</time>
      </trkpt>
      <trkpt lat="43.58133" lon="6.43632">
        <ele>594.2</ele>
        <time>2022-11-23T14:39:26.000Z</time>
      </trkpt>
      <trkpt lat="43.58131" lon="6.43639">
        <ele>593.6</ele>
        <time>2022-11-23T14:39:31.000Z</time>
      </trkpt>
      <trkpt lat="43.58132" lon="6.43647">
        <ele>594</ele>
        <time>2022-11-23T14:39:36.000Z</time>
      </trkpt>
      <trkpt lat="43.58132" lon="6.43653">
        <ele>594.9</ele>
        <time>2022-11-23T14:39:41.000Z</time>
      </trkpt>
      <trkpt lat="43.58131" lon="6.4366">
        <ele>594</ele>
        <time>2022-11-23T14:39:45.000Z</time>
      </trkpt>
      <trkpt lat="43.58131" lon="6.43666">
        <ele>595.5</ele>
        <time>2022-11-23T14:39:50.000Z</time>
      </trkpt>
      <trkpt lat="43.58129" lon="6.43672">
        <ele>595.3</ele>
        <time>2022-11-23T14:39:54.000Z</time>
      </trkpt>
      <trkpt lat="43.58129" lon="6.43678">
        <ele>595.4</ele>
        <time>2022-11-23T14:39:58.000Z</time>
      </trkpt>
      <trkpt lat="43.58128" lon="6.43684">
        <ele>595.8</ele>
        <time>2022-11-23T14:40:03.000Z</time>
      </trkpt>
      <trkpt lat="43.58127" lon="6.43691">
        <ele>595.4</ele>
        <time>2022-11-23T14:40:08.000Z</time>
      </trkpt>
      <trkpt lat="43.58127" lon="6.43697">
        <ele>596</ele>
        <time>2022-11-23T14:40:13.000Z</time>
      </trkpt>
      <trkpt lat="43.58126" lon="6.43704">
        <ele>595.5</ele>
        <time>2022-11-23T14:40:16.000Z</time>
      </trkpt>
      <trkpt lat="43.58126" lon="6.43712">
        <ele>596.6</ele>
        <time>2022-11-23T14:40:21.000Z</time>
      </trkpt>
      <trkpt lat="43.58126" lon="6.43719">
        <ele>595.8</ele>
        <time>2022-11-23T14:40:25.000Z</time>
      </trkpt>
      <trkpt lat="43.58126" lon="6.43726">
        <ele>596.9</ele>
        <time>2022-11-23T14:40:31.000Z</time>
      </trkpt>
      <trkpt lat="43.58126" lon="6.43733">
        <ele>596.5</ele>
        <time>2022-11-23T14:40:36.000Z</time>
      </trkpt>
      <trkpt lat="43.58124" lon="6.43739">
        <ele>596.1</ele>
        <time>2022-11-23T14:40:40.000Z</time>
      </trkpt>
      <trkpt lat="43.58123" lon="6.43746">
        <ele>596.6</ele>
        <time>2022-11-23T14:40:45.000Z</time>
      </trkpt>
      <trkpt lat="43.5812" lon="6.43753">
        <ele>596.2</ele>
        <time>2022-11-23T14:40:50.000Z</time>
      </trkpt>
      <trkpt lat="43.58118" lon="6.43759">
        <ele>596.8</ele>
        <time>2022-11-23T14:40:55.000Z</time>
      </trkpt>
      <trkpt lat="43.58117" lon="6.43766">
        <ele>597.2</ele>
        <time>2022-11-23T14:40:59.000Z</time>
      </trkpt>
      <trkpt lat="43.58116" lon="6.43772">
        <ele>597.9</ele>
        <time>2022-11-23T14:41:03.000Z</time>
      </trkpt>
      <trkpt lat="43.58114" lon="6.43778">
        <ele>597.4</ele>
        <time>2022-11-23T14:41:07.000Z</time>
      </trkpt>
      <trkpt lat="43.58112" lon="6.43784">
        <ele>597.8</ele>
        <time>2022-11-23T14:41:12.000Z</time>
      </trkpt>
      <trkpt lat="43.58109" lon="6.43791">
        <ele>597.1</ele>
        <time>2022-11-23T14:41:17.000Z</time>
      </trkpt>
      <trkpt lat="43.58108" lon="6.43797">
        <ele>598.3</ele>
        <time>2022-11-23T14:41:22.000Z</time>
      </trkpt>
      <trkpt lat="43.58105" lon="6.43804">
        <ele>597.7</ele>
        <time>2022-11-23T14:41:26.000Z</time>
      </trkpt>
      <trkpt lat="43.58105" lon="6.43811">
        <ele>597.8</ele>
        <time>2022-11-23T14:41:30.000Z</time>
      </trkpt>
      <trkpt lat="43.58104" lon="6.43819">
        <ele>597.6</ele>
        <time>2022-11-23T14:41:35.000Z</time>
      </trkpt>
      <trkpt lat="43.58101" lon="6.43823">
        <ele>597.2</ele>
        <time>2022-11-23T14:41:37.000Z</time>
      </trkpt>
      <trkpt lat="43.58099" lon="6.43829">
        <ele>597.5</ele>
        <time>2022-11-23T14:41:42.000Z</time>
      </trkpt>
      <trkpt lat="43.58097" lon="6.43835">
        <ele>597.1</ele>
        <time>2022-11-23T14:41:46.000Z</time>
      </trkpt>
      <trkpt lat="43.58098" lon="6.43843">
        <ele>597.6</ele>
        <time>2022-11-23T14:41:50.000Z</time>
      </trkpt>
      <trkpt lat="43.58098" lon="6.43849">
        <ele>597.2</ele>
        <time>2022-11-23T14:41:55.000Z</time>
      </trkpt>
      <trkpt lat="43.58097" lon="6.43856">
        <ele>596.7</ele>
        <time>2022-11-23T14:42:00.000Z</time>
      </trkpt>
      <trkpt lat="43.58095" lon="6.43863">
        <ele>596.5</ele>
        <time>2022-11-23T14:42:06.000Z</time>
      </trkpt>
      <trkpt lat="43.58093" lon="6.43869">
        <ele>596.9</ele>
        <time>2022-11-23T14:42:12.000Z</time>
      </trkpt>
      <trkpt lat="43.5809" lon="6.43874">
        <ele>595.5</ele>
        <time>2022-11-23T14:42:16.000Z</time>
      </trkpt>
      <trkpt lat="43.58088" lon="6.4388">
        <ele>596.1</ele>
        <time>2022-11-23T14:42:21.000Z</time>
      </trkpt>
      <trkpt lat="43.58087" lon="6.43887">
        <ele>595.9</ele>
        <time>2022-11-23T14:42:26.000Z</time>
      </trkpt>
      <trkpt lat="43.58084" lon="6.43893">
        <ele>595.2</ele>
        <time>2022-11-23T14:42:31.000Z</time>
      </trkpt>
      <trkpt lat="43.58083" lon="6.43899">
        <ele>595.1</ele>
        <time>2022-11-23T14:42:35.000Z</time>
      </trkpt>
      <trkpt lat="43.58081" lon="6.43906">
        <ele>594.5</ele>
        <time>2022-11-23T14:42:40.000Z</time>
      </trkpt>
      <trkpt lat="43.58081" lon="6.43912">
        <ele>594.5</ele>
        <time>2022-11-23T14:42:45.000Z</time>
      </trkpt>
      <trkpt lat="43.5808" lon="6.4392">
        <ele>594.1</ele>
        <time>2022-11-23T14:42:50.000Z</time>
      </trkpt>
      <trkpt lat="43.5808" lon="6.43926">
        <ele>594.2</ele>
        <time>2022-11-23T14:42:55.000Z</time>
      </trkpt>
      <trkpt lat="43.58082" lon="6.43932">
        <ele>593.8</ele>
        <time>2022-11-23T14:42:59.000Z</time>
      </trkpt>
      <trkpt lat="43.58081" lon="6.43939">
        <ele>593.6</ele>
        <time>2022-11-23T14:43:03.000Z</time>
      </trkpt>
      <trkpt lat="43.58079" lon="6.43946">
        <ele>593.8</ele>
        <time>2022-11-23T14:43:08.000Z</time>
      </trkpt>
      <trkpt lat="43.58077" lon="6.43952">
        <ele>593.5</ele>
        <time>2022-11-23T14:43:12.000Z</time>
      </trkpt>
      <trkpt lat="43.58077" lon="6.43959">
        <ele>593.3</ele>
        <time>2022-11-23T14:43:18.000Z</time>
      </trkpt>
      <trkpt lat="43.58075" lon="6.43965">
        <ele>593</ele>
        <time>2022-11-23T14:43:24.000Z</time>
      </trkpt>
      <trkpt lat="43.58071" lon="6.43971">
        <ele>593.4</ele>
        <time>2022-11-23T14:43:30.000Z</time>
      </trkpt>
      <trkpt lat="43.58069" lon="6.43979">
        <ele>593</ele>
        <time>2022-11-23T14:43:35.000Z</time>
      </trkpt>
      <trkpt lat="43.58068" lon="6.43985">
        <ele>592.5</ele>
        <time>2022-11-23T14:43:40.000Z</time>
      </trkpt>
      <trkpt lat="43.58065" lon="6.4399">
        <ele>592.2</ele>
        <time>2022-11-23T14:43:44.000Z</time>
      </trkpt>
      <trkpt lat="43.58064" lon="6.43998">
        <ele>592.3</ele>
        <time>2022-11-23T14:43:49.000Z</time>
      </trkpt>
      <trkpt lat="43.58061" lon="6.44004">
        <ele>592.4</ele>
        <time>2022-11-23T14:43:53.000Z</time>
      </trkpt>
      <trkpt lat="43.5806" lon="6.4401">
        <ele>593.5</ele>
        <time>2022-11-23T14:43:58.000Z</time>
      </trkpt>
      <trkpt lat="43.58059" lon="6.44017">
        <ele>592.7</ele>
        <time>2022-11-23T14:44:03.000Z</time>
      </trkpt>
      <trkpt lat="43.58057" lon="6.44023">
        <ele>592.8</ele>
        <time>2022-11-23T14:44:07.000Z</time>
      </trkpt>
      <trkpt lat="43.58057" lon="6.4403">
        <ele>593.4</ele>
        <time>2022-11-23T14:44:12.000Z</time>
      </trkpt>
      <trkpt lat="43.58055" lon="6.44037">
        <ele>593.1</ele>
        <time>2022-11-23T14:44:16.000Z</time>
      </trkpt>
      <trkpt lat="43.58055" lon="6.44045">
        <ele>593.2</ele>
        <time>2022-11-23T14:44:21.000Z</time>
      </trkpt>
      <trkpt lat="43.58058" lon="6.44051">
        <ele>593.1</ele>
        <time>2022-11-23T14:44:27.000Z</time>
      </trkpt>
      <trkpt lat="43.58063" lon="6.44054">
        <ele>593.1</ele>
        <time>2022-11-23T14:44:32.000Z</time>
      </trkpt>
      <trkpt lat="43.58067" lon="6.44057">
        <ele>593.2</ele>
        <time>2022-11-23T14:44:36.000Z</time>
      </trkpt>
      <trkpt lat="43.58072" lon="6.4406">
        <ele>593.9</ele>
        <time>2022-11-23T14:44:39.000Z</time>
      </trkpt>
      <trkpt lat="43.58076" lon="6.44065">
        <ele>593.5</ele>
        <time>2022-11-23T14:44:44.000Z</time>
      </trkpt>
      <trkpt lat="43.5808" lon="6.4407">
        <ele>594.1</ele>
        <time>2022-11-23T14:44:49.000Z</time>
      </trkpt>
      <trkpt lat="43.58083" lon="6.44075">
        <ele>594.7</ele>
        <time>2022-11-23T14:44:54.000Z</time>
      </trkpt>
      <trkpt lat="43.58086" lon="6.44081">
        <ele>594.4</ele>
        <time>2022-11-23T14:44:58.000Z</time>
      </trkpt>
      <trkpt lat="43.58089" lon="6.44086">
        <ele>595</ele>
        <time>2022-11-23T14:45:02.000Z</time>
      </trkpt>
      <trkpt lat="43.58093" lon="6.44091">
        <ele>595.2</ele>
        <time>2022-11-23T14:45:07.000Z</time>
      </trkpt>
      <trkpt lat="43.58094" lon="6.44097">
        <ele>596.2</ele>
        <time>2022-11-23T14:45:11.000Z</time>
      </trkpt>
      <trkpt lat="43.58096" lon="6.44104">
        <ele>596.2</ele>
        <time>2022-11-23T14:45:16.000Z</time>
      </trkpt>
      <trkpt lat="43.58098" lon="6.44111">
        <ele>596.5</ele>
        <time>2022-11-23T14:45:21.000Z</time>
      </trkpt>
      <trkpt lat="43.581" lon="6.44117">
        <ele>596.7</ele>
        <time>2022-11-23T14:45:26.000Z</time>
      </trkpt>
      <trkpt lat="43.58101" lon="6.44124">
        <ele>596.5</ele>
        <time>2022-11-23T14:45:31.000Z</time>
      </trkpt>
      <trkpt lat="43.58102" lon="6.4413">
        <ele>597</ele>
        <time>2022-11-23T14:45:36.000Z</time>
      </trkpt>
      <trkpt lat="43.58103" lon="6.44137">
        <ele>597.2</ele>
        <time>2022-11-23T14:45:41.000Z</time>
      </trkpt>
      <trkpt lat="43.58104" lon="6.44144">
        <ele>596.7</ele>
        <time>2022-11-23T14:45:46.000Z</time>
      </trkpt>
      <trkpt lat="43.58106" lon="6.44151">
        <ele>597</ele>
        <time>2022-11-23T14:45:52.000Z</time>
      </trkpt>
      <trkpt lat="43.58108" lon="6.44158">
        <ele>597.2</ele>
        <time>2022-11-23T14:45:57.000Z</time>
      </trkpt>
      <trkpt lat="43.58111" lon="6.44165">
        <ele>597</ele>
        <time>2022-11-23T14:46:03.000Z</time>
      </trkpt>
      <trkpt lat="43.58115" lon="6.44168">
        <ele>597.1</ele>
        <time>2022-11-23T14:46:29.000Z</time>
      </trkpt>
      <trkpt lat="43.58111" lon="6.44172">
        <ele>596.8</ele>
        <time>2022-11-23T14:47:07.000Z</time>
      </trkpt>
      <trkpt lat="43.58112" lon="6.44178">
        <ele>597.1</ele>
        <time>2022-11-23T14:47:37.000Z</time>
      </trkpt>
      <trkpt lat="43.58117" lon="6.44182">
        <ele>596.9</ele>
        <time>2022-11-23T14:48:06.000Z</time>
      </trkpt>
      <trkpt lat="43.58118" lon="6.44188">
        <ele>597.1</ele>
        <time>2022-11-23T14:48:12.000Z</time>
      </trkpt>
      <trkpt lat="43.58116" lon="6.44194">
        <ele>596.6</ele>
        <time>2022-11-23T14:48:17.000Z</time>
      </trkpt>
      <trkpt lat="43.58116" lon="6.44202">
        <ele>596.7</ele>
        <time>2022-11-23T14:48:23.000Z</time>
      </trkpt>
      <trkpt lat="43.58117" lon="6.44209">
        <ele>595.3</ele>
        <time>2022-11-23T14:48:29.000Z</time>
      </trkpt>
      <trkpt lat="43.58119" lon="6.44215">
        <ele>596.1</ele>
        <time>2022-11-23T14:48:34.000Z</time>
      </trkpt>
      <trkpt lat="43.58123" lon="6.44221">
        <ele>595.4</ele>
        <time>2022-11-23T14:48:39.000Z</time>
      </trkpt>
      <trkpt lat="43.58126" lon="6.44226">
        <ele>595.9</ele>
        <time>2022-11-23T14:48:44.000Z</time>
      </trkpt>
      <trkpt lat="43.58129" lon="6.44231">
        <ele>594.7</ele>
        <time>2022-11-23T14:48:49.000Z</time>
      </trkpt>
      <trkpt lat="43.58132" lon="6.44237">
        <ele>594.7</ele>
        <time>2022-11-23T14:48:54.000Z</time>
      </trkpt>
      <trkpt lat="43.58135" lon="6.44242">
        <ele>593.6</ele>
        <time>2022-11-23T14:48:59.000Z</time>
      </trkpt>
      <trkpt lat="43.58139" lon="6.44247">
        <ele>593.3</ele>
        <time>2022-11-23T14:49:03.000Z</time>
      </trkpt>
      <trkpt lat="43.58143" lon="6.44251">
        <ele>593.9</ele>
        <time>2022-11-23T14:49:07.000Z</time>
      </trkpt>
      <trkpt lat="43.58148" lon="6.44254">
        <ele>592.9</ele>
        <time>2022-11-23T14:49:11.000Z</time>
      </trkpt>
      <trkpt lat="43.58151" lon="6.4426">
        <ele>592.2</ele>
        <time>2022-11-23T14:49:15.000Z</time>
      </trkpt>
      <trkpt lat="43.58155" lon="6.44264">
        <ele>592.2</ele>
        <time>2022-11-23T14:49:19.000Z</time>
      </trkpt>
      <trkpt lat="43.5816" lon="6.44268">
        <ele>593.1</ele>
        <time>2022-11-23T14:49:23.000Z</time>
      </trkpt>
      <trkpt lat="43.58164" lon="6.44269">
        <ele>592.4</ele>
        <time>2022-11-23T14:49:28.000Z</time>
      </trkpt>
      <trkpt lat="43.58169" lon="6.4427">
        <ele>591.8</ele>
        <time>2022-11-23T14:49:37.000Z</time>
      </trkpt>
      <trkpt lat="43.58174" lon="6.44271">
        <ele>591.4</ele>
        <time>2022-11-23T14:49:42.000Z</time>
      </trkpt>
      <trkpt lat="43.58177" lon="6.44276">
        <ele>591.7</ele>
        <time>2022-11-23T14:49:47.000Z</time>
      </trkpt>
      <trkpt lat="43.58182" lon="6.4428">
        <ele>591.9</ele>
        <time>2022-11-23T14:49:52.000Z</time>
      </trkpt>
      <trkpt lat="43.58186" lon="6.44283">
        <ele>592.2</ele>
        <time>2022-11-23T14:49:56.000Z</time>
      </trkpt>
      <trkpt lat="43.5819" lon="6.44285">
        <ele>591</ele>
        <time>2022-11-23T14:50:00.000Z</time>
      </trkpt>
      <trkpt lat="43.58195" lon="6.44288">
        <ele>591.5</ele>
        <time>2022-11-23T14:50:03.000Z</time>
      </trkpt>
      <trkpt lat="43.58199" lon="6.44291">
        <ele>592.4</ele>
        <time>2022-11-23T14:50:08.000Z</time>
      </trkpt>
      <trkpt lat="43.58203" lon="6.44295">
        <ele>592.4</ele>
        <time>2022-11-23T14:50:15.000Z</time>
      </trkpt>
      <trkpt lat="43.58207" lon="6.44299">
        <ele>591.1</ele>
        <time>2022-11-23T14:50:20.000Z</time>
      </trkpt>
      <trkpt lat="43.58211" lon="6.44303">
        <ele>592.5</ele>
        <time>2022-11-23T14:50:24.000Z</time>
      </trkpt>
      <trkpt lat="43.58215" lon="6.44306">
        <ele>591.5</ele>
        <time>2022-11-23T14:50:29.000Z</time>
      </trkpt>
      <trkpt lat="43.58219" lon="6.44312">
        <ele>591.6</ele>
        <time>2022-11-23T14:50:34.000Z</time>
      </trkpt>
      <trkpt lat="43.58221" lon="6.44317">
        <ele>591.7</ele>
        <time>2022-11-23T14:50:39.000Z</time>
      </trkpt>
      <trkpt lat="43.58224" lon="6.44323">
        <ele>593.6</ele>
        <time>2022-11-23T14:50:44.000Z</time>
      </trkpt>
      <trkpt lat="43.58226" lon="6.44329">
        <ele>594.1</ele>
        <time>2022-11-23T14:50:49.000Z</time>
      </trkpt>
      <trkpt lat="43.58228" lon="6.44334">
        <ele>594.3</ele>
        <time>2022-11-23T14:50:54.000Z</time>
      </trkpt>
      <trkpt lat="43.5823" lon="6.4434">
        <ele>594.3</ele>
        <time>2022-11-23T14:50:59.000Z</time>
      </trkpt>
      <trkpt lat="43.58232" lon="6.44347">
        <ele>594.4</ele>
        <time>2022-11-23T14:51:04.000Z</time>
      </trkpt>
      <trkpt lat="43.58233" lon="6.44353">
        <ele>594.7</ele>
        <time>2022-11-23T14:51:09.000Z</time>
      </trkpt>
      <trkpt lat="43.58234" lon="6.4436">
        <ele>594.3</ele>
        <time>2022-11-23T14:51:13.000Z</time>
      </trkpt>
      <trkpt lat="43.58233" lon="6.44367">
        <ele>594.4</ele>
        <time>2022-11-23T14:51:17.000Z</time>
      </trkpt>
      <trkpt lat="43.58234" lon="6.44374">
        <ele>596.1</ele>
        <time>2022-11-23T14:51:22.000Z</time>
      </trkpt>
      <trkpt lat="43.58235" lon="6.44381">
        <ele>595.5</ele>
        <time>2022-11-23T14:51:27.000Z</time>
      </trkpt>
      <trkpt lat="43.58237" lon="6.44387">
        <ele>595.9</ele>
        <time>2022-11-23T14:51:31.000Z</time>
      </trkpt>
      <trkpt lat="43.5824" lon="6.44394">
        <ele>596.9</ele>
        <time>2022-11-23T14:51:36.000Z</time>
      </trkpt>
      <trkpt lat="43.58242" lon="6.444">
        <ele>597.3</ele>
        <time>2022-11-23T14:51:41.000Z</time>
      </trkpt>
      <trkpt lat="43.58245" lon="6.44406">
        <ele>597.3</ele>
        <time>2022-11-23T14:51:46.000Z</time>
      </trkpt>
      <trkpt lat="43.58246" lon="6.44414">
        <ele>597.7</ele>
        <time>2022-11-23T14:51:51.000Z</time>
      </trkpt>
      <trkpt lat="43.58248" lon="6.4442">
        <ele>597.7</ele>
        <time>2022-11-23T14:51:56.000Z</time>
      </trkpt>
      <trkpt lat="43.58251" lon="6.44426">
        <ele>597.5</ele>
        <time>2022-11-23T14:52:01.000Z</time>
      </trkpt>
      <trkpt lat="43.58253" lon="6.44432">
        <ele>597.5</ele>
        <time>2022-11-23T14:52:05.000Z</time>
      </trkpt>
      <trkpt lat="43.58255" lon="6.44439">
        <ele>597.7</ele>
        <time>2022-11-23T14:52:10.000Z</time>
      </trkpt>
      <trkpt lat="43.58257" lon="6.44446">
        <ele>597.3</ele>
        <time>2022-11-23T14:52:15.000Z</time>
      </trkpt>
      <trkpt lat="43.58261" lon="6.44451">
        <ele>597.6</ele>
        <time>2022-11-23T14:52:20.000Z</time>
      </trkpt>
      <trkpt lat="43.58264" lon="6.44457">
        <ele>598.1</ele>
        <time>2022-11-23T14:52:24.000Z</time>
      </trkpt>
      <trkpt lat="43.58267" lon="6.44463">
        <ele>596.6</ele>
        <time>2022-11-23T14:52:29.000Z</time>
      </trkpt>
      <trkpt lat="43.58268" lon="6.44469">
        <ele>596.4</ele>
        <time>2022-11-23T14:52:34.000Z</time>
      </trkpt>
      <trkpt lat="43.5827" lon="6.44475">
        <ele>597.1</ele>
        <time>2022-11-23T14:52:38.000Z</time>
      </trkpt>
      <trkpt lat="43.58273" lon="6.44481">
        <ele>595.9</ele>
        <time>2022-11-23T14:52:43.000Z</time>
      </trkpt>
      <trkpt lat="43.58275" lon="6.44487">
        <ele>595.5</ele>
        <time>2022-11-23T14:52:47.000Z</time>
      </trkpt>
      <trkpt lat="43.58278" lon="6.44493">
        <ele>596.5</ele>
        <time>2022-11-23T14:52:52.000Z</time>
      </trkpt>
      <trkpt lat="43.58286" lon="6.44493">
        <ele>595.7</ele>
        <time>2022-11-23T14:52:59.000Z</time>
      </trkpt>
      <trkpt lat="43.58291" lon="6.44492">
        <ele>596.3</ele>
        <time>2022-11-23T14:53:07.000Z</time>
      </trkpt>
      <trkpt lat="43.58293" lon="6.44499">
        <ele>595.5</ele>
        <time>2022-11-23T14:53:23.000Z</time>
      </trkpt>
      <trkpt lat="43.58298" lon="6.44502">
        <ele>596.4</ele>
        <time>2022-11-23T14:53:27.000Z</time>
      </trkpt>
      <trkpt lat="43.58302" lon="6.44507">
        <ele>595.9</ele>
        <time>2022-11-23T14:53:31.000Z</time>
      </trkpt>
      <trkpt lat="43.58304" lon="6.44514">
        <ele>595</ele>
        <time>2022-11-23T14:53:38.000Z</time>
      </trkpt>
      <trkpt lat="43.58309" lon="6.44519">
        <ele>595.3</ele>
        <time>2022-11-23T14:53:42.000Z</time>
      </trkpt>
      <trkpt lat="43.58313" lon="6.44521">
        <ele>595.5</ele>
        <time>2022-11-23T14:53:46.000Z</time>
      </trkpt>
      <trkpt lat="43.58319" lon="6.44522">
        <ele>596.5</ele>
        <time>2022-11-23T14:53:50.000Z</time>
      </trkpt>
      <trkpt lat="43.58323" lon="6.44523">
        <ele>595.8</ele>
        <time>2022-11-23T14:53:54.000Z</time>
      </trkpt>
      <trkpt lat="43.58328" lon="6.44526">
        <ele>594.7</ele>
        <time>2022-11-23T14:53:58.000Z</time>
      </trkpt>
      <trkpt lat="43.58332" lon="6.4453">
        <ele>594.5</ele>
        <time>2022-11-23T14:54:02.000Z</time>
      </trkpt>
      <trkpt lat="43.58337" lon="6.44531">
        <ele>595</ele>
        <time>2022-11-23T14:54:06.000Z</time>
      </trkpt>
      <trkpt lat="43.58341" lon="6.44532">
        <ele>595.8</ele>
        <time>2022-11-23T14:54:09.000Z</time>
      </trkpt>
      <trkpt lat="43.58347" lon="6.44534">
        <ele>596.6</ele>
        <time>2022-11-23T14:54:13.000Z</time>
      </trkpt>
      <trkpt lat="43.58352" lon="6.44536">
        <ele>596.5</ele>
        <time>2022-11-23T14:54:16.000Z</time>
      </trkpt>
      <trkpt lat="43.58357" lon="6.44539">
        <ele>595.5</ele>
        <time>2022-11-23T14:54:20.000Z</time>
      </trkpt>
      <trkpt lat="43.58362" lon="6.44541">
        <ele>595</ele>
        <time>2022-11-23T14:54:23.000Z</time>
      </trkpt>
      <trkpt lat="43.58367" lon="6.44543">
        <ele>593.7</ele>
        <time>2022-11-23T14:54:27.000Z</time>
      </trkpt>
      <trkpt lat="43.58371" lon="6.44548">
        <ele>592.6</ele>
        <time>2022-11-23T14:54:32.000Z</time>
      </trkpt>
      <trkpt lat="43.58374" lon="6.44552">
        <ele>592.9</ele>
        <time>2022-11-23T14:54:36.000Z</time>
      </trkpt>
      <trkpt lat="43.58378" lon="6.44555">
        <ele>593.2</ele>
        <time>2022-11-23T14:54:40.000Z</time>
      </trkpt>
      <trkpt lat="43.58383" lon="6.44559">
        <ele>593.8</ele>
        <time>2022-11-23T14:54:45.000Z</time>
      </trkpt>
      <trkpt lat="43.58386" lon="6.44563">
        <ele>593.1</ele>
        <time>2022-11-23T14:54:49.000Z</time>
      </trkpt>
      <trkpt lat="43.5839" lon="6.44568">
        <ele>592.8</ele>
        <time>2022-11-23T14:54:53.000Z</time>
      </trkpt>
      <trkpt lat="43.58393" lon="6.44573">
        <ele>591.5</ele>
        <time>2022-11-23T14:54:57.000Z</time>
      </trkpt>
      <trkpt lat="43.58397" lon="6.44578">
        <ele>591.4</ele>
        <time>2022-11-23T14:55:01.000Z</time>
      </trkpt>
      <trkpt lat="43.58401" lon="6.44581">
        <ele>591.4</ele>
        <time>2022-11-23T14:55:05.000Z</time>
      </trkpt>
      <trkpt lat="43.58404" lon="6.44586">
        <ele>591.4</ele>
        <time>2022-11-23T14:55:10.000Z</time>
      </trkpt>
      <trkpt lat="43.58408" lon="6.4459">
        <ele>592.7</ele>
        <time>2022-11-23T14:55:15.000Z</time>
      </trkpt>
      <trkpt lat="43.58413" lon="6.44596">
        <ele>591.9</ele>
        <time>2022-11-23T14:55:20.000Z</time>
      </trkpt>
      <trkpt lat="43.58416" lon="6.44601">
        <ele>592</ele>
        <time>2022-11-23T14:55:24.000Z</time>
      </trkpt>
      <trkpt lat="43.58419" lon="6.44606">
        <ele>592.3</ele>
        <time>2022-11-23T14:55:27.000Z</time>
      </trkpt>
      <trkpt lat="43.58422" lon="6.44612">
        <ele>591.1</ele>
        <time>2022-11-23T14:55:31.000Z</time>
      </trkpt>
      <trkpt lat="43.58425" lon="6.44618">
        <ele>591.1</ele>
        <time>2022-11-23T14:55:35.000Z</time>
      </trkpt>
      <trkpt lat="43.58429" lon="6.44623">
        <ele>591.6</ele>
        <time>2022-11-23T14:55:39.000Z</time>
      </trkpt>
      <trkpt lat="43.58432" lon="6.44627">
        <ele>589.4</ele>
        <time>2022-11-23T14:55:43.000Z</time>
      </trkpt>
      <trkpt lat="43.58436" lon="6.44631">
        <ele>590.1</ele>
        <time>2022-11-23T14:55:47.000Z</time>
      </trkpt>
      <trkpt lat="43.58438" lon="6.44638">
        <ele>591.3</ele>
        <time>2022-11-23T14:55:52.000Z</time>
      </trkpt>
      <trkpt lat="43.5844" lon="6.44644">
        <ele>590.3</ele>
        <time>2022-11-23T14:55:56.000Z</time>
      </trkpt>
      <trkpt lat="43.58444" lon="6.44649">
        <ele>590.4</ele>
        <time>2022-11-23T14:56:01.000Z</time>
      </trkpt>
      <trkpt lat="43.58447" lon="6.44653">
        <ele>591.5</ele>
        <time>2022-11-23T14:56:05.000Z</time>
      </trkpt>
      <trkpt lat="43.58451" lon="6.44657">
        <ele>590.2</ele>
        <time>2022-11-23T14:56:09.000Z</time>
      </trkpt>
      <trkpt lat="43.58455" lon="6.44663">
        <ele>590.7</ele>
        <time>2022-11-23T14:56:14.000Z</time>
      </trkpt>
      <trkpt lat="43.58459" lon="6.44667">
        <ele>589</ele>
        <time>2022-11-23T14:56:19.000Z</time>
      </trkpt>
      <trkpt lat="43.58463" lon="6.44672">
        <ele>590.9</ele>
        <time>2022-11-23T14:56:24.000Z</time>
      </trkpt>
      <trkpt lat="43.58466" lon="6.44677">
        <ele>590.1</ele>
        <time>2022-11-23T14:56:28.000Z</time>
      </trkpt>
      <trkpt lat="43.58469" lon="6.44683">
        <ele>591.8</ele>
        <time>2022-11-23T14:56:32.000Z</time>
      </trkpt>
      <trkpt lat="43.58472" lon="6.44688">
        <ele>590.3</ele>
        <time>2022-11-23T14:56:36.000Z</time>
      </trkpt>
      <trkpt lat="43.58473" lon="6.44696">
        <ele>592</ele>
        <time>2022-11-23T14:56:40.000Z</time>
      </trkpt>
      <trkpt lat="43.58477" lon="6.447">
        <ele>591.1</ele>
        <time>2022-11-23T14:56:44.000Z</time>
      </trkpt>
      <trkpt lat="43.58478" lon="6.44707">
        <ele>591.5</ele>
        <time>2022-11-23T14:56:49.000Z</time>
      </trkpt>
      <trkpt lat="43.58481" lon="6.44712">
        <ele>592.7</ele>
        <time>2022-11-23T14:56:53.000Z</time>
      </trkpt>
      <trkpt lat="43.58487" lon="6.44716">
        <ele>590.8</ele>
        <time>2022-11-23T14:56:58.000Z</time>
      </trkpt>
      <trkpt lat="43.58491" lon="6.4472">
        <ele>592.6</ele>
        <time>2022-11-23T14:57:02.000Z</time>
      </trkpt>
      <trkpt lat="43.58495" lon="6.44722">
        <ele>592.5</ele>
        <time>2022-11-23T14:57:07.000Z</time>
      </trkpt>
      <trkpt lat="43.58498" lon="6.44728">
        <ele>590.7</ele>
        <time>2022-11-23T14:57:11.000Z</time>
      </trkpt>
      <trkpt lat="43.58502" lon="6.44734">
        <ele>591</ele>
        <time>2022-11-23T14:57:15.000Z</time>
      </trkpt>
      <trkpt lat="43.58503" lon="6.4474">
        <ele>592.8</ele>
        <time>2022-11-23T14:57:19.000Z</time>
      </trkpt>
      <trkpt lat="43.58506" lon="6.44745">
        <ele>593.5</ele>
        <time>2022-11-23T14:57:23.000Z</time>
      </trkpt>
      <trkpt lat="43.58507" lon="6.44752">
        <ele>591.5</ele>
        <time>2022-11-23T14:57:28.000Z</time>
      </trkpt>
      <trkpt lat="43.58511" lon="6.44753">
        <ele>593.2</ele>
        <time>2022-11-23T14:57:32.000Z</time>
      </trkpt>
      <trkpt lat="43.58515" lon="6.44758">
        <ele>592.4</ele>
        <time>2022-11-23T14:57:37.000Z</time>
      </trkpt>
      <trkpt lat="43.58519" lon="6.44762">
        <ele>591.7</ele>
        <time>2022-11-23T14:57:40.000Z</time>
      </trkpt>
      <trkpt lat="43.58523" lon="6.44766">
        <ele>592.5</ele>
        <time>2022-11-23T14:57:44.000Z</time>
      </trkpt>
      <trkpt lat="43.58527" lon="6.4477">
        <ele>592.2</ele>
        <time>2022-11-23T14:57:49.000Z</time>
      </trkpt>
      <trkpt lat="43.5853" lon="6.44776">
        <ele>592.4</ele>
        <time>2022-11-23T14:57:54.000Z</time>
      </trkpt>
      <trkpt lat="43.58534" lon="6.44781">
        <ele>594</ele>
        <time>2022-11-23T14:57:58.000Z</time>
      </trkpt>
      <trkpt lat="43.58537" lon="6.44786">
        <ele>591.5</ele>
        <time>2022-11-23T14:58:02.000Z</time>
      </trkpt>
      <trkpt lat="43.58538" lon="6.44794">
        <ele>592.8</ele>
        <time>2022-11-23T14:58:07.000Z</time>
      </trkpt>
      <trkpt lat="43.58539" lon="6.44801">
        <ele>594.2</ele>
        <time>2022-11-23T14:58:10.000Z</time>
      </trkpt>
      <trkpt lat="43.58539" lon="6.44809">
        <ele>592.5</ele>
        <time>2022-11-23T14:58:13.000Z</time>
      </trkpt>
      <trkpt lat="43.58539" lon="6.44816">
        <ele>591.6</ele>
        <time>2022-11-23T14:58:17.000Z</time>
      </trkpt>
      <trkpt lat="43.58543" lon="6.44821">
        <ele>594</ele>
        <time>2022-11-23T14:58:21.000Z</time>
      </trkpt>
      <trkpt lat="43.58548" lon="6.44825">
        <ele>595.4</ele>
        <time>2022-11-23T14:58:25.000Z</time>
      </trkpt>
      <trkpt lat="43.58551" lon="6.44829">
        <ele>594.6</ele>
        <time>2022-11-23T14:58:28.000Z</time>
      </trkpt>
      <trkpt lat="43.58556" lon="6.44833">
        <ele>593.3</ele>
        <time>2022-11-23T14:58:32.000Z</time>
      </trkpt>
      <trkpt lat="43.5856" lon="6.44835">
        <ele>592.8</ele>
        <time>2022-11-23T14:58:35.000Z</time>
      </trkpt>
      <trkpt lat="43.58565" lon="6.4484">
        <ele>594.1</ele>
        <time>2022-11-23T14:58:39.000Z</time>
      </trkpt>
      <trkpt lat="43.5857" lon="6.44842">
        <ele>594.9</ele>
        <time>2022-11-23T14:58:43.000Z</time>
      </trkpt>
      <trkpt lat="43.58575" lon="6.44844">
        <ele>594.1</ele>
        <time>2022-11-23T14:58:46.000Z</time>
      </trkpt>
      <trkpt lat="43.5858" lon="6.44844">
        <ele>592.4</ele>
        <time>2022-11-23T14:58:49.000Z</time>
      </trkpt>
      <trkpt lat="43.58585" lon="6.44847">
        <ele>592.5</ele>
        <time>2022-11-23T14:58:53.000Z</time>
      </trkpt>
      <trkpt lat="43.5859" lon="6.44848">
        <ele>593.8</ele>
        <time>2022-11-23T14:58:56.000Z</time>
      </trkpt>
      <trkpt lat="43.58595" lon="6.44851">
        <ele>594.7</ele>
        <time>2022-11-23T14:59:00.000Z</time>
      </trkpt>
      <trkpt lat="43.586" lon="6.44853">
        <ele>593.4</ele>
        <time>2022-11-23T14:59:03.000Z</time>
      </trkpt>
      <trkpt lat="43.58606" lon="6.44854">
        <ele>592</ele>
        <time>2022-11-23T14:59:06.000Z</time>
      </trkpt>
      <trkpt lat="43.58611" lon="6.44856">
        <ele>592</ele>
        <time>2022-11-23T14:59:09.000Z</time>
      </trkpt>
      <trkpt lat="43.58616" lon="6.44859">
        <ele>593.2</ele>
        <time>2022-11-23T14:59:13.000Z</time>
      </trkpt>
      <trkpt lat="43.58621" lon="6.44864">
        <ele>593.9</ele>
        <time>2022-11-23T14:59:19.000Z</time>
      </trkpt>
      <trkpt lat="43.58626" lon="6.44866">
        <ele>592.5</ele>
        <time>2022-11-23T14:59:24.000Z</time>
      </trkpt>
      <trkpt lat="43.58631" lon="6.44868">
        <ele>592.6</ele>
        <time>2022-11-23T14:59:28.000Z</time>
      </trkpt>
      <trkpt lat="43.58635" lon="6.44872">
        <ele>593</ele>
        <time>2022-11-23T14:59:32.000Z</time>
      </trkpt>
      <trkpt lat="43.5864" lon="6.44873">
        <ele>592.8</ele>
        <time>2022-11-23T14:59:36.000Z</time>
      </trkpt>
      <trkpt lat="43.58644" lon="6.44876">
        <ele>591.8</ele>
        <time>2022-11-23T14:59:40.000Z</time>
      </trkpt>
      <trkpt lat="43.58648" lon="6.4488">
        <ele>590.4</ele>
        <time>2022-11-23T14:59:44.000Z</time>
      </trkpt>
      <trkpt lat="43.58652" lon="6.44885">
        <ele>591.8</ele>
        <time>2022-11-23T14:59:49.000Z</time>
      </trkpt>
      <trkpt lat="43.58654" lon="6.44891">
        <ele>591.4</ele>
        <time>2022-11-23T14:59:54.000Z</time>
      </trkpt>
      <trkpt lat="43.58659" lon="6.44894">
        <ele>590.1</ele>
        <time>2022-11-23T14:59:58.000Z</time>
      </trkpt>
      <trkpt lat="43.58664" lon="6.44898">
        <ele>590.9</ele>
        <time>2022-11-23T15:00:02.000Z</time>
      </trkpt>
      <trkpt lat="43.58668" lon="6.449">
        <ele>591.3</ele>
        <time>2022-11-23T15:00:05.000Z</time>
      </trkpt>
      <trkpt lat="43.58674" lon="6.44903">
        <ele>590.4</ele>
        <time>2022-11-23T15:00:09.000Z</time>
      </trkpt>
      <trkpt lat="43.58678" lon="6.44906">
        <ele>589.5</ele>
        <time>2022-11-23T15:00:12.000Z</time>
      </trkpt>
      <trkpt lat="43.58683" lon="6.4491">
        <ele>590.4</ele>
        <time>2022-11-23T15:00:16.000Z</time>
      </trkpt>
      <trkpt lat="43.58688" lon="6.44914">
        <ele>590.8</ele>
        <time>2022-11-23T15:00:20.000Z</time>
      </trkpt>
      <trkpt lat="43.58693" lon="6.44917">
        <ele>591.3</ele>
        <time>2022-11-23T15:00:24.000Z</time>
      </trkpt>
      <trkpt lat="43.58698" lon="6.44918">
        <ele>591.7</ele>
        <time>2022-11-23T15:00:28.000Z</time>
      </trkpt>
      <trkpt lat="43.58702" lon="6.44922">
        <ele>590.2</ele>
        <time>2022-11-23T15:00:34.000Z</time>
      </trkpt>
      <trkpt lat="43.58707" lon="6.44927">
        <ele>589.2</ele>
        <time>2022-11-23T15:00:39.000Z</time>
      </trkpt>
      <trkpt lat="43.58712" lon="6.4493">
        <ele>589.2</ele>
        <time>2022-11-23T15:00:42.000Z</time>
      </trkpt>
      <trkpt lat="43.58716" lon="6.44934">
        <ele>589</ele>
        <time>2022-11-23T15:00:46.000Z</time>
      </trkpt>
      <trkpt lat="43.58721" lon="6.44938">
        <ele>589.6</ele>
        <time>2022-11-23T15:00:51.000Z</time>
      </trkpt>
      <trkpt lat="43.58725" lon="6.44942">
        <ele>589.5</ele>
        <time>2022-11-23T15:00:55.000Z</time>
      </trkpt>
      <trkpt lat="43.58729" lon="6.44948">
        <ele>589.2</ele>
        <time>2022-11-23T15:00:59.000Z</time>
      </trkpt>
      <trkpt lat="43.58734" lon="6.4495">
        <ele>588.7</ele>
        <time>2022-11-23T15:01:02.000Z</time>
      </trkpt>
      <trkpt lat="43.58737" lon="6.44956">
        <ele>588.6</ele>
        <time>2022-11-23T15:01:06.000Z</time>
      </trkpt>
      <trkpt lat="43.5874" lon="6.44961">
        <ele>587.4</ele>
        <time>2022-11-23T15:01:10.000Z</time>
      </trkpt>
      <trkpt lat="43.58741" lon="6.44969">
        <ele>587.3</ele>
        <time>2022-11-23T15:01:15.000Z</time>
      </trkpt>
      <trkpt lat="43.58744" lon="6.44976">
        <ele>587</ele>
        <time>2022-11-23T15:01:19.000Z</time>
      </trkpt>
      <trkpt lat="43.58746" lon="6.44982">
        <ele>586.1</ele>
        <time>2022-11-23T15:01:23.000Z</time>
      </trkpt>
      <trkpt lat="43.58748" lon="6.44988">
        <ele>584.9</ele>
        <time>2022-11-23T15:01:28.000Z</time>
      </trkpt>
      <trkpt lat="43.58751" lon="6.44993">
        <ele>586.3</ele>
        <time>2022-11-23T15:01:33.000Z</time>
      </trkpt>
      <trkpt lat="43.58755" lon="6.44998">
        <ele>586.1</ele>
        <time>2022-11-23T15:01:37.000Z</time>
      </trkpt>
      <trkpt lat="43.58756" lon="6.45005">
        <ele>585.1</ele>
        <time>2022-11-23T15:01:41.000Z</time>
      </trkpt>
      <trkpt lat="43.58757" lon="6.45012">
        <ele>584.8</ele>
        <time>2022-11-23T15:01:45.000Z</time>
      </trkpt>
      <trkpt lat="43.58756" lon="6.45018">
        <ele>584.2</ele>
        <time>2022-11-23T15:01:49.000Z</time>
      </trkpt>
      <trkpt lat="43.58755" lon="6.45025">
        <ele>583.9</ele>
        <time>2022-11-23T15:01:53.000Z</time>
      </trkpt>
      <trkpt lat="43.58754" lon="6.45032">
        <ele>583.8</ele>
        <time>2022-11-23T15:01:58.000Z</time>
      </trkpt>
      <trkpt lat="43.58754" lon="6.45039">
        <ele>583.1</ele>
        <time>2022-11-23T15:02:02.000Z</time>
      </trkpt>
      <trkpt lat="43.58756" lon="6.45044">
        <ele>582.1</ele>
        <time>2022-11-23T15:02:06.000Z</time>
      </trkpt>
      <trkpt lat="43.5876" lon="6.4505">
        <ele>581.5</ele>
        <time>2022-11-23T15:02:10.000Z</time>
      </trkpt>
      <trkpt lat="43.58765" lon="6.45051">
        <ele>581</ele>
        <time>2022-11-23T15:02:14.000Z</time>
      </trkpt>
      <trkpt lat="43.5877" lon="6.45053">
        <ele>579.6</ele>
        <time>2022-11-23T15:02:19.000Z</time>
      </trkpt>
      <trkpt lat="43.58776" lon="6.45056">
        <ele>579</ele>
        <time>2022-11-23T15:02:24.000Z</time>
      </trkpt>
      <trkpt lat="43.5878" lon="6.45058">
        <ele>578.3</ele>
        <time>2022-11-23T15:02:28.000Z</time>
      </trkpt>
      <trkpt lat="43.58786" lon="6.45061">
        <ele>577</ele>
        <time>2022-11-23T15:02:32.000Z</time>
      </trkpt>
      <trkpt lat="43.58791" lon="6.45066">
        <ele>576.2</ele>
        <time>2022-11-23T15:02:36.000Z</time>
      </trkpt>
      <trkpt lat="43.58796" lon="6.45069">
        <ele>575.6</ele>
        <time>2022-11-23T15:02:41.000Z</time>
      </trkpt>
      <trkpt lat="43.58801" lon="6.45072">
        <ele>575</ele>
        <time>2022-11-23T15:02:45.000Z</time>
      </trkpt>
      <trkpt lat="43.58805" lon="6.45076">
        <ele>574.6</ele>
        <time>2022-11-23T15:02:48.000Z</time>
      </trkpt>
      <trkpt lat="43.58809" lon="6.4508">
        <ele>574.4</ele>
        <time>2022-11-23T15:02:52.000Z</time>
      </trkpt>
      <trkpt lat="43.58811" lon="6.45087">
        <ele>574.3</ele>
        <time>2022-11-23T15:02:57.000Z</time>
      </trkpt>
      <trkpt lat="43.58815" lon="6.45091">
        <ele>574</ele>
        <time>2022-11-23T15:03:01.000Z</time>
      </trkpt>
      <trkpt lat="43.58819" lon="6.45096">
        <ele>573.3</ele>
        <time>2022-11-23T15:03:05.000Z</time>
      </trkpt>
      <trkpt lat="43.58823" lon="6.45099">
        <ele>572.9</ele>
        <time>2022-11-23T15:03:09.000Z</time>
      </trkpt>
      <trkpt lat="43.58827" lon="6.45105">
        <ele>572.7</ele>
        <time>2022-11-23T15:03:13.000Z</time>
      </trkpt>
      <trkpt lat="43.58831" lon="6.45109">
        <ele>572.5</ele>
        <time>2022-11-23T15:03:16.000Z</time>
      </trkpt>
      <trkpt lat="43.58835" lon="6.45113">
        <ele>572.8</ele>
        <time>2022-11-23T15:03:19.000Z</time>
      </trkpt>
      <trkpt lat="43.5884" lon="6.45118">
        <ele>573.2</ele>
        <time>2022-11-23T15:03:23.000Z</time>
      </trkpt>
      <trkpt lat="43.58844" lon="6.45122">
        <ele>571.9</ele>
        <time>2022-11-23T15:03:27.000Z</time>
      </trkpt>
      <trkpt lat="43.58847" lon="6.45128">
        <ele>572.2</ele>
        <time>2022-11-23T15:03:31.000Z</time>
      </trkpt>
      <trkpt lat="43.58851" lon="6.45133">
        <ele>572.5</ele>
        <time>2022-11-23T15:03:36.000Z</time>
      </trkpt>
      <trkpt lat="43.58853" lon="6.4514">
        <ele>572.9</ele>
        <time>2022-11-23T15:03:40.000Z</time>
      </trkpt>
      <trkpt lat="43.58855" lon="6.45146">
        <ele>572.3</ele>
        <time>2022-11-23T15:03:44.000Z</time>
      </trkpt>
      <trkpt lat="43.5886" lon="6.4515">
        <ele>572.8</ele>
        <time>2022-11-23T15:03:49.000Z</time>
      </trkpt>
      <trkpt lat="43.58862" lon="6.45158">
        <ele>573.1</ele>
        <time>2022-11-23T15:03:53.000Z</time>
      </trkpt>
      <trkpt lat="43.58864" lon="6.45164">
        <ele>572.4</ele>
        <time>2022-11-23T15:03:58.000Z</time>
      </trkpt>
      <trkpt lat="43.58865" lon="6.45171">
        <ele>572</ele>
        <time>2022-11-23T15:04:02.000Z</time>
      </trkpt>
      <trkpt lat="43.58867" lon="6.45177">
        <ele>571.2</ele>
        <time>2022-11-23T15:04:06.000Z</time>
      </trkpt>
      <trkpt lat="43.58868" lon="6.45184">
        <ele>571.2</ele>
        <time>2022-11-23T15:04:10.000Z</time>
      </trkpt>
      <trkpt lat="43.5887" lon="6.4519">
        <ele>571.6</ele>
        <time>2022-11-23T15:04:15.000Z</time>
      </trkpt>
      <trkpt lat="43.58872" lon="6.45195">
        <ele>570.7</ele>
        <time>2022-11-23T15:04:20.000Z</time>
      </trkpt>
      <trkpt lat="43.58875" lon="6.45201">
        <ele>570</ele>
        <time>2022-11-23T15:04:28.000Z</time>
      </trkpt>
      <trkpt lat="43.58872" lon="6.45207">
        <ele>568.9</ele>
        <time>2022-11-23T15:04:47.000Z</time>
      </trkpt>
      <trkpt lat="43.58877" lon="6.45209">
        <ele>569.8</ele>
        <time>2022-11-23T15:05:09.000Z</time>
      </trkpt>
      <trkpt lat="43.58881" lon="6.45203">
        <ele>568.7</ele>
        <time>2022-11-23T15:05:21.000Z</time>
      </trkpt>
      <trkpt lat="43.58883" lon="6.45197">
        <ele>568.8</ele>
        <time>2022-11-23T15:05:26.000Z</time>
      </trkpt>
      <trkpt lat="43.58885" lon="6.45191">
        <ele>569.3</ele>
        <time>2022-11-23T15:05:32.000Z</time>
      </trkpt>
      <trkpt lat="43.58888" lon="6.45185">
        <ele>569.8</ele>
        <time>2022-11-23T15:05:38.000Z</time>
      </trkpt>
      <trkpt lat="43.5889" lon="6.45179">
        <ele>569.2</ele>
        <time>2022-11-23T15:05:42.000Z</time>
      </trkpt>
      <trkpt lat="43.58892" lon="6.45173">
        <ele>569.4</ele>
        <time>2022-11-23T15:05:48.000Z</time>
      </trkpt>
      <trkpt lat="43.58894" lon="6.45167">
        <ele>567.8</ele>
        <time>2022-11-23T15:06:05.000Z</time>
      </trkpt>
      <trkpt lat="43.58897" lon="6.45162">
        <ele>569.6</ele>
        <time>2022-11-23T15:06:15.000Z</time>
      </trkpt>
      <trkpt lat="43.589" lon="6.45155">
        <ele>569.1</ele>
        <time>2022-11-23T15:06:34.000Z</time>
      </trkpt>
      <trkpt lat="43.58901" lon="6.45149">
        <ele>569.8</ele>
        <time>2022-11-23T15:06:44.000Z</time>
      </trkpt>
      <trkpt lat="43.58903" lon="6.45143">
        <ele>569.2</ele>
        <time>2022-11-23T15:06:53.000Z</time>
      </trkpt>
      <trkpt lat="43.58902" lon="6.45136">
        <ele>570</ele>
        <time>2022-11-23T15:07:00.000Z</time>
      </trkpt>
      <trkpt lat="43.58903" lon="6.45129">
        <ele>569.8</ele>
        <time>2022-11-23T15:07:07.000Z</time>
      </trkpt>
      <trkpt lat="43.58904" lon="6.45122">
        <ele>570.9</ele>
        <time>2022-11-23T15:07:13.000Z</time>
      </trkpt>
      <trkpt lat="43.58903" lon="6.45115">
        <ele>570.1</ele>
        <time>2022-11-23T15:07:20.000Z</time>
      </trkpt>
      <trkpt lat="43.58901" lon="6.45109">
        <ele>569.9</ele>
        <time>2022-11-23T15:07:27.000Z</time>
      </trkpt>
      <trkpt lat="43.58897" lon="6.45103">
        <ele>569</ele>
        <time>2022-11-23T15:07:32.000Z</time>
      </trkpt>
      <trkpt lat="43.58896" lon="6.45096">
        <ele>569.7</ele>
        <time>2022-11-23T15:07:39.000Z</time>
      </trkpt>
      <trkpt lat="43.58899" lon="6.45089">
        <ele>569.8</ele>
        <time>2022-11-23T15:07:45.000Z</time>
      </trkpt>
      <trkpt lat="43.58897" lon="6.45082">
        <ele>569.6</ele>
        <time>2022-11-23T15:07:50.000Z</time>
      </trkpt>
      <trkpt lat="43.58898" lon="6.45075">
        <ele>568.9</ele>
        <time>2022-11-23T15:07:55.000Z</time>
      </trkpt>
      <trkpt lat="43.589" lon="6.45069">
        <ele>569.4</ele>
        <time>2022-11-23T15:07:59.000Z</time>
      </trkpt>
      <trkpt lat="43.58904" lon="6.45062">
        <ele>569</ele>
        <time>2022-11-23T15:08:04.000Z</time>
      </trkpt>
      <trkpt lat="43.58906" lon="6.45056">
        <ele>568.3</ele>
        <time>2022-11-23T15:08:08.000Z</time>
      </trkpt>
      <trkpt lat="43.58908" lon="6.4505">
        <ele>568.9</ele>
        <time>2022-11-23T15:08:12.000Z</time>
      </trkpt>
      <trkpt lat="43.58909" lon="6.45043">
        <ele>569.5</ele>
        <time>2022-11-23T15:08:17.000Z</time>
      </trkpt>
      <trkpt lat="43.5891" lon="6.45036">
        <ele>568.5</ele>
        <time>2022-11-23T15:08:22.000Z</time>
      </trkpt>
      <trkpt lat="43.58911" lon="6.45029">
        <ele>569.4</ele>
        <time>2022-11-23T15:08:26.000Z</time>
      </trkpt>
      <trkpt lat="43.58911" lon="6.45022">
        <ele>568.3</ele>
        <time>2022-11-23T15:08:32.000Z</time>
      </trkpt>
      <trkpt lat="43.58911" lon="6.45016">
        <ele>568.7</ele>
        <time>2022-11-23T15:08:37.000Z</time>
      </trkpt>
      <trkpt lat="43.58911" lon="6.45009">
        <ele>568.5</ele>
        <time>2022-11-23T15:08:45.000Z</time>
      </trkpt>
      <trkpt lat="43.58914" lon="6.45002">
        <ele>567.1</ele>
        <time>2022-11-23T15:08:50.000Z</time>
      </trkpt>
      <trkpt lat="43.58916" lon="6.44996">
        <ele>568.1</ele>
        <time>2022-11-23T15:08:54.000Z</time>
      </trkpt>
      <trkpt lat="43.58919" lon="6.44989">
        <ele>570.3</ele>
        <time>2022-11-23T15:08:59.000Z</time>
      </trkpt>
      <trkpt lat="43.5892" lon="6.44983">
        <ele>570.8</ele>
        <time>2022-11-23T15:09:03.000Z</time>
      </trkpt>
      <trkpt lat="43.58924" lon="6.44978">
        <ele>570.4</ele>
        <time>2022-11-23T15:09:08.000Z</time>
      </trkpt>
      <trkpt lat="43.58927" lon="6.44972">
        <ele>570.2</ele>
        <time>2022-11-23T15:09:13.000Z</time>
      </trkpt>
      <trkpt lat="43.58931" lon="6.44967">
        <ele>570</ele>
        <time>2022-11-23T15:09:18.000Z</time>
      </trkpt>
      <trkpt lat="43.58932" lon="6.44961">
        <ele>570.7</ele>
        <time>2022-11-23T15:09:24.000Z</time>
      </trkpt>
      <trkpt lat="43.58936" lon="6.44958">
        <ele>571.7</ele>
        <time>2022-11-23T15:09:29.000Z</time>
      </trkpt>
      <trkpt lat="43.5894" lon="6.44953">
        <ele>571.9</ele>
        <time>2022-11-23T15:09:35.000Z</time>
      </trkpt>
      <trkpt lat="43.58944" lon="6.44949">
        <ele>572</ele>
        <time>2022-11-23T15:09:39.000Z</time>
      </trkpt>
      <trkpt lat="43.58949" lon="6.44947">
        <ele>572.4</ele>
        <time>2022-11-23T15:09:44.000Z</time>
      </trkpt>
      <trkpt lat="43.58954" lon="6.44944">
        <ele>571.9</ele>
        <time>2022-11-23T15:09:50.000Z</time>
      </trkpt>
      <trkpt lat="43.58957" lon="6.4494">
        <ele>571.9</ele>
        <time>2022-11-23T15:09:55.000Z</time>
      </trkpt>
      <trkpt lat="43.58961" lon="6.44936">
        <ele>572.4</ele>
        <time>2022-11-23T15:09:59.000Z</time>
      </trkpt>
      <trkpt lat="43.58966" lon="6.44932">
        <ele>572</ele>
        <time>2022-11-23T15:10:03.000Z</time>
      </trkpt>
      <trkpt lat="43.58971" lon="6.44927">
        <ele>572.9</ele>
        <time>2022-11-23T15:10:08.000Z</time>
      </trkpt>
      <trkpt lat="43.58975" lon="6.44925">
        <ele>572.7</ele>
        <time>2022-11-23T15:10:12.000Z</time>
      </trkpt>
      <trkpt lat="43.5898" lon="6.44923">
        <ele>572.8</ele>
        <time>2022-11-23T15:10:18.000Z</time>
      </trkpt>
      <trkpt lat="43.58984" lon="6.44918">
        <ele>572.3</ele>
        <time>2022-11-23T15:10:53.000Z</time>
      </trkpt>
      <trkpt lat="43.58988" lon="6.44916">
        <ele>572.4</ele>
        <time>2022-11-23T15:10:57.000Z</time>
      </trkpt>
      <trkpt lat="43.58993" lon="6.44915">
        <ele>572.5</ele>
        <time>2022-11-23T15:11:02.000Z</time>
      </trkpt>
      <trkpt lat="43.58998" lon="6.44913">
        <ele>572.8</ele>
        <time>2022-11-23T15:11:07.000Z</time>
      </trkpt>
      <trkpt lat="43.59003" lon="6.44911">
        <ele>572</ele>
        <time>2022-11-23T15:11:12.000Z</time>
      </trkpt>
      <trkpt lat="43.59006" lon="6.44907">
        <ele>573.2</ele>
        <time>2022-11-23T15:11:16.000Z</time>
      </trkpt>
      <trkpt lat="43.59011" lon="6.44903">
        <ele>572.4</ele>
        <time>2022-11-23T15:11:20.000Z</time>
      </trkpt>
      <trkpt lat="43.59008" lon="6.44898">
        <ele>573.6</ele>
        <time>2022-11-23T15:12:36.000Z</time>
      </trkpt>
      <trkpt lat="43.59012" lon="6.44895">
        <ele>572.4</ele>
        <time>2022-11-23T15:14:10.000Z</time>
      </trkpt>
      <trkpt lat="43.59018" lon="6.44893">
        <ele>573</ele>
        <time>2022-11-23T15:14:26.000Z</time>
      </trkpt>
      <trkpt lat="43.59021" lon="6.44888">
        <ele>572.3</ele>
        <time>2022-11-23T15:14:35.000Z</time>
      </trkpt>
      <trkpt lat="43.59023" lon="6.44883">
        <ele>572.9</ele>
        <time>2022-11-23T15:14:40.000Z</time>
      </trkpt>
      <trkpt lat="43.59027" lon="6.44879">
        <ele>573.4</ele>
        <time>2022-11-23T15:14:44.000Z</time>
      </trkpt>
      <trkpt lat="43.59031" lon="6.44873">
        <ele>573.6</ele>
        <time>2022-11-23T15:14:51.000Z</time>
      </trkpt>
      <trkpt lat="43.59036" lon="6.44869">
        <ele>572.5</ele>
        <time>2022-11-23T15:14:56.000Z</time>
      </trkpt>
      <trkpt lat="43.59039" lon="6.44863">
        <ele>574.1</ele>
        <time>2022-11-23T15:15:01.000Z</time>
      </trkpt>
      <trkpt lat="43.59042" lon="6.44858">
        <ele>573.9</ele>
        <time>2022-11-23T15:15:05.000Z</time>
      </trkpt>
      <trkpt lat="43.59046" lon="6.44852">
        <ele>573.8</ele>
        <time>2022-11-23T15:15:10.000Z</time>
      </trkpt>
      <trkpt lat="43.59048" lon="6.44846">
        <ele>574.9</ele>
        <time>2022-11-23T15:15:14.000Z</time>
      </trkpt>
      <trkpt lat="43.59052" lon="6.44841">
        <ele>573.9</ele>
        <time>2022-11-23T15:15:18.000Z</time>
      </trkpt>
      <trkpt lat="43.59053" lon="6.44834">
        <ele>575.4</ele>
        <time>2022-11-23T15:15:23.000Z</time>
      </trkpt>
      <trkpt lat="43.59055" lon="6.44828">
        <ele>575.2</ele>
        <time>2022-11-23T15:15:27.000Z</time>
      </trkpt>
      <trkpt lat="43.59057" lon="6.44821">
        <ele>575.6</ele>
        <time>2022-11-23T15:15:31.000Z</time>
      </trkpt>
      <trkpt lat="43.59059" lon="6.44814">
        <ele>575.6</ele>
        <time>2022-11-23T15:15:36.000Z</time>
      </trkpt>
      <trkpt lat="43.5906" lon="6.44807">
        <ele>575</ele>
        <time>2022-11-23T15:15:40.000Z</time>
      </trkpt>
      <trkpt lat="43.5906" lon="6.448">
        <ele>578</ele>
        <time>2022-11-23T15:15:45.000Z</time>
      </trkpt>
      <trkpt lat="43.59062" lon="6.44795">
        <ele>575.8</ele>
        <time>2022-11-23T15:15:49.000Z</time>
      </trkpt>
      <trkpt lat="43.59064" lon="6.44789">
        <ele>578.3</ele>
        <time>2022-11-23T15:15:54.000Z</time>
      </trkpt>
      <trkpt lat="43.59065" lon="6.44783">
        <ele>579.3</ele>
        <time>2022-11-23T15:15:59.000Z</time>
      </trkpt>
      <trkpt lat="43.59067" lon="6.44775">
        <ele>579.6</ele>
        <time>2022-11-23T15:16:05.000Z</time>
      </trkpt>
      <trkpt lat="43.59068" lon="6.44769">
        <ele>580.8</ele>
        <time>2022-11-23T15:16:10.000Z</time>
      </trkpt>
      <trkpt lat="43.59064" lon="6.44765">
        <ele>580.8</ele>
        <time>2022-11-23T15:16:31.000Z</time>
      </trkpt>
      <trkpt lat="43.59067" lon="6.44759">
        <ele>581</ele>
        <time>2022-11-23T15:17:22.000Z</time>
      </trkpt>
      <trkpt lat="43.59071" lon="6.44755">
        <ele>581.9</ele>
        <time>2022-11-23T15:17:28.000Z</time>
      </trkpt>
      <trkpt lat="43.59074" lon="6.44749">
        <ele>582.1</ele>
        <time>2022-11-23T15:17:31.000Z</time>
      </trkpt>
      <trkpt lat="43.59077" lon="6.44744">
        <ele>581</ele>
        <time>2022-11-23T15:17:34.000Z</time>
      </trkpt>
      <trkpt lat="43.59079" lon="6.44738">
        <ele>581.6</ele>
        <time>2022-11-23T15:17:38.000Z</time>
      </trkpt>
      <trkpt lat="43.59081" lon="6.44732">
        <ele>581.7</ele>
        <time>2022-11-23T15:17:42.000Z</time>
      </trkpt>
      <trkpt lat="43.59084" lon="6.44725">
        <ele>582.7</ele>
        <time>2022-11-23T15:17:47.000Z</time>
      </trkpt>
      <trkpt lat="43.59087" lon="6.44719">
        <ele>583</ele>
        <time>2022-11-23T15:17:52.000Z</time>
      </trkpt>
      <trkpt lat="43.59089" lon="6.44713">
        <ele>584</ele>
        <time>2022-11-23T15:17:56.000Z</time>
      </trkpt>
      <trkpt lat="43.59091" lon="6.44706">
        <ele>584.7</ele>
        <time>2022-11-23T15:18:02.000Z</time>
      </trkpt>
      <trkpt lat="43.59092" lon="6.44698">
        <ele>586.4</ele>
        <time>2022-11-23T15:18:07.000Z</time>
      </trkpt>
      <trkpt lat="43.59094" lon="6.44693">
        <ele>585.5</ele>
        <time>2022-11-23T15:18:11.000Z</time>
      </trkpt>
      <trkpt lat="43.59094" lon="6.44687">
        <ele>587.5</ele>
        <time>2022-11-23T15:18:15.000Z</time>
      </trkpt>
      <trkpt lat="43.59094" lon="6.4468">
        <ele>587.1</ele>
        <time>2022-11-23T15:18:19.000Z</time>
      </trkpt>
      <trkpt lat="43.59096" lon="6.44672">
        <ele>589.1</ele>
        <time>2022-11-23T15:18:24.000Z</time>
      </trkpt>
      <trkpt lat="43.59097" lon="6.44665">
        <ele>588.6</ele>
        <time>2022-11-23T15:18:28.000Z</time>
      </trkpt>
      <trkpt lat="43.59095" lon="6.44659">
        <ele>590.3</ele>
        <time>2022-11-23T15:18:33.000Z</time>
      </trkpt>
      <trkpt lat="43.59092" lon="6.44654">
        <ele>590.5</ele>
        <time>2022-11-23T15:18:47.000Z</time>
      </trkpt>
      <trkpt lat="43.59092" lon="6.44647">
        <ele>591.2</ele>
        <time>2022-11-23T15:18:51.000Z</time>
      </trkpt>
      <trkpt lat="43.59092" lon="6.44641">
        <ele>590.5</ele>
        <time>2022-11-23T15:18:55.000Z</time>
      </trkpt>
      <trkpt lat="43.59094" lon="6.44635">
        <ele>590.1</ele>
        <time>2022-11-23T15:18:59.000Z</time>
      </trkpt>
      <trkpt lat="43.59094" lon="6.44628">
        <ele>590.4</ele>
        <time>2022-11-23T15:19:03.000Z</time>
      </trkpt>
      <trkpt lat="43.59096" lon="6.44622">
        <ele>590.8</ele>
        <time>2022-11-23T15:19:07.000Z</time>
      </trkpt>
      <trkpt lat="43.59099" lon="6.44615">
        <ele>590.5</ele>
        <time>2022-11-23T15:19:11.000Z</time>
      </trkpt>
      <trkpt lat="43.59101" lon="6.4461">
        <ele>589.9</ele>
        <time>2022-11-23T15:19:14.000Z</time>
      </trkpt>
      <trkpt lat="43.59104" lon="6.44603">
        <ele>589.3</ele>
        <time>2022-11-23T15:19:18.000Z</time>
      </trkpt>
      <trkpt lat="43.59106" lon="6.44598">
        <ele>589.9</ele>
        <time>2022-11-23T15:19:22.000Z</time>
      </trkpt>
      <trkpt lat="43.59107" lon="6.44591">
        <ele>590.2</ele>
        <time>2022-11-23T15:19:26.000Z</time>
      </trkpt>
      <trkpt lat="43.5911" lon="6.44586">
        <ele>589.1</ele>
        <time>2022-11-23T15:19:31.000Z</time>
      </trkpt>
      <trkpt lat="43.59113" lon="6.4458">
        <ele>590.5</ele>
        <time>2022-11-23T15:19:35.000Z</time>
      </trkpt>
      <trkpt lat="43.59115" lon="6.44573">
        <ele>591.6</ele>
        <time>2022-11-23T15:19:40.000Z</time>
      </trkpt>
      <trkpt lat="43.59115" lon="6.44567">
        <ele>592.2</ele>
        <time>2022-11-23T15:19:44.000Z</time>
      </trkpt>
      <trkpt lat="43.59119" lon="6.44564">
        <ele>591.9</ele>
        <time>2022-11-23T15:19:47.000Z</time>
      </trkpt>
      <trkpt lat="43.59122" lon="6.4456">
        <ele>592.8</ele>
        <time>2022-11-23T15:19:51.000Z</time>
      </trkpt>
      <trkpt lat="43.59126" lon="6.44556">
        <ele>593.6</ele>
        <time>2022-11-23T15:19:55.000Z</time>
      </trkpt>
      <trkpt lat="43.5913" lon="6.44551">
        <ele>592.9</ele>
        <time>2022-11-23T15:19:59.000Z</time>
      </trkpt>
      <trkpt lat="43.59135" lon="6.44547">
        <ele>593.4</ele>
        <time>2022-11-23T15:20:03.000Z</time>
      </trkpt>
      <trkpt lat="43.59138" lon="6.44543">
        <ele>594.3</ele>
        <time>2022-11-23T15:20:08.000Z</time>
      </trkpt>
      <trkpt lat="43.59141" lon="6.44535">
        <ele>592.8</ele>
        <time>2022-11-23T15:20:13.000Z</time>
      </trkpt>
      <trkpt lat="43.59147" lon="6.44532">
        <ele>591.9</ele>
        <time>2022-11-23T15:20:16.000Z</time>
      </trkpt>
      <trkpt lat="43.5915" lon="6.44527">
        <ele>594.4</ele>
        <time>2022-11-23T15:20:20.000Z</time>
      </trkpt>
      <trkpt lat="43.59153" lon="6.44521">
        <ele>594.5</ele>
        <time>2022-11-23T15:20:24.000Z</time>
      </trkpt>
      <trkpt lat="43.59157" lon="6.44518">
        <ele>594.1</ele>
        <time>2022-11-23T15:20:30.000Z</time>
      </trkpt>
      <trkpt lat="43.59161" lon="6.44517">
        <ele>594.4</ele>
        <time>2022-11-23T15:20:37.000Z</time>
      </trkpt>
      <trkpt lat="43.59161" lon="6.44523">
        <ele>590.7</ele>
        <time>2022-11-23T15:22:37.000Z</time>
      </trkpt>
      <trkpt lat="43.59159" lon="6.44529">
        <ele>590</ele>
        <time>2022-11-23T15:22:44.000Z</time>
      </trkpt>
      <trkpt lat="43.59155" lon="6.44533">
        <ele>589.3</ele>
        <time>2022-11-23T15:23:07.000Z</time>
      </trkpt>
      <trkpt lat="43.5916" lon="6.44534">
        <ele>588.2</ele>
        <time>2022-11-23T15:23:51.000Z</time>
      </trkpt>
      <trkpt lat="43.59157" lon="6.44539">
        <ele>588.3</ele>
        <time>2022-11-23T15:24:10.000Z</time>
      </trkpt>
      <trkpt lat="43.59155" lon="6.44546">
        <ele>586.7</ele>
        <time>2022-11-23T15:24:16.000Z</time>
      </trkpt>
      <trkpt lat="43.59155" lon="6.44553">
        <ele>586.3</ele>
        <time>2022-11-23T15:24:22.000Z</time>
      </trkpt>
      <trkpt lat="43.59159" lon="6.44557">
        <ele>583.3</ele>
        <time>2022-11-23T15:24:31.000Z</time>
      </trkpt>
      <trkpt lat="43.59159" lon="6.44565">
        <ele>581.3</ele>
        <time>2022-11-23T15:24:42.000Z</time>
      </trkpt>
      <trkpt lat="43.59156" lon="6.44571">
        <ele>580.7</ele>
        <time>2022-11-23T15:24:50.000Z</time>
      </trkpt>
      <trkpt lat="43.59153" lon="6.44578">
        <ele>579.8</ele>
        <time>2022-11-23T15:24:57.000Z</time>
      </trkpt>
      <trkpt lat="43.59152" lon="6.44585">
        <ele>578.7</ele>
        <time>2022-11-23T15:25:05.000Z</time>
      </trkpt>
      <trkpt lat="43.59157" lon="6.44587">
        <ele>577.8</ele>
        <time>2022-11-23T15:25:13.000Z</time>
      </trkpt>
      <trkpt lat="43.59161" lon="6.44592">
        <ele>574.6</ele>
        <time>2022-11-23T15:25:24.000Z</time>
      </trkpt>
      <trkpt lat="43.59166" lon="6.44595">
        <ele>574.8</ele>
        <time>2022-11-23T15:25:29.000Z</time>
      </trkpt>
      <trkpt lat="43.59169" lon="6.446">
        <ele>573.5</ele>
        <time>2022-11-23T15:25:34.000Z</time>
      </trkpt>
      <trkpt lat="43.5917" lon="6.44606">
        <ele>573</ele>
        <time>2022-11-23T15:25:44.000Z</time>
      </trkpt>
      <trkpt lat="43.59173" lon="6.44611">
        <ele>572</ele>
        <time>2022-11-23T15:25:50.000Z</time>
      </trkpt>
      <trkpt lat="43.59176" lon="6.44616">
        <ele>570.6</ele>
        <time>2022-11-23T15:25:55.000Z</time>
      </trkpt>
      <trkpt lat="43.5918" lon="6.4462">
        <ele>569.2</ele>
        <time>2022-11-23T15:26:01.000Z</time>
      </trkpt>
      <trkpt lat="43.59183" lon="6.44625">
        <ele>567.8</ele>
        <time>2022-11-23T15:26:09.000Z</time>
      </trkpt>
      <trkpt lat="43.59187" lon="6.44629">
        <ele>567</ele>
        <time>2022-11-23T15:26:16.000Z</time>
      </trkpt>
      <trkpt lat="43.5919" lon="6.44635">
        <ele>565.8</ele>
        <time>2022-11-23T15:26:22.000Z</time>
      </trkpt>
      <trkpt lat="43.59193" lon="6.44641">
        <ele>564.6</ele>
        <time>2022-11-23T15:26:28.000Z</time>
      </trkpt>
      <trkpt lat="43.59195" lon="6.44647">
        <ele>562.8</ele>
        <time>2022-11-23T15:26:34.000Z</time>
      </trkpt>
      <trkpt lat="43.592" lon="6.44648">
        <ele>561.5</ele>
        <time>2022-11-23T15:26:43.000Z</time>
      </trkpt>
      <trkpt lat="43.59203" lon="6.44644">
        <ele>559.1</ele>
        <time>2022-11-23T15:26:50.000Z</time>
      </trkpt>
      <trkpt lat="43.59206" lon="6.44638">
        <ele>558</ele>
        <time>2022-11-23T15:26:56.000Z</time>
      </trkpt>
      <trkpt lat="43.59206" lon="6.44632">
        <ele>556.2</ele>
        <time>2022-11-23T15:27:03.000Z</time>
      </trkpt>
      <trkpt lat="43.59208" lon="6.44626">
        <ele>556.1</ele>
        <time>2022-11-23T15:27:10.000Z</time>
      </trkpt>
      <trkpt lat="43.59209" lon="6.4462">
        <ele>554.5</ele>
        <time>2022-11-23T15:27:16.000Z</time>
      </trkpt>
      <trkpt lat="43.59208" lon="6.44614">
        <ele>552.1</ele>
        <time>2022-11-23T15:27:22.000Z</time>
      </trkpt>
      <trkpt lat="43.59205" lon="6.44608">
        <ele>552.8</ele>
        <time>2022-11-23T15:27:27.000Z</time>
      </trkpt>
      <trkpt lat="43.59206" lon="6.44602">
        <ele>551.2</ele>
        <time>2022-11-23T15:27:34.000Z</time>
      </trkpt>
      <trkpt lat="43.59206" lon="6.44596">
        <ele>550.4</ele>
        <time>2022-11-23T15:27:41.000Z</time>
      </trkpt>
      <trkpt lat="43.59209" lon="6.44591">
        <ele>549.9</ele>
        <time>2022-11-23T15:27:46.000Z</time>
      </trkpt>
      <trkpt lat="43.59213" lon="6.44596">
        <ele>547.8</ele>
        <time>2022-11-23T15:28:01.000Z</time>
      </trkpt>
      <trkpt lat="43.59214" lon="6.44602">
        <ele>545.4</ele>
        <time>2022-11-23T15:28:11.000Z</time>
      </trkpt>
      <trkpt lat="43.59214" lon="6.44608">
        <ele>543.5</ele>
        <time>2022-11-23T15:28:21.000Z</time>
      </trkpt>
      <trkpt lat="43.59219" lon="6.44607">
        <ele>542.2</ele>
        <time>2022-11-23T15:28:29.000Z</time>
      </trkpt>
      <trkpt lat="43.59223" lon="6.44602">
        <ele>541.2</ele>
        <time>2022-11-23T15:28:35.000Z</time>
      </trkpt>
      <trkpt lat="43.59226" lon="6.44597">
        <ele>540.7</ele>
        <time>2022-11-23T15:28:41.000Z</time>
      </trkpt>
      <trkpt lat="43.59229" lon="6.44591">
        <ele>540</ele>
        <time>2022-11-23T15:28:47.000Z</time>
      </trkpt>
      <trkpt lat="43.59229" lon="6.44598">
        <ele>535.7</ele>
        <time>2022-11-23T15:29:06.000Z</time>
      </trkpt>
      <trkpt lat="43.5923" lon="6.44604">
        <ele>536.1</ele>
        <time>2022-11-23T15:29:13.000Z</time>
      </trkpt>
      <trkpt lat="43.59229" lon="6.4461">
        <ele>534.5</ele>
        <time>2022-11-23T15:29:19.000Z</time>
      </trkpt>
      <trkpt lat="43.59231" lon="6.44616">
        <ele>532.9</ele>
        <time>2022-11-23T15:29:25.000Z</time>
      </trkpt>
      <trkpt lat="43.59234" lon="6.44622">
        <ele>531.2</ele>
        <time>2022-11-23T15:29:29.000Z</time>
      </trkpt>
      <trkpt lat="43.59237" lon="6.44627">
        <ele>530.5</ele>
        <time>2022-11-23T15:29:34.000Z</time>
      </trkpt>
      <trkpt lat="43.59239" lon="6.44633">
        <ele>528.7</ele>
        <time>2022-11-23T15:29:41.000Z</time>
      </trkpt>
      <trkpt lat="43.5924" lon="6.4464">
        <ele>527.6</ele>
        <time>2022-11-23T15:29:47.000Z</time>
      </trkpt>
      <trkpt lat="43.59244" lon="6.44644">
        <ele>527.4</ele>
        <time>2022-11-23T15:29:55.000Z</time>
      </trkpt>
      <trkpt lat="43.59243" lon="6.4465">
        <ele>526.8</ele>
        <time>2022-11-23T15:30:12.000Z</time>
      </trkpt>
      <trkpt lat="43.59243" lon="6.44656">
        <ele>526.1</ele>
        <time>2022-11-23T15:31:26.000Z</time>
      </trkpt>
      <trkpt lat="43.59247" lon="6.44657">
        <ele>526.1</ele>
        <time>2022-11-23T15:32:11.000Z</time>
      </trkpt>
      <trkpt lat="43.59251" lon="6.44653">
        <ele>526.6</ele>
        <time>2022-11-23T15:32:49.000Z</time>
      </trkpt>
      <trkpt lat="43.59246" lon="6.44656">
        <ele>525.4</ele>
        <time>2022-11-23T15:33:53.000Z</time>
      </trkpt>
      <trkpt lat="43.59242" lon="6.44659">
        <ele>525</ele>
        <time>2022-11-23T15:34:17.000Z</time>
      </trkpt>
      <trkpt lat="43.59245" lon="6.44655">
        <ele>525.7</ele>
        <time>2022-11-23T15:34:21.000Z</time>
      </trkpt>
      <trkpt lat="43.5924" lon="6.44652">
        <ele>525.7</ele>
        <time>2022-11-23T15:34:33.000Z</time>
      </trkpt>
      <trkpt lat="43.59244" lon="6.44654">
        <ele>525.7</ele>
        <time>2022-11-23T15:34:52.000Z</time>
      </trkpt>
      <trkpt lat="43.59243" lon="6.4466">
        <ele>524.8</ele>
        <time>2022-11-23T15:35:06.000Z</time>
      </trkpt>
      <trkpt lat="43.59248" lon="6.44663">
        <ele>524.8</ele>
        <time>2022-11-23T15:35:13.000Z</time>
      </trkpt>
      <trkpt lat="43.59254" lon="6.44656">
        <ele>523.9</ele>
        <time>2022-11-23T15:35:25.000Z</time>
      </trkpt>
      <trkpt lat="43.59257" lon="6.44652">
        <ele>523.3</ele>
        <time>2022-11-23T15:35:29.000Z</time>
      </trkpt>
      <trkpt lat="43.59258" lon="6.44645">
        <ele>522.2</ele>
        <time>2022-11-23T15:35:35.000Z</time>
      </trkpt>
      <trkpt lat="43.59257" lon="6.44639">
        <ele>521.9</ele>
        <time>2022-11-23T15:35:39.000Z</time>
      </trkpt>
      <trkpt lat="43.59262" lon="6.44634">
        <ele>520.2</ele>
        <time>2022-11-23T15:35:48.000Z</time>
      </trkpt>
      <trkpt lat="43.59258" lon="6.44639">
        <ele>520.1</ele>
        <time>2022-11-23T15:35:56.000Z</time>
      </trkpt>
      <trkpt lat="43.59262" lon="6.44643">
        <ele>518.5</ele>
        <time>2022-11-23T15:36:03.000Z</time>
      </trkpt>
      <trkpt lat="43.59267" lon="6.44647">
        <ele>516.2</ele>
        <time>2022-11-23T15:36:13.000Z</time>
      </trkpt>
      <trkpt lat="43.59269" lon="6.44653">
        <ele>515.3</ele>
        <time>2022-11-23T15:36:20.000Z</time>
      </trkpt>
      <trkpt lat="43.59266" lon="6.44659">
        <ele>514.1</ele>
        <time>2022-11-23T15:36:25.000Z</time>
      </trkpt>
      <trkpt lat="43.59271" lon="6.44665">
        <ele>513.7</ele>
        <time>2022-11-23T15:36:30.000Z</time>
      </trkpt>
      <trkpt lat="43.5927" lon="6.44672">
        <ele>512.1</ele>
        <time>2022-11-23T15:36:36.000Z</time>
      </trkpt>
      <trkpt lat="43.5927" lon="6.44679">
        <ele>511.6</ele>
        <time>2022-11-23T15:36:42.000Z</time>
      </trkpt>
      <trkpt lat="43.59273" lon="6.44685">
        <ele>511.4</ele>
        <time>2022-11-23T15:36:49.000Z</time>
      </trkpt>
      <trkpt lat="43.59277" lon="6.44689">
        <ele>511.1</ele>
        <time>2022-11-23T15:36:57.000Z</time>
      </trkpt>
      <trkpt lat="43.5928" lon="6.44694">
        <ele>510.4</ele>
        <time>2022-11-23T15:37:02.000Z</time>
      </trkpt>
      <trkpt lat="43.59283" lon="6.44699">
        <ele>509.2</ele>
        <time>2022-11-23T15:37:08.000Z</time>
      </trkpt>
      <trkpt lat="43.5928" lon="6.44704">
        <ele>507.8</ele>
        <time>2022-11-23T15:37:16.000Z</time>
      </trkpt>
      <trkpt lat="43.59278" lon="6.4471">
        <ele>506.1</ele>
        <time>2022-11-23T15:37:26.000Z</time>
      </trkpt>
      <trkpt lat="43.5928" lon="6.44716">
        <ele>506.2</ele>
        <time>2022-11-23T15:37:31.000Z</time>
      </trkpt>
      <trkpt lat="43.59282" lon="6.44721">
        <ele>505.2</ele>
        <time>2022-11-23T15:37:37.000Z</time>
      </trkpt>
      <trkpt lat="43.59286" lon="6.44724">
        <ele>504.3</ele>
        <time>2022-11-23T15:37:40.000Z</time>
      </trkpt>
      <trkpt lat="43.59291" lon="6.44727">
        <ele>503</ele>
        <time>2022-11-23T15:37:44.000Z</time>
      </trkpt>
      <trkpt lat="43.59294" lon="6.44734">
        <ele>501</ele>
        <time>2022-11-23T15:37:50.000Z</time>
      </trkpt>
      <trkpt lat="43.59294" lon="6.44741">
        <ele>500.9</ele>
        <time>2022-11-23T15:37:53.000Z</time>
      </trkpt>
      <trkpt lat="43.59296" lon="6.44747">
        <ele>499.8</ele>
        <time>2022-11-23T15:37:58.000Z</time>
      </trkpt>
      <trkpt lat="43.59299" lon="6.44753">
        <ele>498.5</ele>
        <time>2022-11-23T15:38:05.000Z</time>
      </trkpt>
      <trkpt lat="43.59301" lon="6.44759">
        <ele>498.1</ele>
        <time>2022-11-23T15:38:09.000Z</time>
      </trkpt>
      <trkpt lat="43.59304" lon="6.44764">
        <ele>496.5</ele>
        <time>2022-11-23T15:38:13.000Z</time>
      </trkpt>
      <trkpt lat="43.59304" lon="6.44771">
        <ele>495.4</ele>
        <time>2022-11-23T15:38:17.000Z</time>
      </trkpt>
      <trkpt lat="43.59303" lon="6.44777">
        <ele>495.9</ele>
        <time>2022-11-23T15:38:21.000Z</time>
      </trkpt>
      <trkpt lat="43.59301" lon="6.44783">
        <ele>494.3</ele>
        <time>2022-11-23T15:38:25.000Z</time>
      </trkpt>
      <trkpt lat="43.59298" lon="6.44789">
        <ele>494</ele>
        <time>2022-11-23T15:38:31.000Z</time>
      </trkpt>
      <trkpt lat="43.59298" lon="6.44796">
        <ele>491.8</ele>
        <time>2022-11-23T15:38:37.000Z</time>
      </trkpt>
      <trkpt lat="43.593" lon="6.44801">
        <ele>491.6</ele>
        <time>2022-11-23T15:38:43.000Z</time>
      </trkpt>
      <trkpt lat="43.59301" lon="6.44807">
        <ele>490.1</ele>
        <time>2022-11-23T15:38:51.000Z</time>
      </trkpt>
      <trkpt lat="43.59303" lon="6.44813">
        <ele>489.6</ele>
        <time>2022-11-23T15:38:56.000Z</time>
      </trkpt>
      <trkpt lat="43.59307" lon="6.44817">
        <ele>488.1</ele>
        <time>2022-11-23T15:39:04.000Z</time>
      </trkpt>
      <trkpt lat="43.59312" lon="6.44817">
        <ele>486.3</ele>
        <time>2022-11-23T15:39:10.000Z</time>
      </trkpt>
      <trkpt lat="43.59317" lon="6.44819">
        <ele>484.8</ele>
        <time>2022-11-23T15:39:14.000Z</time>
      </trkpt>
      <trkpt lat="43.59322" lon="6.44817">
        <ele>483.2</ele>
        <time>2022-11-23T15:39:22.000Z</time>
      </trkpt>
      <trkpt lat="43.59326" lon="6.44818">
        <ele>482.6</ele>
        <time>2022-11-23T15:39:27.000Z</time>
      </trkpt>
      <trkpt lat="43.59329" lon="6.44823">
        <ele>481.4</ele>
        <time>2022-11-23T15:39:36.000Z</time>
      </trkpt>
      <trkpt lat="43.59333" lon="6.44824">
        <ele>478.4</ele>
        <time>2022-11-23T15:39:48.000Z</time>
      </trkpt>
      <trkpt lat="43.59338" lon="6.44826">
        <ele>478</ele>
        <time>2022-11-23T15:40:16.000Z</time>
      </trkpt>
      <trkpt lat="43.59341" lon="6.44832">
        <ele>477.9</ele>
        <time>2022-11-23T15:40:28.000Z</time>
      </trkpt>
      <trkpt lat="43.5934" lon="6.44839">
        <ele>477.3</ele>
        <time>2022-11-23T15:40:44.000Z</time>
      </trkpt>
      <trkpt lat="43.59338" lon="6.44845">
        <ele>476.3</ele>
        <time>2022-11-23T15:40:52.000Z</time>
      </trkpt>
      <trkpt lat="43.59339" lon="6.44852">
        <ele>476</ele>
        <time>2022-11-23T15:40:57.000Z</time>
      </trkpt>
      <trkpt lat="43.59341" lon="6.44859">
        <ele>475.4</ele>
        <time>2022-11-23T15:41:02.000Z</time>
      </trkpt>
      <trkpt lat="43.59341" lon="6.44866">
        <ele>475.4</ele>
        <time>2022-11-23T15:41:07.000Z</time>
      </trkpt>
      <trkpt lat="43.59339" lon="6.44873">
        <ele>475.4</ele>
        <time>2022-11-23T15:41:11.000Z</time>
      </trkpt>
      <trkpt lat="43.59337" lon="6.44878">
        <ele>477.2</ele>
        <time>2022-11-23T15:41:25.000Z</time>
      </trkpt>
      <trkpt lat="43.59333" lon="6.44876">
        <ele>476.1</ele>
        <time>2022-11-23T15:42:46.000Z</time>
      </trkpt>
      <trkpt lat="43.59329" lon="6.4488">
        <ele>475.7</ele>
        <time>2022-11-23T15:42:51.000Z</time>
      </trkpt>
      <trkpt lat="43.59325" lon="6.44884">
        <ele>475.2</ele>
        <time>2022-11-23T15:42:57.000Z</time>
      </trkpt>
      <trkpt lat="43.59322" lon="6.44889">
        <ele>474.4</ele>
        <time>2022-11-23T15:43:02.000Z</time>
      </trkpt>
      <trkpt lat="43.59319" lon="6.44895">
        <ele>475.3</ele>
        <time>2022-11-23T15:43:09.000Z</time>
      </trkpt>
      <trkpt lat="43.59315" lon="6.44898">
        <ele>474.1</ele>
        <time>2022-11-23T15:43:14.000Z</time>
      </trkpt>
      <trkpt lat="43.5931" lon="6.44898">
        <ele>473.5</ele>
        <time>2022-11-23T15:43:18.000Z</time>
      </trkpt>
      <trkpt lat="43.59306" lon="6.44902">
        <ele>473.6</ele>
        <time>2022-11-23T15:43:25.000Z</time>
      </trkpt>
      <trkpt lat="43.59301" lon="6.44906">
        <ele>471.9</ele>
        <time>2022-11-23T15:43:33.000Z</time>
      </trkpt>
      <trkpt lat="43.59297" lon="6.44907">
        <ele>471.7</ele>
        <time>2022-11-23T15:43:38.000Z</time>
      </trkpt>
      <trkpt lat="43.59292" lon="6.44908">
        <ele>471.1</ele>
        <time>2022-11-23T15:43:44.000Z</time>
      </trkpt>
      <trkpt lat="43.59288" lon="6.44911">
        <ele>469.6</ele>
        <time>2022-11-23T15:43:53.000Z</time>
      </trkpt>
      <trkpt lat="43.59284" lon="6.44917">
        <ele>468.6</ele>
        <time>2022-11-23T15:43:58.000Z</time>
      </trkpt>
      <trkpt lat="43.59278" lon="6.44917">
        <ele>466.8</ele>
        <time>2022-11-23T15:44:08.000Z</time>
      </trkpt>
      <trkpt lat="43.59276" lon="6.44923">
        <ele>465.6</ele>
        <time>2022-11-23T15:44:17.000Z</time>
      </trkpt>
      <trkpt lat="43.59276" lon="6.4493">
        <ele>464.9</ele>
        <time>2022-11-23T15:44:25.000Z</time>
      </trkpt>
      <trkpt lat="43.59273" lon="6.44935">
        <ele>463.5</ele>
        <time>2022-11-23T15:44:32.000Z</time>
      </trkpt>
      <trkpt lat="43.59274" lon="6.44942">
        <ele>463.6</ele>
        <time>2022-11-23T15:44:36.000Z</time>
      </trkpt>
      <trkpt lat="43.59277" lon="6.44951">
        <ele>461.9</ele>
        <time>2022-11-23T15:44:45.000Z</time>
      </trkpt>
      <trkpt lat="43.5928" lon="6.44957">
        <ele>461.6</ele>
        <time>2022-11-23T15:44:50.000Z</time>
      </trkpt>
      <trkpt lat="43.59282" lon="6.44964">
        <ele>461</ele>
        <time>2022-11-23T15:44:55.000Z</time>
      </trkpt>
      <trkpt lat="43.59282" lon="6.44972">
        <ele>459.9</ele>
        <time>2022-11-23T15:45:00.000Z</time>
      </trkpt>
      <trkpt lat="43.59282" lon="6.44978">
        <ele>459.4</ele>
        <time>2022-11-23T15:45:05.000Z</time>
      </trkpt>
      <trkpt lat="43.59278" lon="6.44984">
        <ele>459.7</ele>
        <time>2022-11-23T15:45:09.000Z</time>
      </trkpt>
      <trkpt lat="43.59276" lon="6.4499">
        <ele>459.8</ele>
        <time>2022-11-23T15:45:13.000Z</time>
      </trkpt>
      <trkpt lat="43.59277" lon="6.44997">
        <ele>459.2</ele>
        <time>2022-11-23T15:45:19.000Z</time>
      </trkpt>
      <trkpt lat="43.59279" lon="6.45003">
        <ele>459</ele>
        <time>2022-11-23T15:45:24.000Z</time>
      </trkpt>
      <trkpt lat="43.59282" lon="6.45008">
        <ele>458.5</ele>
        <time>2022-11-23T15:45:27.000Z</time>
      </trkpt>
      <trkpt lat="43.59285" lon="6.45013">
        <ele>458.7</ele>
        <time>2022-11-23T15:45:33.000Z</time>
      </trkpt>
      <trkpt lat="43.59288" lon="6.45018">
        <ele>458.6</ele>
        <time>2022-11-23T15:45:37.000Z</time>
      </trkpt>
      <trkpt lat="43.59293" lon="6.45022">
        <ele>458.2</ele>
        <time>2022-11-23T15:45:41.000Z</time>
      </trkpt>
      <trkpt lat="43.59297" lon="6.45025">
        <ele>457.8</ele>
        <time>2022-11-23T15:45:44.000Z</time>
      </trkpt>
      <trkpt lat="43.59302" lon="6.45029">
        <ele>457.2</ele>
        <time>2022-11-23T15:45:48.000Z</time>
      </trkpt>
      <trkpt lat="43.59306" lon="6.45031">
        <ele>456.8</ele>
        <time>2022-11-23T15:45:53.000Z</time>
      </trkpt>
      <trkpt lat="43.59311" lon="6.45035">
        <ele>456.4</ele>
        <time>2022-11-23T15:45:58.000Z</time>
      </trkpt>
      <trkpt lat="43.59315" lon="6.45039">
        <ele>455</ele>
        <time>2022-11-23T15:46:03.000Z</time>
      </trkpt>
      <trkpt lat="43.59317" lon="6.45046">
        <ele>454.8</ele>
        <time>2022-11-23T15:46:08.000Z</time>
      </trkpt>
      <trkpt lat="43.59317" lon="6.45052">
        <ele>454.2</ele>
        <time>2022-11-23T15:46:13.000Z</time>
      </trkpt>
      <trkpt lat="43.59316" lon="6.4506">
        <ele>453.1</ele>
        <time>2022-11-23T15:46:20.000Z</time>
      </trkpt>
      <trkpt lat="43.59315" lon="6.45066">
        <ele>451.3</ele>
        <time>2022-11-23T15:46:25.000Z</time>
      </trkpt>
      <trkpt lat="43.59316" lon="6.45074">
        <ele>451.2</ele>
        <time>2022-11-23T15:46:28.000Z</time>
      </trkpt>
      <trkpt lat="43.59316" lon="6.4508">
        <ele>451.4</ele>
        <time>2022-11-23T15:46:32.000Z</time>
      </trkpt>
      <trkpt lat="43.59318" lon="6.45087">
        <ele>450</ele>
        <time>2022-11-23T15:46:43.000Z</time>
      </trkpt>
      <trkpt lat="43.59318" lon="6.45093">
        <ele>447.6</ele>
        <time>2022-11-23T15:46:51.000Z</time>
      </trkpt>
      <trkpt lat="43.59315" lon="6.45099">
        <ele>445.8</ele>
        <time>2022-11-23T15:46:58.000Z</time>
      </trkpt>
      <trkpt lat="43.59317" lon="6.45105">
        <ele>445.6</ele>
        <time>2022-11-23T15:47:06.000Z</time>
      </trkpt>
      <trkpt lat="43.59317" lon="6.45112">
        <ele>445.2</ele>
        <time>2022-11-23T15:47:11.000Z</time>
      </trkpt>
      <trkpt lat="43.5932" lon="6.45118">
        <ele>443.3</ele>
        <time>2022-11-23T15:47:19.000Z</time>
      </trkpt>
      <trkpt lat="43.59319" lon="6.45124">
        <ele>442.6</ele>
        <time>2022-11-23T15:47:25.000Z</time>
      </trkpt>
      <trkpt lat="43.59322" lon="6.45131">
        <ele>442</ele>
        <time>2022-11-23T15:47:33.000Z</time>
      </trkpt>
      <trkpt lat="43.59324" lon="6.45138">
        <ele>440.7</ele>
        <time>2022-11-23T15:47:39.000Z</time>
      </trkpt>
      <trkpt lat="43.59326" lon="6.45144">
        <ele>439</ele>
        <time>2022-11-23T15:47:46.000Z</time>
      </trkpt>
      <trkpt lat="43.59325" lon="6.45151">
        <ele>438.2</ele>
        <time>2022-11-23T15:47:53.000Z</time>
      </trkpt>
      <trkpt lat="43.59324" lon="6.45159">
        <ele>437.6</ele>
        <time>2022-11-23T15:47:58.000Z</time>
      </trkpt>
      <trkpt lat="43.59325" lon="6.45165">
        <ele>436.8</ele>
        <time>2022-11-23T15:48:04.000Z</time>
      </trkpt>
      <trkpt lat="43.59322" lon="6.45171">
        <ele>435.2</ele>
        <time>2022-11-23T15:48:10.000Z</time>
      </trkpt>
      <trkpt lat="43.59319" lon="6.45177">
        <ele>434.3</ele>
        <time>2022-11-23T15:48:16.000Z</time>
      </trkpt>
      <trkpt lat="43.59314" lon="6.45176">
        <ele>434.3</ele>
        <time>2022-11-23T15:48:20.000Z</time>
      </trkpt>
      <trkpt lat="43.59309" lon="6.45179">
        <ele>433.6</ele>
        <time>2022-11-23T15:48:27.000Z</time>
      </trkpt>
      <trkpt lat="43.59305" lon="6.45182">
        <ele>433</ele>
        <time>2022-11-23T15:48:33.000Z</time>
      </trkpt>
      <trkpt lat="43.59301" lon="6.45186">
        <ele>431.2</ele>
        <time>2022-11-23T15:48:37.000Z</time>
      </trkpt>
      <trkpt lat="43.59297" lon="6.45191">
        <ele>431.4</ele>
        <time>2022-11-23T15:48:44.000Z</time>
      </trkpt>
      <trkpt lat="43.59296" lon="6.45197">
        <ele>431.2</ele>
        <time>2022-11-23T15:48:50.000Z</time>
      </trkpt>
      <trkpt lat="43.59294" lon="6.45204">
        <ele>430.7</ele>
        <time>2022-11-23T15:48:55.000Z</time>
      </trkpt>
      <trkpt lat="43.59293" lon="6.4521">
        <ele>429.1</ele>
        <time>2022-11-23T15:49:03.000Z</time>
      </trkpt>
      <trkpt lat="43.59289" lon="6.45214">
        <ele>429</ele>
        <time>2022-11-23T15:49:09.000Z</time>
      </trkpt>
      <trkpt lat="43.59288" lon="6.45221">
        <ele>427.3</ele>
        <time>2022-11-23T15:49:18.000Z</time>
      </trkpt>
      <trkpt lat="43.5929" lon="6.45227">
        <ele>424.3</ele>
        <time>2022-11-23T15:49:29.000Z</time>
      </trkpt>
      <trkpt lat="43.59289" lon="6.45233">
        <ele>425.1</ele>
        <time>2022-11-23T15:49:34.000Z</time>
      </trkpt>
      <trkpt lat="43.59288" lon="6.4524">
        <ele>428.5</ele>
        <time>2022-11-23T15:49:47.000Z</time>
      </trkpt>
      <trkpt lat="43.59293" lon="6.45241">
        <ele>430.5</ele>
        <time>2022-11-23T15:50:09.000Z</time>
      </trkpt>
      <trkpt lat="43.59296" lon="6.45237">
        <ele>429.4</ele>
        <time>2022-11-23T15:50:49.000Z</time>
      </trkpt>
      <trkpt lat="43.59299" lon="6.45233">
        <ele>427.7</ele>
        <time>2022-11-23T15:51:17.000Z</time>
      </trkpt>
      <trkpt lat="43.59303" lon="6.45236">
        <ele>423.5</ele>
        <time>2022-11-23T15:52:01.000Z</time>
      </trkpt>
      <trkpt lat="43.59308" lon="6.45237">
        <ele>422.3</ele>
        <time>2022-11-23T15:52:10.000Z</time>
      </trkpt>
      <trkpt lat="43.59312" lon="6.45239">
        <ele>421.2</ele>
        <time>2022-11-23T15:52:16.000Z</time>
      </trkpt>
      <trkpt lat="43.59316" lon="6.45242">
        <ele>419.8</ele>
        <time>2022-11-23T15:52:23.000Z</time>
      </trkpt>
      <trkpt lat="43.59319" lon="6.45248">
        <ele>418.7</ele>
        <time>2022-11-23T15:52:29.000Z</time>
      </trkpt>
      <trkpt lat="43.59323" lon="6.4525">
        <ele>417.9</ele>
        <time>2022-11-23T15:52:40.000Z</time>
      </trkpt>
      <trkpt lat="43.59328" lon="6.4525">
        <ele>417.1</ele>
        <time>2022-11-23T15:52:50.000Z</time>
      </trkpt>
      <trkpt lat="43.59328" lon="6.45257">
        <ele>417.2</ele>
        <time>2022-11-23T15:53:13.000Z</time>
      </trkpt>
      <trkpt lat="43.5933" lon="6.45263">
        <ele>417.1</ele>
        <time>2022-11-23T15:53:40.000Z</time>
      </trkpt>
      <trkpt lat="43.59327" lon="6.45267">
        <ele>416.6</ele>
        <time>2022-11-23T15:55:18.000Z</time>
      </trkpt>
      <trkpt lat="43.59331" lon="6.45263">
        <ele>415.7</ele>
        <time>2022-11-23T15:55:55.000Z</time>
      </trkpt>
      <trkpt lat="43.59335" lon="6.45265">
        <ele>415.3</ele>
        <time>2022-11-23T15:56:00.000Z</time>
      </trkpt>
      <trkpt lat="43.59341" lon="6.45265">
        <ele>414.5</ele>
        <time>2022-11-23T15:56:05.000Z</time>
      </trkpt>
      <trkpt lat="43.59346" lon="6.45268">
        <ele>413.8</ele>
        <time>2022-11-23T15:56:11.000Z</time>
      </trkpt>
      <trkpt lat="43.59349" lon="6.45272">
        <ele>413.2</ele>
        <time>2022-11-23T15:56:18.000Z</time>
      </trkpt>
      <trkpt lat="43.59354" lon="6.45269">
        <ele>413.5</ele>
        <time>2022-11-23T15:56:39.000Z</time>
      </trkpt>
      <trkpt lat="43.59357" lon="6.45265">
        <ele>413.1</ele>
        <time>2022-11-23T15:56:56.000Z</time>
      </trkpt>
      <trkpt lat="43.59362" lon="6.45263">
        <ele>413</ele>
        <time>2022-11-23T15:57:08.000Z</time>
      </trkpt>
      <trkpt lat="43.59366" lon="6.45262">
        <ele>413</ele>
        <time>2022-11-23T15:57:18.000Z</time>
      </trkpt>
      <trkpt lat="43.59363" lon="6.45258">
        <ele>413</ele>
        <time>2022-11-23T15:58:19.000Z</time>
      </trkpt>
      <trkpt lat="43.59362" lon="6.45264">
        <ele>413.1</ele>
        <time>2022-11-23T15:58:46.000Z</time>
      </trkpt>
      <trkpt lat="43.59362" lon="6.45258">
        <ele>411.6</ele>
        <time>2022-11-23T15:59:42.000Z</time>
      </trkpt>
      <trkpt lat="43.59361" lon="6.45252">
        <ele>411.8</ele>
        <time>2022-11-23T16:02:38.000Z</time>
      </trkpt>
      <trkpt lat="43.5936" lon="6.45246">
        <ele>412.2</ele>
        <time>2022-11-23T16:04:01.000Z</time>
      </trkpt>
      <trkpt lat="43.59364" lon="6.45242">
        <ele>411.5</ele>
        <time>2022-11-23T16:04:07.000Z</time>
      </trkpt>
      <trkpt lat="43.59368" lon="6.45236">
        <ele>411.3</ele>
        <time>2022-11-23T16:04:13.000Z</time>
      </trkpt>
      <trkpt lat="43.5937" lon="6.4523">
        <ele>410.5</ele>
        <time>2022-11-23T16:04:18.000Z</time>
      </trkpt>
      <trkpt lat="43.59373" lon="6.45224">
        <ele>410.4</ele>
        <time>2022-11-23T16:04:24.000Z</time>
      </trkpt>
      <trkpt lat="43.59375" lon="6.45218">
        <ele>409.7</ele>
        <time>2022-11-23T16:04:32.000Z</time>
      </trkpt>
      <trkpt lat="43.59375" lon="6.45211">
        <ele>409.7</ele>
        <time>2022-11-23T16:04:38.000Z</time>
      </trkpt>
      <trkpt lat="43.59377" lon="6.45205">
        <ele>409.5</ele>
        <time>2022-11-23T16:04:43.000Z</time>
      </trkpt>
      <trkpt lat="43.59378" lon="6.45199">
        <ele>409.5</ele>
        <time>2022-11-23T16:04:47.000Z</time>
      </trkpt>
      <trkpt lat="43.59381" lon="6.45193">
        <ele>409</ele>
        <time>2022-11-23T16:04:54.000Z</time>
      </trkpt>
      <trkpt lat="43.59381" lon="6.45187">
        <ele>409.2</ele>
        <time>2022-11-23T16:05:06.000Z</time>
      </trkpt>
      <trkpt lat="43.59384" lon="6.4518">
        <ele>408.6</ele>
        <time>2022-11-23T16:05:15.000Z</time>
      </trkpt>
      <trkpt lat="43.59385" lon="6.45174">
        <ele>407.9</ele>
        <time>2022-11-23T16:05:20.000Z</time>
      </trkpt>
      <trkpt lat="43.59384" lon="6.45167">
        <ele>407.5</ele>
        <time>2022-11-23T16:05:25.000Z</time>
      </trkpt>
      <trkpt lat="43.59385" lon="6.4516">
        <ele>406.5</ele>
        <time>2022-11-23T16:05:32.000Z</time>
      </trkpt>
      <trkpt lat="43.59384" lon="6.45154">
        <ele>405.7</ele>
        <time>2022-11-23T16:05:40.000Z</time>
      </trkpt>
      <trkpt lat="43.59389" lon="6.45154">
        <ele>404.6</ele>
        <time>2022-11-23T16:05:51.000Z</time>
      </trkpt>
      <trkpt lat="43.59394" lon="6.45153">
        <ele>404.6</ele>
        <time>2022-11-23T16:05:59.000Z</time>
      </trkpt>
      <trkpt lat="43.59399" lon="6.45154">
        <ele>405</ele>
        <time>2022-11-23T16:06:03.000Z</time>
      </trkpt>
      <trkpt lat="43.59405" lon="6.45154">
        <ele>404.4</ele>
        <time>2022-11-23T16:06:07.000Z</time>
      </trkpt>
      <trkpt lat="43.59409" lon="6.45151">
        <ele>404.3</ele>
        <time>2022-11-23T16:06:12.000Z</time>
      </trkpt>
      <trkpt lat="43.59412" lon="6.45146">
        <ele>402.9</ele>
        <time>2022-11-23T16:06:24.000Z</time>
      </trkpt>
      <trkpt lat="43.5941" lon="6.45139">
        <ele>401.8</ele>
        <time>2022-11-23T16:06:38.000Z</time>
      </trkpt>
      <trkpt lat="43.59413" lon="6.45134">
        <ele>402.1</ele>
        <time>2022-11-23T16:06:45.000Z</time>
      </trkpt>
      <trkpt lat="43.59417" lon="6.4513">
        <ele>401.2</ele>
        <time>2022-11-23T16:06:50.000Z</time>
      </trkpt>
      <trkpt lat="43.5942" lon="6.45124">
        <ele>400.8</ele>
        <time>2022-11-23T16:06:55.000Z</time>
      </trkpt>
      <trkpt lat="43.59423" lon="6.4512">
        <ele>400.1</ele>
        <time>2022-11-23T16:06:59.000Z</time>
      </trkpt>
      <trkpt lat="43.59428" lon="6.45116">
        <ele>399.9</ele>
        <time>2022-11-23T16:07:05.000Z</time>
      </trkpt>
      <trkpt lat="43.59426" lon="6.45122">
        <ele>398.6</ele>
        <time>2022-11-23T16:07:18.000Z</time>
      </trkpt>
      <trkpt lat="43.59424" lon="6.45128">
        <ele>396.7</ele>
        <time>2022-11-23T16:07:27.000Z</time>
      </trkpt>
      <trkpt lat="43.5942" lon="6.45134">
        <ele>396.4</ele>
        <time>2022-11-23T16:07:32.000Z</time>
      </trkpt>
      <trkpt lat="43.59421" lon="6.45141">
        <ele>394.8</ele>
        <time>2022-11-23T16:07:39.000Z</time>
      </trkpt>
      <trkpt lat="43.59419" lon="6.45147">
        <ele>393.8</ele>
        <time>2022-11-23T16:07:43.000Z</time>
      </trkpt>
      <trkpt lat="43.59418" lon="6.45154">
        <ele>393.4</ele>
        <time>2022-11-23T16:07:48.000Z</time>
      </trkpt>
      <trkpt lat="43.59414" lon="6.45159">
        <ele>393.2</ele>
        <time>2022-11-23T16:07:52.000Z</time>
      </trkpt>
      <trkpt lat="43.59417" lon="6.45165">
        <ele>393.6</ele>
        <time>2022-11-23T16:07:59.000Z</time>
      </trkpt>
      <trkpt lat="43.59422" lon="6.45162">
        <ele>393.5</ele>
        <time>2022-11-23T16:08:23.000Z</time>
      </trkpt>
      <trkpt lat="43.59425" lon="6.45157">
        <ele>393.4</ele>
        <time>2022-11-23T16:08:28.000Z</time>
      </trkpt>
      <trkpt lat="43.59424" lon="6.4515">
        <ele>393.4</ele>
        <time>2022-11-23T16:08:38.000Z</time>
      </trkpt>
      <trkpt lat="43.59428" lon="6.45142">
        <ele>393.6</ele>
        <time>2022-11-23T16:08:42.000Z</time>
      </trkpt>
      <trkpt lat="43.59432" lon="6.45137">
        <ele>393.8</ele>
        <time>2022-11-23T16:08:45.000Z</time>
      </trkpt>
      <trkpt lat="43.59436" lon="6.45131">
        <ele>393.8</ele>
        <time>2022-11-23T16:08:48.000Z</time>
      </trkpt>
      <trkpt lat="43.5944" lon="6.45128">
        <ele>393.9</ele>
        <time>2022-11-23T16:08:50.000Z</time>
      </trkpt>
      <trkpt lat="43.59443" lon="6.45122">
        <ele>393.4</ele>
        <time>2022-11-23T16:08:53.000Z</time>
      </trkpt>
      <trkpt lat="43.59447" lon="6.45115">
        <ele>393.3</ele>
        <time>2022-11-23T16:08:56.000Z</time>
      </trkpt>
      <trkpt lat="43.59448" lon="6.45109">
        <ele>393.5</ele>
        <time>2022-11-23T16:08:59.000Z</time>
      </trkpt>
      <trkpt lat="43.59452" lon="6.45102">
        <ele>393.5</ele>
        <time>2022-11-23T16:09:02.000Z</time>
      </trkpt>
      <trkpt lat="43.59454" lon="6.45096">
        <ele>393.4</ele>
        <time>2022-11-23T16:09:05.000Z</time>
      </trkpt>
      <trkpt lat="43.59455" lon="6.4509">
        <ele>393.3</ele>
        <time>2022-11-23T16:09:08.000Z</time>
      </trkpt>
      <trkpt lat="43.5946" lon="6.45084">
        <ele>392.8</ele>
        <time>2022-11-23T16:09:11.000Z</time>
      </trkpt>
      <trkpt lat="43.59462" lon="6.45078">
        <ele>392.8</ele>
        <time>2022-11-23T16:09:14.000Z</time>
      </trkpt>
      <trkpt lat="43.59465" lon="6.45072">
        <ele>392.9</ele>
        <time>2022-11-23T16:09:17.000Z</time>
      </trkpt>
      <trkpt lat="43.59468" lon="6.45067">
        <ele>392.7</ele>
        <time>2022-11-23T16:09:20.000Z</time>
      </trkpt>
      <trkpt lat="43.59473" lon="6.4506">
        <ele>392.3</ele>
        <time>2022-11-23T16:09:23.000Z</time>
      </trkpt>
      <trkpt lat="43.59476" lon="6.45055">
        <ele>391.9</ele>
        <time>2022-11-23T16:09:26.000Z</time>
      </trkpt>
      <trkpt lat="43.59477" lon="6.45048">
        <ele>391.2</ele>
        <time>2022-11-23T16:09:30.000Z</time>
      </trkpt>
      <trkpt lat="43.59477" lon="6.45041">
        <ele>390.9</ele>
        <time>2022-11-23T16:09:34.000Z</time>
      </trkpt>
      <trkpt lat="43.59474" lon="6.45035">
        <ele>390.7</ele>
        <time>2022-11-23T16:09:41.000Z</time>
      </trkpt>
      <trkpt lat="43.59469" lon="6.45033">
        <ele>390.8</ele>
        <time>2022-11-23T16:09:47.000Z</time>
      </trkpt>
      <trkpt lat="43.59467" lon="6.45027">
        <ele>391.1</ele>
        <time>2022-11-23T16:09:52.000Z</time>
      </trkpt>
      <trkpt lat="43.59465" lon="6.45019">
        <ele>390.9</ele>
        <time>2022-11-23T16:09:56.000Z</time>
      </trkpt>
      <trkpt lat="43.59461" lon="6.45016">
        <ele>389.6</ele>
        <time>2022-11-23T16:10:09.000Z</time>
      </trkpt>
      <trkpt lat="43.59459" lon="6.4501">
        <ele>390.1</ele>
        <time>2022-11-23T16:10:14.000Z</time>
      </trkpt>
      <trkpt lat="43.59454" lon="6.45008">
        <ele>389.8</ele>
        <time>2022-11-23T16:10:18.000Z</time>
      </trkpt>
      <trkpt lat="43.59449" lon="6.45007">
        <ele>389.5</ele>
        <time>2022-11-23T16:10:27.000Z</time>
      </trkpt>
      <trkpt lat="43.59446" lon="6.45002">
        <ele>389.5</ele>
        <time>2022-11-23T16:10:31.000Z</time>
      </trkpt>
      <trkpt lat="43.59446" lon="6.44995">
        <ele>389.2</ele>
        <time>2022-11-23T16:10:34.000Z</time>
      </trkpt>
      <trkpt lat="43.59445" lon="6.44986">
        <ele>388.1</ele>
        <time>2022-11-23T16:10:38.000Z</time>
      </trkpt>
      <trkpt lat="43.59444" lon="6.44979">
        <ele>387.7</ele>
        <time>2022-11-23T16:10:40.000Z</time>
      </trkpt>
      <trkpt lat="43.59442" lon="6.44971">
        <ele>386.9</ele>
        <time>2022-11-23T16:10:43.000Z</time>
      </trkpt>
      <trkpt lat="43.5944" lon="6.44965">
        <ele>386.7</ele>
        <time>2022-11-23T16:10:45.000Z</time>
      </trkpt>
      <trkpt lat="43.59439" lon="6.44959">
        <ele>386.4</ele>
        <time>2022-11-23T16:10:48.000Z</time>
      </trkpt>
      <trkpt lat="43.5944" lon="6.44952">
        <ele>386.2</ele>
        <time>2022-11-23T16:10:51.000Z</time>
      </trkpt>
      <trkpt lat="43.59441" lon="6.44945">
        <ele>385.8</ele>
        <time>2022-11-23T16:10:54.000Z</time>
      </trkpt>
      <trkpt lat="43.5944" lon="6.44936">
        <ele>385.4</ele>
        <time>2022-11-23T16:10:57.000Z</time>
      </trkpt>
      <trkpt lat="43.59441" lon="6.44929">
        <ele>385.3</ele>
        <time>2022-11-23T16:11:00.000Z</time>
      </trkpt>
      <trkpt lat="43.59442" lon="6.44922">
        <ele>384.9</ele>
        <time>2022-11-23T16:11:04.000Z</time>
      </trkpt>
      <trkpt lat="43.5944" lon="6.44916">
        <ele>384.3</ele>
        <time>2022-11-23T16:11:13.000Z</time>
      </trkpt>
      <trkpt lat="43.59444" lon="6.44912">
        <ele>384.1</ele>
        <time>2022-11-23T16:11:16.000Z</time>
      </trkpt>
      <trkpt lat="43.59449" lon="6.44911">
        <ele>383.8</ele>
        <time>2022-11-23T16:11:20.000Z</time>
      </trkpt>
      <trkpt lat="43.59453" lon="6.44915">
        <ele>381.8</ele>
        <time>2022-11-23T16:11:27.000Z</time>
      </trkpt>
      <trkpt lat="43.59452" lon="6.44923">
        <ele>383.6</ele>
        <time>2022-11-23T16:11:31.000Z</time>
      </trkpt>
      <trkpt lat="43.59449" lon="6.44929">
        <ele>383.6</ele>
        <time>2022-11-23T16:11:33.000Z</time>
      </trkpt>
      <trkpt lat="43.59447" lon="6.44935">
        <ele>383.8</ele>
        <time>2022-11-23T16:11:35.000Z</time>
      </trkpt>
      <trkpt lat="43.59447" lon="6.44943">
        <ele>384.4</ele>
        <time>2022-11-23T16:11:38.000Z</time>
      </trkpt>
      <trkpt lat="43.59445" lon="6.4495">
        <ele>385</ele>
        <time>2022-11-23T16:11:41.000Z</time>
      </trkpt>
      <trkpt lat="43.59446" lon="6.44956">
        <ele>385.1</ele>
        <time>2022-11-23T16:11:43.000Z</time>
      </trkpt>
      <trkpt lat="43.59445" lon="6.44963">
        <ele>385.1</ele>
        <time>2022-11-23T16:11:45.000Z</time>
      </trkpt>
      <trkpt lat="43.59446" lon="6.44971">
        <ele>385.8</ele>
        <time>2022-11-23T16:11:48.000Z</time>
      </trkpt>
      <trkpt lat="43.59447" lon="6.44978">
        <ele>386.2</ele>
        <time>2022-11-23T16:11:51.000Z</time>
      </trkpt>
      <trkpt lat="43.5945" lon="6.44986">
        <ele>386.9</ele>
        <time>2022-11-23T16:11:54.000Z</time>
      </trkpt>
      <trkpt lat="43.59448" lon="6.44992">
        <ele>386.9</ele>
        <time>2022-11-23T16:11:57.000Z</time>
      </trkpt>
      <trkpt lat="43.59443" lon="6.44995">
        <ele>387.4</ele>
        <time>2022-11-23T16:12:02.000Z</time>
      </trkpt>
      <trkpt lat="43.59445" lon="6.45003">
        <ele>387.9</ele>
        <time>2022-11-23T16:12:11.000Z</time>
      </trkpt>
      <trkpt lat="43.59447" lon="6.45009">
        <ele>387.3</ele>
        <time>2022-11-23T16:12:14.000Z</time>
      </trkpt>
      <trkpt lat="43.59447" lon="6.45017">
        <ele>387.3</ele>
        <time>2022-11-23T16:12:18.000Z</time>
      </trkpt>
      <trkpt lat="43.59448" lon="6.45023">
        <ele>388.6</ele>
        <time>2022-11-23T16:12:21.000Z</time>
      </trkpt>
      <trkpt lat="43.59448" lon="6.4503">
        <ele>389.2</ele>
        <time>2022-11-23T16:12:24.000Z</time>
      </trkpt>
      <trkpt lat="43.59448" lon="6.45036">
        <ele>389.4</ele>
        <time>2022-11-23T16:12:27.000Z</time>
      </trkpt>
      <trkpt lat="43.59449" lon="6.45044">
        <ele>389.9</ele>
        <time>2022-11-23T16:12:31.000Z</time>
      </trkpt>
      <trkpt lat="43.59449" lon="6.4505">
        <ele>390.2</ele>
        <time>2022-11-23T16:12:34.000Z</time>
      </trkpt>
      <trkpt lat="43.5945" lon="6.45058">
        <ele>390.6</ele>
        <time>2022-11-23T16:12:38.000Z</time>
      </trkpt>
      <trkpt lat="43.5945" lon="6.45066">
        <ele>390.7</ele>
        <time>2022-11-23T16:12:42.000Z</time>
      </trkpt>
      <trkpt lat="43.5945" lon="6.45072">
        <ele>390.5</ele>
        <time>2022-11-23T16:12:45.000Z</time>
      </trkpt>
      <trkpt lat="43.59451" lon="6.45079">
        <ele>391.1</ele>
        <time>2022-11-23T16:12:48.000Z</time>
      </trkpt>
      <trkpt lat="43.59451" lon="6.45086">
        <ele>391.6</ele>
        <time>2022-11-23T16:12:51.000Z</time>
      </trkpt>
      <trkpt lat="43.59451" lon="6.45092">
        <ele>392.1</ele>
        <time>2022-11-23T16:12:54.000Z</time>
      </trkpt>
      <trkpt lat="43.5945" lon="6.45099">
        <ele>392.3</ele>
        <time>2022-11-23T16:12:58.000Z</time>
      </trkpt>
      <trkpt lat="43.59448" lon="6.45106">
        <ele>392.3</ele>
        <time>2022-11-23T16:13:03.000Z</time>
      </trkpt>
      <trkpt lat="43.59445" lon="6.45113">
        <ele>392.3</ele>
        <time>2022-11-23T16:13:07.000Z</time>
      </trkpt>
      <trkpt lat="43.59442" lon="6.45118">
        <ele>392.7</ele>
        <time>2022-11-23T16:13:10.000Z</time>
      </trkpt>
      <trkpt lat="43.59439" lon="6.45123">
        <ele>392.7</ele>
        <time>2022-11-23T16:13:13.000Z</time>
      </trkpt>
      <trkpt lat="43.59436" lon="6.45128">
        <ele>392.5</ele>
        <time>2022-11-23T16:13:17.000Z</time>
      </trkpt>
      <trkpt lat="43.59431" lon="6.45135">
        <ele>392.4</ele>
        <time>2022-11-23T16:13:21.000Z</time>
      </trkpt>
      <trkpt lat="43.59426" lon="6.45139">
        <ele>392.6</ele>
        <time>2022-11-23T16:13:24.000Z</time>
      </trkpt>
      <trkpt lat="43.59423" lon="6.45144">
        <ele>392.7</ele>
        <time>2022-11-23T16:13:28.000Z</time>
      </trkpt>
      <trkpt lat="43.59419" lon="6.45149">
        <ele>392.5</ele>
        <time>2022-11-23T16:13:32.000Z</time>
      </trkpt>
      <trkpt lat="43.59415" lon="6.45154">
        <ele>392.2</ele>
        <time>2022-11-23T16:13:36.000Z</time>
      </trkpt>
      <trkpt lat="43.59412" lon="6.45161">
        <ele>392.7</ele>
        <time>2022-11-23T16:13:40.000Z</time>
      </trkpt>
      <trkpt lat="43.59408" lon="6.45167">
        <ele>393</ele>
        <time>2022-11-23T16:13:43.000Z</time>
      </trkpt>
      <trkpt lat="43.59405" lon="6.45174">
        <ele>392.8</ele>
        <time>2022-11-23T16:13:47.000Z</time>
      </trkpt>
      <trkpt lat="43.59401" lon="6.4518">
        <ele>392.5</ele>
        <time>2022-11-23T16:13:50.000Z</time>
      </trkpt>
      <trkpt lat="43.594" lon="6.45187">
        <ele>392.6</ele>
        <time>2022-11-23T16:13:54.000Z</time>
      </trkpt>
      <trkpt lat="43.59398" lon="6.45194">
        <ele>393</ele>
        <time>2022-11-23T16:13:57.000Z</time>
      </trkpt>
      <trkpt lat="43.59398" lon="6.45201">
        <ele>393</ele>
        <time>2022-11-23T16:14:00.000Z</time>
      </trkpt>
      <trkpt lat="43.59397" lon="6.45208">
        <ele>393.3</ele>
        <time>2022-11-23T16:14:03.000Z</time>
      </trkpt>
      <trkpt lat="43.59396" lon="6.45214">
        <ele>393.3</ele>
        <time>2022-11-23T16:14:05.000Z</time>
      </trkpt>
      <trkpt lat="43.59393" lon="6.45222">
        <ele>393.3</ele>
        <time>2022-11-23T16:14:08.000Z</time>
      </trkpt>
      <trkpt lat="43.59391" lon="6.4523">
        <ele>393.5</ele>
        <time>2022-11-23T16:14:11.000Z</time>
      </trkpt>
      <trkpt lat="43.59389" lon="6.45237">
        <ele>393.7</ele>
        <time>2022-11-23T16:14:14.000Z</time>
      </trkpt>
      <trkpt lat="43.59389" lon="6.45244">
        <ele>393.5</ele>
        <time>2022-11-23T16:14:17.000Z</time>
      </trkpt>
      <trkpt lat="43.59385" lon="6.45251">
        <ele>393.6</ele>
        <time>2022-11-23T16:14:20.000Z</time>
      </trkpt>
      <trkpt lat="43.59384" lon="6.45259">
        <ele>393.4</ele>
        <time>2022-11-23T16:14:23.000Z</time>
      </trkpt>
      <trkpt lat="43.59383" lon="6.45265">
        <ele>393.5</ele>
        <time>2022-11-23T16:14:26.000Z</time>
      </trkpt>
      <trkpt lat="43.59381" lon="6.45272">
        <ele>393.8</ele>
        <time>2022-11-23T16:14:29.000Z</time>
      </trkpt>
      <trkpt lat="43.59379" lon="6.45279">
        <ele>394</ele>
        <time>2022-11-23T16:14:33.000Z</time>
      </trkpt>
      <trkpt lat="43.59376" lon="6.45285">
        <ele>394</ele>
        <time>2022-11-23T16:14:36.000Z</time>
      </trkpt>
      <trkpt lat="43.59374" lon="6.45292">
        <ele>394.1</ele>
        <time>2022-11-23T16:14:41.000Z</time>
      </trkpt>
      <trkpt lat="43.59368" lon="6.45293">
        <ele>394.2</ele>
        <time>2022-11-23T16:14:45.000Z</time>
      </trkpt>
      <trkpt lat="43.59363" lon="6.45296">
        <ele>394.4</ele>
        <time>2022-11-23T16:14:47.000Z</time>
      </trkpt>
      <trkpt lat="43.59358" lon="6.45299">
        <ele>394.4</ele>
        <time>2022-11-23T16:14:50.000Z</time>
      </trkpt>
      <trkpt lat="43.59354" lon="6.45304">
        <ele>394.2</ele>
        <time>2022-11-23T16:14:54.000Z</time>
      </trkpt>
      <trkpt lat="43.59349" lon="6.45308">
        <ele>394.8</ele>
        <time>2022-11-23T16:14:59.000Z</time>
      </trkpt>
      <trkpt lat="43.59345" lon="6.45313">
        <ele>394.9</ele>
        <time>2022-11-23T16:15:01.000Z</time>
      </trkpt>
      <trkpt lat="43.59342" lon="6.45317">
        <ele>394.5</ele>
        <time>2022-11-23T16:15:03.000Z</time>
      </trkpt>
      <trkpt lat="43.59337" lon="6.4532">
        <ele>395</ele>
        <time>2022-11-23T16:15:06.000Z</time>
      </trkpt>
      <trkpt lat="43.59332" lon="6.45325">
        <ele>395.1</ele>
        <time>2022-11-23T16:15:09.000Z</time>
      </trkpt>
      <trkpt lat="43.59328" lon="6.4533">
        <ele>395.2</ele>
        <time>2022-11-23T16:15:12.000Z</time>
      </trkpt>
      <trkpt lat="43.59323" lon="6.45332">
        <ele>395.6</ele>
        <time>2022-11-23T16:15:19.000Z</time>
      </trkpt>
      <trkpt lat="43.59322" lon="6.45339">
        <ele>395.7</ele>
        <time>2022-11-23T16:15:23.000Z</time>
      </trkpt>
      <trkpt lat="43.59318" lon="6.45344">
        <ele>395.3</ele>
        <time>2022-11-23T16:15:26.000Z</time>
      </trkpt>
      <trkpt lat="43.59316" lon="6.4535">
        <ele>395.3</ele>
        <time>2022-11-23T16:15:29.000Z</time>
      </trkpt>
      <trkpt lat="43.59314" lon="6.45358">
        <ele>396</ele>
        <time>2022-11-23T16:15:33.000Z</time>
      </trkpt>
      <trkpt lat="43.59313" lon="6.45365">
        <ele>396.2</ele>
        <time>2022-11-23T16:15:36.000Z</time>
      </trkpt>
      <trkpt lat="43.59311" lon="6.45373">
        <ele>395.9</ele>
        <time>2022-11-23T16:15:39.000Z</time>
      </trkpt>
      <trkpt lat="43.5931" lon="6.45381">
        <ele>396.1</ele>
        <time>2022-11-23T16:15:42.000Z</time>
      </trkpt>
      <trkpt lat="43.59309" lon="6.45388">
        <ele>396.3</ele>
        <time>2022-11-23T16:15:45.000Z</time>
      </trkpt>
      <trkpt lat="43.59309" lon="6.45395">
        <ele>396.6</ele>
        <time>2022-11-23T16:15:49.000Z</time>
      </trkpt>
      <trkpt lat="43.59307" lon="6.45407">
        <ele>395.8</ele>
        <time>2022-11-23T16:15:53.000Z</time>
      </trkpt>
      <trkpt lat="43.59304" lon="6.45414">
        <ele>395.9</ele>
        <time>2022-11-23T16:15:55.000Z</time>
      </trkpt>
      <trkpt lat="43.59305" lon="6.45422">
        <ele>396.7</ele>
        <time>2022-11-23T16:15:58.000Z</time>
      </trkpt>
      <trkpt lat="43.59304" lon="6.45431">
        <ele>397</ele>
        <time>2022-11-23T16:16:01.000Z</time>
      </trkpt>
      <trkpt lat="43.59307" lon="6.45438">
        <ele>396.9</ele>
        <time>2022-11-23T16:16:05.000Z</time>
      </trkpt>
      <trkpt lat="43.5931" lon="6.45443">
        <ele>396.6</ele>
        <time>2022-11-23T16:16:08.000Z</time>
      </trkpt>
      <trkpt lat="43.5931" lon="6.4545">
        <ele>397.2</ele>
        <time>2022-11-23T16:16:11.000Z</time>
      </trkpt>
      <trkpt lat="43.5931" lon="6.45457">
        <ele>397.4</ele>
        <time>2022-11-23T16:16:14.000Z</time>
      </trkpt>
      <trkpt lat="43.59309" lon="6.45464">
        <ele>397.5</ele>
        <time>2022-11-23T16:16:17.000Z</time>
      </trkpt>
      <trkpt lat="43.59308" lon="6.45471">
        <ele>397</ele>
        <time>2022-11-23T16:16:20.000Z</time>
      </trkpt>
      <trkpt lat="43.59305" lon="6.45478">
        <ele>397.3</ele>
        <time>2022-11-23T16:16:23.000Z</time>
      </trkpt>
      <trkpt lat="43.59302" lon="6.45486">
        <ele>398</ele>
        <time>2022-11-23T16:16:26.000Z</time>
      </trkpt>
      <trkpt lat="43.59303" lon="6.45492">
        <ele>398.3</ele>
        <time>2022-11-23T16:16:29.000Z</time>
      </trkpt>
      <trkpt lat="43.59304" lon="6.45499">
        <ele>398.3</ele>
        <time>2022-11-23T16:16:32.000Z</time>
      </trkpt>
      <trkpt lat="43.59303" lon="6.45505">
        <ele>398</ele>
        <time>2022-11-23T16:16:34.000Z</time>
      </trkpt>
      <trkpt lat="43.59302" lon="6.45512">
        <ele>398.1</ele>
        <time>2022-11-23T16:16:37.000Z</time>
      </trkpt>
      <trkpt lat="43.59302" lon="6.4552">
        <ele>398.6</ele>
        <time>2022-11-23T16:16:40.000Z</time>
      </trkpt>
      <trkpt lat="43.59303" lon="6.45526">
        <ele>398.8</ele>
        <time>2022-11-23T16:16:43.000Z</time>
      </trkpt>
      <trkpt lat="43.59303" lon="6.45532">
        <ele>399.1</ele>
        <time>2022-11-23T16:16:46.000Z</time>
      </trkpt>
      <trkpt lat="43.59305" lon="6.45539">
        <ele>399.1</ele>
        <time>2022-11-23T16:16:49.000Z</time>
      </trkpt>
      <trkpt lat="43.59306" lon="6.45545">
        <ele>399</ele>
        <time>2022-11-23T16:16:52.000Z</time>
      </trkpt>
      <trkpt lat="43.59307" lon="6.45552">
        <ele>398.7</ele>
        <time>2022-11-23T16:16:56.000Z</time>
      </trkpt>
      <trkpt lat="43.59307" lon="6.45559">
        <ele>399</ele>
        <time>2022-11-23T16:16:59.000Z</time>
      </trkpt>
      <trkpt lat="43.59307" lon="6.45566">
        <ele>398.8</ele>
        <time>2022-11-23T16:17:02.000Z</time>
      </trkpt>
      <trkpt lat="43.59305" lon="6.45574">
        <ele>398.7</ele>
        <time>2022-11-23T16:17:06.000Z</time>
      </trkpt>
      <trkpt lat="43.59305" lon="6.45582">
        <ele>398.7</ele>
        <time>2022-11-23T16:17:10.000Z</time>
      </trkpt>
      <trkpt lat="43.59305" lon="6.45589">
        <ele>398.8</ele>
        <time>2022-11-23T16:17:13.000Z</time>
      </trkpt>
      <trkpt lat="43.59303" lon="6.45596">
        <ele>398.7</ele>
        <time>2022-11-23T16:17:16.000Z</time>
      </trkpt>
      <trkpt lat="43.59306" lon="6.45601">
        <ele>398.5</ele>
        <time>2022-11-23T16:17:19.000Z</time>
      </trkpt>
      <trkpt lat="43.59309" lon="6.45608">
        <ele>398.5</ele>
        <time>2022-11-23T16:17:23.000Z</time>
      </trkpt>
      <trkpt lat="43.59308" lon="6.45617">
        <ele>398.6</ele>
        <time>2022-11-23T16:17:27.000Z</time>
      </trkpt>
      <trkpt lat="43.59308" lon="6.45626">
        <ele>398.4</ele>
        <time>2022-11-23T16:17:30.000Z</time>
      </trkpt>
      <trkpt lat="43.59309" lon="6.45632">
        <ele>398.4</ele>
        <time>2022-11-23T16:17:33.000Z</time>
      </trkpt>
      <trkpt lat="43.5931" lon="6.45639">
        <ele>398.3</ele>
        <time>2022-11-23T16:17:36.000Z</time>
      </trkpt>
      <trkpt lat="43.59313" lon="6.45647">
        <ele>398.3</ele>
        <time>2022-11-23T16:17:39.000Z</time>
      </trkpt>
      <trkpt lat="43.59314" lon="6.45653">
        <ele>398.2</ele>
        <time>2022-11-23T16:17:42.000Z</time>
      </trkpt>
      <trkpt lat="43.59317" lon="6.45658">
        <ele>398</ele>
        <time>2022-11-23T16:17:45.000Z</time>
      </trkpt>
      <trkpt lat="43.59318" lon="6.45665">
        <ele>398.3</ele>
        <time>2022-11-23T16:17:48.000Z</time>
      </trkpt>
      <trkpt lat="43.59321" lon="6.45671">
        <ele>398.3</ele>
        <time>2022-11-23T16:17:52.000Z</time>
      </trkpt>
      <trkpt lat="43.59322" lon="6.4568">
        <ele>398.2</ele>
        <time>2022-11-23T16:17:55.000Z</time>
      </trkpt>
      <trkpt lat="43.59325" lon="6.45686">
        <ele>398.4</ele>
        <time>2022-11-23T16:17:58.000Z</time>
      </trkpt>
      <trkpt lat="43.59328" lon="6.45692">
        <ele>398.7</ele>
        <time>2022-11-23T16:18:01.000Z</time>
      </trkpt>
      <trkpt lat="43.5933" lon="6.45699">
        <ele>398.8</ele>
        <time>2022-11-23T16:18:04.000Z</time>
      </trkpt>
      <trkpt lat="43.59332" lon="6.45704">
        <ele>398.9</ele>
        <time>2022-11-23T16:18:07.000Z</time>
      </trkpt>
      <trkpt lat="43.59334" lon="6.45712">
        <ele>398.7</ele>
        <time>2022-11-23T16:18:11.000Z</time>
      </trkpt>
      <trkpt lat="43.59337" lon="6.45719">
        <ele>399.2</ele>
        <time>2022-11-23T16:18:15.000Z</time>
      </trkpt>
      <trkpt lat="43.5934" lon="6.45724">
        <ele>399.5</ele>
        <time>2022-11-23T16:18:19.000Z</time>
      </trkpt>
      <trkpt lat="43.5934" lon="6.45732">
        <ele>399</ele>
        <time>2022-11-23T16:18:22.000Z</time>
      </trkpt>
      <trkpt lat="43.59342" lon="6.45738">
        <ele>399.6</ele>
        <time>2022-11-23T16:18:25.000Z</time>
      </trkpt>
      <trkpt lat="43.59343" lon="6.45746">
        <ele>399</ele>
        <time>2022-11-23T16:18:30.000Z</time>
      </trkpt>
      <trkpt lat="43.59344" lon="6.45754">
        <ele>399.5</ele>
        <time>2022-11-23T16:18:34.000Z</time>
      </trkpt>
      <trkpt lat="43.59346" lon="6.45765">
        <ele>399.8</ele>
        <time>2022-11-23T16:18:39.000Z</time>
      </trkpt>
      <trkpt lat="43.59347" lon="6.45772">
        <ele>400.6</ele>
        <time>2022-11-23T16:18:43.000Z</time>
      </trkpt>
      <trkpt lat="43.59347" lon="6.45779">
        <ele>401.3</ele>
        <time>2022-11-23T16:18:47.000Z</time>
      </trkpt>
      <trkpt lat="43.59347" lon="6.45785">
        <ele>401.3</ele>
        <time>2022-11-23T16:18:51.000Z</time>
      </trkpt>
      <trkpt lat="43.59344" lon="6.45791">
        <ele>401.1</ele>
        <time>2022-11-23T16:18:55.000Z</time>
      </trkpt>
      <trkpt lat="43.59339" lon="6.45795">
        <ele>401</ele>
        <time>2022-11-23T16:18:59.000Z</time>
      </trkpt>
      <trkpt lat="43.59339" lon="6.45801">
        <ele>401.5</ele>
        <time>2022-11-23T16:19:07.000Z</time>
      </trkpt>
      <trkpt lat="43.59337" lon="6.45809">
        <ele>401.7</ele>
        <time>2022-11-23T16:19:11.000Z</time>
      </trkpt>
      <trkpt lat="43.59335" lon="6.45815">
        <ele>402.1</ele>
        <time>2022-11-23T16:19:20.000Z</time>
      </trkpt>
      <trkpt lat="43.59331" lon="6.45819">
        <ele>402.2</ele>
        <time>2022-11-23T16:19:22.000Z</time>
      </trkpt>
      <trkpt lat="43.59328" lon="6.45824">
        <ele>402.1</ele>
        <time>2022-11-23T16:19:24.000Z</time>
      </trkpt>
      <trkpt lat="43.59324" lon="6.45829">
        <ele>401.6</ele>
        <time>2022-11-23T16:19:28.000Z</time>
      </trkpt>
      <trkpt lat="43.59323" lon="6.45838">
        <ele>401.6</ele>
        <time>2022-11-23T16:19:30.000Z</time>
      </trkpt>
      <trkpt lat="43.59322" lon="6.45844">
        <ele>401.5</ele>
        <time>2022-11-23T16:19:32.000Z</time>
      </trkpt>
      <trkpt lat="43.5932" lon="6.45852">
        <ele>401.9</ele>
        <time>2022-11-23T16:19:35.000Z</time>
      </trkpt>
      <trkpt lat="43.59321" lon="6.45861">
        <ele>401.9</ele>
        <time>2022-11-23T16:19:38.000Z</time>
      </trkpt>
      <trkpt lat="43.5932" lon="6.45868">
        <ele>401.7</ele>
        <time>2022-11-23T16:19:41.000Z</time>
      </trkpt>
      <trkpt lat="43.59319" lon="6.45883">
        <ele>401</ele>
        <time>2022-11-23T16:19:47.000Z</time>
      </trkpt>
      <trkpt lat="43.59319" lon="6.4589">
        <ele>402.1</ele>
        <time>2022-11-23T16:19:50.000Z</time>
      </trkpt>
      <trkpt lat="43.5932" lon="6.45899">
        <ele>402</ele>
        <time>2022-11-23T16:19:55.000Z</time>
      </trkpt>
      <trkpt lat="43.59321" lon="6.45907">
        <ele>401</ele>
        <time>2022-11-23T16:19:59.000Z</time>
      </trkpt>
      <trkpt lat="43.5932" lon="6.45916">
        <ele>402</ele>
        <time>2022-11-23T16:20:03.000Z</time>
      </trkpt>
      <trkpt lat="43.59322" lon="6.45923">
        <ele>402.1</ele>
        <time>2022-11-23T16:20:07.000Z</time>
      </trkpt>
      <trkpt lat="43.59323" lon="6.4593">
        <ele>402.1</ele>
        <time>2022-11-23T16:20:10.000Z</time>
      </trkpt>
      <trkpt lat="43.59323" lon="6.45937">
        <ele>401.6</ele>
        <time>2022-11-23T16:20:14.000Z</time>
      </trkpt>
      <trkpt lat="43.59324" lon="6.45944">
        <ele>401.5</ele>
        <time>2022-11-23T16:20:18.000Z</time>
      </trkpt>
      <trkpt lat="43.59322" lon="6.45951">
        <ele>401.4</ele>
        <time>2022-11-23T16:20:21.000Z</time>
      </trkpt>
      <trkpt lat="43.59322" lon="6.45957">
        <ele>401.7</ele>
        <time>2022-11-23T16:20:25.000Z</time>
      </trkpt>
      <trkpt lat="43.5932" lon="6.45963">
        <ele>401.9</ele>
        <time>2022-11-23T16:20:27.000Z</time>
      </trkpt>
      <trkpt lat="43.59318" lon="6.4597">
        <ele>402.3</ele>
        <time>2022-11-23T16:20:31.000Z</time>
      </trkpt>
      <trkpt lat="43.59314" lon="6.45977">
        <ele>402.6</ele>
        <time>2022-11-23T16:20:34.000Z</time>
      </trkpt>
      <trkpt lat="43.59311" lon="6.45983">
        <ele>402.2</ele>
        <time>2022-11-23T16:20:37.000Z</time>
      </trkpt>
      <trkpt lat="43.59308" lon="6.45989">
        <ele>402.5</ele>
        <time>2022-11-23T16:20:42.000Z</time>
      </trkpt>
      <trkpt lat="43.59307" lon="6.45995">
        <ele>402</ele>
        <time>2022-11-23T16:20:46.000Z</time>
      </trkpt>
      <trkpt lat="43.59305" lon="6.46001">
        <ele>402.1</ele>
        <time>2022-11-23T16:20:49.000Z</time>
      </trkpt>
      <trkpt lat="43.59302" lon="6.46007">
        <ele>402.4</ele>
        <time>2022-11-23T16:20:54.000Z</time>
      </trkpt>
      <trkpt lat="43.59306" lon="6.46011">
        <ele>401.9</ele>
        <time>2022-11-23T16:21:04.000Z</time>
      </trkpt>
      <trkpt lat="43.59311" lon="6.46012">
        <ele>402</ele>
        <time>2022-11-23T16:21:09.000Z</time>
      </trkpt>
      <trkpt lat="43.59316" lon="6.46015">
        <ele>402.4</ele>
        <time>2022-11-23T16:21:16.000Z</time>
      </trkpt>
      <trkpt lat="43.59315" lon="6.46021">
        <ele>402.7</ele>
        <time>2022-11-23T16:21:20.000Z</time>
      </trkpt>
      <trkpt lat="43.59317" lon="6.46026">
        <ele>403.1</ele>
        <time>2022-11-23T16:21:24.000Z</time>
      </trkpt>
      <trkpt lat="43.59317" lon="6.46034">
        <ele>402.5</ele>
        <time>2022-11-23T16:21:29.000Z</time>
      </trkpt>
      <trkpt lat="43.59313" lon="6.46038">
        <ele>402.3</ele>
        <time>2022-11-23T16:21:31.000Z</time>
      </trkpt>
      <trkpt lat="43.59313" lon="6.46045">
        <ele>402.7</ele>
        <time>2022-11-23T16:21:35.000Z</time>
      </trkpt>
      <trkpt lat="43.5931" lon="6.4605">
        <ele>402.6</ele>
        <time>2022-11-23T16:21:38.000Z</time>
      </trkpt>
      <trkpt lat="43.59307" lon="6.46059">
        <ele>402.4</ele>
        <time>2022-11-23T16:21:41.000Z</time>
      </trkpt>
      <trkpt lat="43.59304" lon="6.46065">
        <ele>402</ele>
        <time>2022-11-23T16:21:43.000Z</time>
      </trkpt>
      <trkpt lat="43.59301" lon="6.46071">
        <ele>402.7</ele>
        <time>2022-11-23T16:21:46.000Z</time>
      </trkpt>
      <trkpt lat="43.593" lon="6.46079">
        <ele>402</ele>
        <time>2022-11-23T16:21:51.000Z</time>
      </trkpt>
      <trkpt lat="43.59299" lon="6.46088">
        <ele>402</ele>
        <time>2022-11-23T16:21:55.000Z</time>
      </trkpt>
      <trkpt lat="43.59298" lon="6.46095">
        <ele>402</ele>
        <time>2022-11-23T16:21:59.000Z</time>
      </trkpt>
      <trkpt lat="43.59298" lon="6.46104">
        <ele>402</ele>
        <time>2022-11-23T16:22:03.000Z</time>
      </trkpt>
      <trkpt lat="43.593" lon="6.46112">
        <ele>402</ele>
        <time>2022-11-23T16:22:07.000Z</time>
      </trkpt>
      <trkpt lat="43.593" lon="6.4612">
        <ele>402</ele>
        <time>2022-11-23T16:22:11.000Z</time>
      </trkpt>
      <trkpt lat="43.593" lon="6.46127">
        <ele>401.9</ele>
        <time>2022-11-23T16:22:14.000Z</time>
      </trkpt>
      <trkpt lat="43.59298" lon="6.46135">
        <ele>401.5</ele>
        <time>2022-11-23T16:22:17.000Z</time>
      </trkpt>
      <trkpt lat="43.59298" lon="6.46142">
        <ele>401.7</ele>
        <time>2022-11-23T16:22:20.000Z</time>
      </trkpt>
      <trkpt lat="43.59298" lon="6.46148">
        <ele>402.3</ele>
        <time>2022-11-23T16:22:23.000Z</time>
      </trkpt>
      <trkpt lat="43.59299" lon="6.46155">
        <ele>403.2</ele>
        <time>2022-11-23T16:22:27.000Z</time>
      </trkpt>
      <trkpt lat="43.59298" lon="6.46163">
        <ele>403.1</ele>
        <time>2022-11-23T16:22:30.000Z</time>
      </trkpt>
      <trkpt lat="43.59298" lon="6.4617">
        <ele>402.5</ele>
        <time>2022-11-23T16:22:33.000Z</time>
      </trkpt>
      <trkpt lat="43.59298" lon="6.46176">
        <ele>403.3</ele>
        <time>2022-11-23T16:22:36.000Z</time>
      </trkpt>
      <trkpt lat="43.593" lon="6.46182">
        <ele>403.4</ele>
        <time>2022-11-23T16:22:39.000Z</time>
      </trkpt>
      <trkpt lat="43.593" lon="6.46189">
        <ele>403.4</ele>
        <time>2022-11-23T16:22:42.000Z</time>
      </trkpt>
      <trkpt lat="43.59301" lon="6.46197">
        <ele>403.5</ele>
        <time>2022-11-23T16:22:45.000Z</time>
      </trkpt>
      <trkpt lat="43.59302" lon="6.46204">
        <ele>403.7</ele>
        <time>2022-11-23T16:22:49.000Z</time>
      </trkpt>
      <trkpt lat="43.59304" lon="6.4621">
        <ele>404</ele>
        <time>2022-11-23T16:22:52.000Z</time>
      </trkpt>
      <trkpt lat="43.59308" lon="6.46216">
        <ele>403.7</ele>
        <time>2022-11-23T16:22:56.000Z</time>
      </trkpt>
      <trkpt lat="43.59307" lon="6.46223">
        <ele>403.4</ele>
        <time>2022-11-23T16:23:00.000Z</time>
      </trkpt>
      <trkpt lat="43.59311" lon="6.46229">
        <ele>403.8</ele>
        <time>2022-11-23T16:23:04.000Z</time>
      </trkpt>
      <trkpt lat="43.59314" lon="6.46234">
        <ele>403.9</ele>
        <time>2022-11-23T16:23:07.000Z</time>
      </trkpt>
      <trkpt lat="43.59317" lon="6.46245">
        <ele>403.6</ele>
        <time>2022-11-23T16:23:12.000Z</time>
      </trkpt>
      <trkpt lat="43.59319" lon="6.46252">
        <ele>403.7</ele>
        <time>2022-11-23T16:23:15.000Z</time>
      </trkpt>
      <trkpt lat="43.59321" lon="6.46258">
        <ele>403.4</ele>
        <time>2022-11-23T16:23:19.000Z</time>
      </trkpt>
      <trkpt lat="43.59324" lon="6.46265">
        <ele>403</ele>
        <time>2022-11-23T16:23:23.000Z</time>
      </trkpt>
      <trkpt lat="43.59326" lon="6.46271">
        <ele>403.1</ele>
        <time>2022-11-23T16:23:27.000Z</time>
      </trkpt>
      <trkpt lat="43.59329" lon="6.46277">
        <ele>403.2</ele>
        <time>2022-11-23T16:23:30.000Z</time>
      </trkpt>
      <trkpt lat="43.59331" lon="6.46284">
        <ele>403.2</ele>
        <time>2022-11-23T16:23:34.000Z</time>
      </trkpt>
      <trkpt lat="43.59332" lon="6.4629">
        <ele>403</ele>
        <time>2022-11-23T16:23:37.000Z</time>
      </trkpt>
      <trkpt lat="43.59334" lon="6.46297">
        <ele>402.7</ele>
        <time>2022-11-23T16:23:41.000Z</time>
      </trkpt>
      <trkpt lat="43.59335" lon="6.46304">
        <ele>402.8</ele>
        <time>2022-11-23T16:23:45.000Z</time>
      </trkpt>
      <trkpt lat="43.59335" lon="6.46311">
        <ele>403.3</ele>
        <time>2022-11-23T16:23:49.000Z</time>
      </trkpt>
      <trkpt lat="43.59335" lon="6.46319">
        <ele>403.2</ele>
        <time>2022-11-23T16:23:53.000Z</time>
      </trkpt>
      <trkpt lat="43.59334" lon="6.46326">
        <ele>403.2</ele>
        <time>2022-11-23T16:23:57.000Z</time>
      </trkpt>
      <trkpt lat="43.59332" lon="6.46334">
        <ele>403.6</ele>
        <time>2022-11-23T16:24:01.000Z</time>
      </trkpt>
      <trkpt lat="43.59329" lon="6.46341">
        <ele>403.5</ele>
        <time>2022-11-23T16:24:04.000Z</time>
      </trkpt>
      <trkpt lat="43.59327" lon="6.46348">
        <ele>403.5</ele>
        <time>2022-11-23T16:24:07.000Z</time>
      </trkpt>
      <trkpt lat="43.59328" lon="6.46354">
        <ele>403.6</ele>
        <time>2022-11-23T16:24:10.000Z</time>
      </trkpt>
      <trkpt lat="43.59327" lon="6.4636">
        <ele>403.8</ele>
        <time>2022-11-23T16:24:13.000Z</time>
      </trkpt>
      <trkpt lat="43.59328" lon="6.46368">
        <ele>404.4</ele>
        <time>2022-11-23T16:24:17.000Z</time>
      </trkpt>
      <trkpt lat="43.5933" lon="6.46373">
        <ele>404.7</ele>
        <time>2022-11-23T16:24:20.000Z</time>
      </trkpt>
      <trkpt lat="43.59333" lon="6.4638">
        <ele>405</ele>
        <time>2022-11-23T16:24:24.000Z</time>
      </trkpt>
      <trkpt lat="43.59332" lon="6.46387">
        <ele>405.3</ele>
        <time>2022-11-23T16:24:28.000Z</time>
      </trkpt>
      <trkpt lat="43.59331" lon="6.46394">
        <ele>405</ele>
        <time>2022-11-23T16:24:32.000Z</time>
      </trkpt>
      <trkpt lat="43.59331" lon="6.46402">
        <ele>405.1</ele>
        <time>2022-11-23T16:24:36.000Z</time>
      </trkpt>
      <trkpt lat="43.59333" lon="6.46409">
        <ele>405.1</ele>
        <time>2022-11-23T16:24:40.000Z</time>
      </trkpt>
      <trkpt lat="43.59335" lon="6.46415">
        <ele>404.8</ele>
        <time>2022-11-23T16:24:44.000Z</time>
      </trkpt>
      <trkpt lat="43.59336" lon="6.46421">
        <ele>404.5</ele>
        <time>2022-11-23T16:24:48.000Z</time>
      </trkpt>
      <trkpt lat="43.59337" lon="6.46428">
        <ele>404.3</ele>
        <time>2022-11-23T16:24:52.000Z</time>
      </trkpt>
      <trkpt lat="43.59341" lon="6.46433">
        <ele>403.6</ele>
        <time>2022-11-23T16:24:55.000Z</time>
      </trkpt>
      <trkpt lat="43.59341" lon="6.4644">
        <ele>403.5</ele>
        <time>2022-11-23T16:24:59.000Z</time>
      </trkpt>
      <trkpt lat="43.59342" lon="6.46447">
        <ele>403</ele>
        <time>2022-11-23T16:25:03.000Z</time>
      </trkpt>
      <trkpt lat="43.59343" lon="6.46454">
        <ele>402.9</ele>
        <time>2022-11-23T16:25:07.000Z</time>
      </trkpt>
      <trkpt lat="43.59347" lon="6.4646">
        <ele>403.1</ele>
        <time>2022-11-23T16:25:11.000Z</time>
      </trkpt>
      <trkpt lat="43.59346" lon="6.46466">
        <ele>403.7</ele>
        <time>2022-11-23T16:25:15.000Z</time>
      </trkpt>
      <trkpt lat="43.59346" lon="6.46472">
        <ele>403.4</ele>
        <time>2022-11-23T16:25:19.000Z</time>
      </trkpt>
      <trkpt lat="43.59348" lon="6.46478">
        <ele>403.4</ele>
        <time>2022-11-23T16:25:22.000Z</time>
      </trkpt>
      <trkpt lat="43.59351" lon="6.46484">
        <ele>403.9</ele>
        <time>2022-11-23T16:25:25.000Z</time>
      </trkpt>
      <trkpt lat="43.59353" lon="6.4649">
        <ele>404.4</ele>
        <time>2022-11-23T16:25:29.000Z</time>
      </trkpt>
      <trkpt lat="43.59356" lon="6.46496">
        <ele>405.6</ele>
        <time>2022-11-23T16:25:33.000Z</time>
      </trkpt>
      <trkpt lat="43.59359" lon="6.46502">
        <ele>406.4</ele>
        <time>2022-11-23T16:25:37.000Z</time>
      </trkpt>
      <trkpt lat="43.59361" lon="6.46509">
        <ele>406.9</ele>
        <time>2022-11-23T16:25:41.000Z</time>
      </trkpt>
      <trkpt lat="43.59361" lon="6.46516">
        <ele>407.6</ele>
        <time>2022-11-23T16:25:45.000Z</time>
      </trkpt>
      <trkpt lat="43.59363" lon="6.46523">
        <ele>408.2</ele>
        <time>2022-11-23T16:25:49.000Z</time>
      </trkpt>
      <trkpt lat="43.59364" lon="6.4653">
        <ele>408.8</ele>
        <time>2022-11-23T16:25:53.000Z</time>
      </trkpt>
      <trkpt lat="43.59365" lon="6.46537">
        <ele>408.6</ele>
        <time>2022-11-23T16:25:58.000Z</time>
      </trkpt>
      <trkpt lat="43.59366" lon="6.46543">
        <ele>408.2</ele>
        <time>2022-11-23T16:26:02.000Z</time>
      </trkpt>
      <trkpt lat="43.59368" lon="6.4655">
        <ele>407.9</ele>
        <time>2022-11-23T16:26:06.000Z</time>
      </trkpt>
      <trkpt lat="43.59368" lon="6.46557">
        <ele>407</ele>
        <time>2022-11-23T16:26:10.000Z</time>
      </trkpt>
      <trkpt lat="43.59369" lon="6.46563">
        <ele>407.7</ele>
        <time>2022-11-23T16:26:14.000Z</time>
      </trkpt>
      <trkpt lat="43.59369" lon="6.4657">
        <ele>408.3</ele>
        <time>2022-11-23T16:26:18.000Z</time>
      </trkpt>
      <trkpt lat="43.59368" lon="6.46577">
        <ele>408.8</ele>
        <time>2022-11-23T16:26:22.000Z</time>
      </trkpt>
      <trkpt lat="43.59367" lon="6.46584">
        <ele>408.9</ele>
        <time>2022-11-23T16:26:26.000Z</time>
      </trkpt>
      <trkpt lat="43.59367" lon="6.46591">
        <ele>408.8</ele>
        <time>2022-11-23T16:26:31.000Z</time>
      </trkpt>
      <trkpt lat="43.59367" lon="6.46598">
        <ele>408.4</ele>
        <time>2022-11-23T16:26:36.000Z</time>
      </trkpt>
      <trkpt lat="43.59367" lon="6.46605">
        <ele>409</ele>
        <time>2022-11-23T16:26:39.000Z</time>
      </trkpt>
      <trkpt lat="43.59367" lon="6.46612">
        <ele>409.5</ele>
        <time>2022-11-23T16:26:44.000Z</time>
      </trkpt>
      <trkpt lat="43.59368" lon="6.46619">
        <ele>409.9</ele>
        <time>2022-11-23T16:26:49.000Z</time>
      </trkpt>
      <trkpt lat="43.59368" lon="6.46626">
        <ele>410.3</ele>
        <time>2022-11-23T16:26:54.000Z</time>
      </trkpt>
      <trkpt lat="43.59366" lon="6.46634">
        <ele>409.9</ele>
        <time>2022-11-23T16:26:58.000Z</time>
      </trkpt>
      <trkpt lat="43.59363" lon="6.4664">
        <ele>410.1</ele>
        <time>2022-11-23T16:27:02.000Z</time>
      </trkpt>
      <trkpt lat="43.59359" lon="6.46644">
        <ele>410.4</ele>
        <time>2022-11-23T16:27:05.000Z</time>
      </trkpt>
      <trkpt lat="43.59357" lon="6.4665">
        <ele>411.3</ele>
        <time>2022-11-23T16:27:13.000Z</time>
      </trkpt>
      <trkpt lat="43.5936" lon="6.46657">
        <ele>410.7</ele>
        <time>2022-11-23T16:27:27.000Z</time>
      </trkpt>
      <trkpt lat="43.59364" lon="6.4666">
        <ele>410.8</ele>
        <time>2022-11-23T16:27:31.000Z</time>
      </trkpt>
      <trkpt lat="43.59367" lon="6.46665">
        <ele>410.5</ele>
        <time>2022-11-23T16:27:37.000Z</time>
      </trkpt>
      <trkpt lat="43.59366" lon="6.46671">
        <ele>410.7</ele>
        <time>2022-11-23T16:27:43.000Z</time>
      </trkpt>
      <trkpt lat="43.59363" lon="6.46677">
        <ele>410.7</ele>
        <time>2022-11-23T16:27:49.000Z</time>
      </trkpt>
      <trkpt lat="43.59364" lon="6.46684">
        <ele>411.2</ele>
        <time>2022-11-23T16:28:13.000Z</time>
      </trkpt>
      <trkpt lat="43.59365" lon="6.46692">
        <ele>411.7</ele>
        <time>2022-11-23T16:28:18.000Z</time>
      </trkpt>
      <trkpt lat="43.59368" lon="6.46698">
        <ele>411.4</ele>
        <time>2022-11-23T16:28:23.000Z</time>
      </trkpt>
      <trkpt lat="43.5937" lon="6.46705">
        <ele>411.6</ele>
        <time>2022-11-23T16:28:28.000Z</time>
      </trkpt>
      <trkpt lat="43.59373" lon="6.46712">
        <ele>411.2</ele>
        <time>2022-11-23T16:28:33.000Z</time>
      </trkpt>
      <trkpt lat="43.59376" lon="6.46719">
        <ele>412.1</ele>
        <time>2022-11-23T16:28:38.000Z</time>
      </trkpt>
      <trkpt lat="43.59379" lon="6.46724">
        <ele>412.3</ele>
        <time>2022-11-23T16:28:43.000Z</time>
      </trkpt>
      <trkpt lat="43.59377" lon="6.4673">
        <ele>413</ele>
        <time>2022-11-23T16:28:53.000Z</time>
      </trkpt>
      <trkpt lat="43.59372" lon="6.46731">
        <ele>413</ele>
        <time>2022-11-23T16:28:59.000Z</time>
      </trkpt>
      <trkpt lat="43.59367" lon="6.46732">
        <ele>414.5</ele>
        <time>2022-11-23T16:29:06.000Z</time>
      </trkpt>
      <trkpt lat="43.59362" lon="6.46733">
        <ele>414.7</ele>
        <time>2022-11-23T16:29:13.000Z</time>
      </trkpt>
      <trkpt lat="43.59358" lon="6.46736">
        <ele>414.8</ele>
        <time>2022-11-23T16:29:18.000Z</time>
      </trkpt>
      <trkpt lat="43.59354" lon="6.46741">
        <ele>416.1</ele>
        <time>2022-11-23T16:29:25.000Z</time>
      </trkpt>
      <trkpt lat="43.59351" lon="6.46746">
        <ele>416.8</ele>
        <time>2022-11-23T16:29:29.000Z</time>
      </trkpt>
      <trkpt lat="43.59348" lon="6.46752">
        <ele>416.5</ele>
        <time>2022-11-23T16:29:34.000Z</time>
      </trkpt>
      <trkpt lat="43.59347" lon="6.46759">
        <ele>417.6</ele>
        <time>2022-11-23T16:29:39.000Z</time>
      </trkpt>
      <trkpt lat="43.59347" lon="6.46766">
        <ele>418.5</ele>
        <time>2022-11-23T16:29:42.000Z</time>
      </trkpt>
      <trkpt lat="43.59348" lon="6.46772">
        <ele>418.6</ele>
        <time>2022-11-23T16:29:45.000Z</time>
      </trkpt>
      <trkpt lat="43.59346" lon="6.46779">
        <ele>419.6</ele>
        <time>2022-11-23T16:29:52.000Z</time>
      </trkpt>
      <trkpt lat="43.59343" lon="6.46784">
        <ele>419.6</ele>
        <time>2022-11-23T16:29:57.000Z</time>
      </trkpt>
      <trkpt lat="43.59337" lon="6.46785">
        <ele>419.8</ele>
        <time>2022-11-23T16:30:01.000Z</time>
      </trkpt>
      <trkpt lat="43.59332" lon="6.46787">
        <ele>420.8</ele>
        <time>2022-11-23T16:30:06.000Z</time>
      </trkpt>
      <trkpt lat="43.59328" lon="6.4679">
        <ele>422.3</ele>
        <time>2022-11-23T16:30:13.000Z</time>
      </trkpt>
      <trkpt lat="43.59325" lon="6.46795">
        <ele>422.3</ele>
        <time>2022-11-23T16:30:19.000Z</time>
      </trkpt>
      <trkpt lat="43.5932" lon="6.46797">
        <ele>423.9</ele>
        <time>2022-11-23T16:30:24.000Z</time>
      </trkpt>
      <trkpt lat="43.5932" lon="6.46804">
        <ele>424.7</ele>
        <time>2022-11-23T16:30:29.000Z</time>
      </trkpt>
      <trkpt lat="43.5932" lon="6.46811">
        <ele>425.4</ele>
        <time>2022-11-23T16:30:36.000Z</time>
      </trkpt>
      <trkpt lat="43.59316" lon="6.46816">
        <ele>427.8</ele>
        <time>2022-11-23T16:30:42.000Z</time>
      </trkpt>
      <trkpt lat="43.59315" lon="6.46822">
        <ele>429</ele>
        <time>2022-11-23T16:30:52.000Z</time>
      </trkpt>
      <trkpt lat="43.5931" lon="6.46826">
        <ele>429.1</ele>
        <time>2022-11-23T16:30:58.000Z</time>
      </trkpt>
      <trkpt lat="43.59307" lon="6.46833">
        <ele>432</ele>
        <time>2022-11-23T16:31:04.000Z</time>
      </trkpt>
      <trkpt lat="43.59303" lon="6.46837">
        <ele>432.3</ele>
        <time>2022-11-23T16:31:08.000Z</time>
      </trkpt>
      <trkpt lat="43.59299" lon="6.46842">
        <ele>434.9</ele>
        <time>2022-11-23T16:31:15.000Z</time>
      </trkpt>
      <trkpt lat="43.59295" lon="6.46846">
        <ele>434.7</ele>
        <time>2022-11-23T16:31:20.000Z</time>
      </trkpt>
      <trkpt lat="43.59292" lon="6.46852">
        <ele>434.2</ele>
        <time>2022-11-23T16:31:27.000Z</time>
      </trkpt>
      <trkpt lat="43.59289" lon="6.46858">
        <ele>434.9</ele>
        <time>2022-11-23T16:31:31.000Z</time>
      </trkpt>
      <trkpt lat="43.59286" lon="6.46863">
        <ele>437.2</ele>
        <time>2022-11-23T16:31:35.000Z</time>
      </trkpt>
      <trkpt lat="43.59283" lon="6.46869">
        <ele>436.8</ele>
        <time>2022-11-23T16:31:38.000Z</time>
      </trkpt>
      <trkpt lat="43.59278" lon="6.4687">
        <ele>437.9</ele>
        <time>2022-11-23T16:31:43.000Z</time>
      </trkpt>
      <trkpt lat="43.59274" lon="6.46873">
        <ele>439.2</ele>
        <time>2022-11-23T16:31:47.000Z</time>
      </trkpt>
      <trkpt lat="43.59269" lon="6.46877">
        <ele>439.1</ele>
        <time>2022-11-23T16:31:51.000Z</time>
      </trkpt>
      <trkpt lat="43.59264" lon="6.46878">
        <ele>439.4</ele>
        <time>2022-11-23T16:31:54.000Z</time>
      </trkpt>
      <trkpt lat="43.59259" lon="6.4688">
        <ele>440.3</ele>
        <time>2022-11-23T16:31:59.000Z</time>
      </trkpt>
      <trkpt lat="43.59255" lon="6.46884">
        <ele>439.6</ele>
        <time>2022-11-23T16:32:04.000Z</time>
      </trkpt>
      <trkpt lat="43.59248" lon="6.46884">
        <ele>440.2</ele>
        <time>2022-11-23T16:32:11.000Z</time>
      </trkpt>
      <trkpt lat="43.59243" lon="6.46882">
        <ele>440.6</ele>
        <time>2022-11-23T16:32:17.000Z</time>
      </trkpt>
      <trkpt lat="43.59237" lon="6.46881">
        <ele>440.8</ele>
        <time>2022-11-23T16:32:21.000Z</time>
      </trkpt>
      <trkpt lat="43.59233" lon="6.46884">
        <ele>441</ele>
        <time>2022-11-23T16:32:26.000Z</time>
      </trkpt>
      <trkpt lat="43.59229" lon="6.46884">
        <ele>441.7</ele>
        <time>2022-11-23T16:32:31.000Z</time>
      </trkpt>
      <trkpt lat="43.59224" lon="6.46886">
        <ele>441.8</ele>
        <time>2022-11-23T16:32:34.000Z</time>
      </trkpt>
      <trkpt lat="43.5922" lon="6.46891">
        <ele>440.8</ele>
        <time>2022-11-23T16:32:39.000Z</time>
      </trkpt>
      <trkpt lat="43.59215" lon="6.46894">
        <ele>441.3</ele>
        <time>2022-11-23T16:32:43.000Z</time>
      </trkpt>
      <trkpt lat="43.59211" lon="6.46896">
        <ele>441.8</ele>
        <time>2022-11-23T16:32:47.000Z</time>
      </trkpt>
      <trkpt lat="43.59206" lon="6.46899">
        <ele>441.9</ele>
        <time>2022-11-23T16:32:51.000Z</time>
      </trkpt>
      <trkpt lat="43.59202" lon="6.46903">
        <ele>441.9</ele>
        <time>2022-11-23T16:32:57.000Z</time>
      </trkpt>
      <trkpt lat="43.59197" lon="6.46908">
        <ele>442.7</ele>
        <time>2022-11-23T16:33:01.000Z</time>
      </trkpt>
      <trkpt lat="43.59194" lon="6.46913">
        <ele>442.5</ele>
        <time>2022-11-23T16:33:05.000Z</time>
      </trkpt>
      <trkpt lat="43.59189" lon="6.46919">
        <ele>442.8</ele>
        <time>2022-11-23T16:33:11.000Z</time>
      </trkpt>
      <trkpt lat="43.59184" lon="6.46921">
        <ele>443.9</ele>
        <time>2022-11-23T16:33:14.000Z</time>
      </trkpt>
      <trkpt lat="43.5918" lon="6.46925">
        <ele>443.9</ele>
        <time>2022-11-23T16:33:17.000Z</time>
      </trkpt>
      <trkpt lat="43.59177" lon="6.4693">
        <ele>443.9</ele>
        <time>2022-11-23T16:33:21.000Z</time>
      </trkpt>
      <trkpt lat="43.59173" lon="6.46934">
        <ele>445.5</ele>
        <time>2022-11-23T16:33:26.000Z</time>
      </trkpt>
      <trkpt lat="43.59168" lon="6.46937">
        <ele>445.9</ele>
        <time>2022-11-23T16:33:30.000Z</time>
      </trkpt>
      <trkpt lat="43.59165" lon="6.46942">
        <ele>447.1</ele>
        <time>2022-11-23T16:33:35.000Z</time>
      </trkpt>
      <trkpt lat="43.59161" lon="6.46943">
        <ele>448</ele>
        <time>2022-11-23T16:33:42.000Z</time>
      </trkpt>
      <trkpt lat="43.59156" lon="6.46944">
        <ele>449.3</ele>
        <time>2022-11-23T16:33:49.000Z</time>
      </trkpt>
      <trkpt lat="43.59159" lon="6.46949">
        <ele>448.9</ele>
        <time>2022-11-23T16:34:04.000Z</time>
      </trkpt>
      <trkpt lat="43.59155" lon="6.46952">
        <ele>448.9</ele>
        <time>2022-11-23T16:36:49.000Z</time>
      </trkpt>
      <trkpt lat="43.59152" lon="6.46955">
        <ele>448.5</ele>
        <time>2022-11-23T16:38:32.000Z</time>
      </trkpt>
    </trkseg>
  </trk>
</gpx>